[[{"header":{"parameterUnit":"m.s-1","parameterCategory":1,"la1":30.6,"la2":29.2853,"lo1":-89.7004,"lo2":-87.6739,"dy":0.0162,"dx":0.0183,"nx":112,"ny":82,"refTime":"2025-01-26T06:00:00:Z","depth":0,"parameterNumber":2,"parameterNumberName":"U-component_of_WINDS"},"data":[0.0,0.0,0.0,0.0,0.0,0.0,0.0,0.0,0.0,0.0,0.0,0.0,0.0,0.0,0.0,0.0,0.0,0.0,0.0,0.0,0.0,0.0,0.0,0.0,0.0,0.0,0.0,0.0,0.0,0.0,0.0,0.0,0.0,0.0,0.0,0.0,0.0,0.0,0.0,0.0,0.0,0.0,0.0,0.0,0.0,0.0,0.0,0.0,0.0,0.0,0.0,0.0,0.0,0.0,0.0,0.0,0.0,0.0,0.0,0.0,0.0,0.0,0.0,0.0,0.0,0.0,0.0,0.0,0.0,0.0,0.0,0.0,0.0,0.0,0.0,0.0,0.0,0.0,0.0,0.0,0.0,0.0,0.0,0.0,0.0,0.0,0.0,0.0,0.0,0.0,0.0,-1.9111,-1.7517,-1.6225,-1.5553,-1.6063,-1.6009,-1.5053,0.0,0.0,0.0,0.0,0.0,0.0,0.0,0.0,0.0,0.0,0.0,0.0,0.0,0.0,0.0,0.0,0.0,0.0,0.0,0.0,0.0,0.0,0.0,0.0,0.0,0.0,0.0,0.0,0.0,0.0,0.0,0.0,0.0,0.0,0.0,0.0,0.0,0.0,0.0,0.0,0.0,0.0,0.0,0.0,0.0,0.0,0.0,0.0,0.0,0.0,0.0,0.0,0.0,0.0,0.0,0.0,0.0,0.0,0.0,0.0,0.0,0.0,0.0,0.0,0.0,0.0,0.0,0.0,0.0,0.0,0.0,0.0,0.0,0.0,0.0,0.0,0.0,0.0,0.0,0.0,0.0,0.0,0.0,0.0,0.0,0.0,0.0,0.0,0.0,0.0,0.0,0.0,0.0,0.0,0.0,0.0,0.0,0.0,0.0,0.0,0.0,0.0,0.0,0.0,-1.9897,-1.8355,-1.6634,-1.5822,-1.6358,-1.6448,-1.6311,-1.5933,0.0,0.0,0.0,0.0,0.0,0.0,0.0,0.0,0.0,0.0,0.0,0.0,0.0,0.0,0.0,0.0,0.0,0.0,0.0,0.0,0.0,0.0,0.0,0.0,0.0,0.0,0.0,0.0,0.0,0.0,0.0,0.0,0.0,0.0,0.0,0.0,0.0,0.0,0.0,0.0,0.0,0.0,0.0,0.0,0.0,0.0,0.0,0.0,0.0,0.0,0.0,0.0,0.0,0.0,0.0,0.0,0.0,0.0,0.0,0.0,0.0,0.0,0.0,0.0,0.0,0.0,0.0,0.0,0.0,0.0,0.0,0.0,0.0,0.0,0.0,0.0,0.0,0.0,0.0,0.0,0.0,0.0,0.0,0.0,0.0,0.0,0.0,0.0,0.0,0.0,0.0,0.0,0.0,0.0,0.0,0.0,0.0,0.0,0.0,0.0,0.0,0.0,0.0,-1.9809,-1.9373,-1.8125,-1.7285,-1.6774,-1.6668,-1.6588,-1.6464,-1.623,-1.753,0.0,0.0,0.0,0.0,0.0,0.0,0.0,0.0,0.0,0.0,0.0,0.0,0.0,0.0,0.0,0.0,0.0,0.0,0.0,0.0,0.0,0.0,0.0,0.0,0.0,0.0,0.0,0.0,0.0,0.0,0.0,0.0,0.0,0.0,0.0,0.0,0.0,0.0,0.0,0.0,0.0,0.0,0.0,0.0,0.0,0.0,0.0,0.0,0.0,0.0,0.0,0.0,0.0,0.0,0.0,0.0,0.0,0.0,0.0,0.0,0.0,0.0,0.0,0.0,0.0,0.0,0.0,0.0,0.0,0.0,0.0,0.0,0.0,0.0,0.0,0.0,0.0,0.0,0.0,0.0,0.0,0.0,0.0,0.0,0.0,0.0,0.0,0.0,0.0,0.0,0.0,0.0,0.0,0.0,0.0,0.0,0.0,0.0,0.0,0.0,0.0,0.0,-1.9295,-1.904,-1.8376,-1.7946,-1.7519,-1.7059,-1.6753,-1.6516,-1.6312,-1.7751,0.0,0.0,0.0,0.0,0.0,0.0,0.0,0.0,0.0,0.0,0.0,0.0,0.0,0.0,0.0,0.0,0.0,0.0,0.0,0.0,0.0,0.0,0.0,0.0,0.0,0.0,0.0,0.0,0.0,0.0,0.0,0.0,0.0,0.0,0.0,0.0,0.0,0.0,0.0,0.0,0.0,0.0,0.0,0.0,0.0,0.0,0.0,0.0,0.0,0.0,0.0,0.0,0.0,0.0,0.0,0.0,0.0,0.0,0.0,0.0,0.0,0.0,0.0,0.0,0.0,0.0,0.0,0.0,0.0,0.0,0.0,0.0,0.0,0.0,0.0,0.0,0.0,0.0,0.0,0.0,0.0,0.0,0.0,0.0,0.0,0.0,0.0,0.0,0.0,0.0,0.0,0.0,0.0,0.0,0.0,0.0,0.0,0.0,0.0,0.0,0.0,0.0,-1.9293,-1.9271,-1.9213,-1.7765,-1.7084,-1.7832,-1.7102,-1.6507,-1.6301,-1.7803,0.0,0.0,0.0,0.0,0.0,0.0,0.0,0.0,0.0,0.0,0.0,0.0,0.0,0.0,0.0,0.0,0.0,0.0,0.0,0.0,0.0,0.0,0.0,0.0,0.0,0.0,0.0,0.0,0.0,0.0,0.0,0.0,0.0,0.0,0.0,0.0,0.0,0.0,0.0,0.0,0.0,0.0,0.0,0.0,0.0,0.0,0.0,0.0,0.0,0.0,0.0,0.0,0.0,0.0,0.0,0.0,0.0,0.0,0.0,0.0,0.0,0.0,0.0,0.0,0.0,0.0,0.0,0.0,0.0,0.0,0.0,0.0,0.0,0.0,0.0,0.0,0.0,0.0,0.0,0.0,0.0,0.0,0.0,0.0,0.0,0.0,0.0,0.0,0.0,0.0,0.0,0.0,0.0,0.0,0.0,0.0,0.0,0.0,0.0,0.0,0.0,0.0,-1.8952,-1.9299,0.0,-1.8225,-1.7646,-1.7968,-1.7184,-1.6583,-1.6435,0.0,0.0,0.0,0.0,0.0,0.0,0.0,0.0,0.0,0.0,0.0,0.0,0.0,0.0,0.0,0.0,0.0,0.0,0.0,0.0,0.0,0.0,0.0,0.0,0.0,0.0,0.0,0.0,0.0,0.0,0.0,0.0,0.0,0.0,0.0,0.0,0.0,0.0,0.0,0.0,0.0,0.0,0.0,0.0,0.0,0.0,0.0,0.0,0.0,0.0,0.0,0.0,0.0,0.0,0.0,0.0,0.0,0.0,0.0,0.0,0.0,0.0,0.0,0.0,0.0,0.0,0.0,0.0,0.0,0.0,0.0,0.0,0.0,0.0,0.0,0.0,0.0,0.0,0.0,0.0,0.0,0.0,0.0,0.0,0.0,0.0,0.0,0.0,0.0,0.0,0.0,0.0,0.0,0.0,0.0,0.0,0.0,0.0,0.0,0.0,0.0,0.0,-1.8081,-1.8923,-1.9636,0.0,-1.8633,-1.8081,-1.8394,-1.7109,-1.6352,-1.6481,0.0,0.0,0.0,0.0,0.0,0.0,0.0,0.0,0.0,0.0,0.0,0.0,0.0,0.0,0.0,0.0,0.0,0.0,0.0,0.0,0.0,0.0,0.0,0.0,0.0,0.0,0.0,0.0,0.0,0.0,0.0,0.0,0.0,0.0,0.0,0.0,0.0,0.0,0.0,0.0,0.0,0.0,0.0,0.0,0.0,0.0,0.0,0.0,0.0,0.0,0.0,0.0,0.0,0.0,0.0,0.0,0.0,0.0,0.0,0.0,0.0,0.0,0.0,0.0,0.0,0.0,0.0,0.0,0.0,0.0,0.0,0.0,0.0,0.0,0.0,0.0,0.0,0.0,0.0,0.0,0.0,0.0,0.0,0.0,0.0,0.0,0.0,0.0,0.0,0.0,0.0,0.0,0.0,0.0,0.0,0.0,0.0,0.0,0.0,0.0,0.0,0.0,-1.8022,-1.932,-2.0335,-2.0383,-1.8903,-1.8277,-1.919,-1.6885,-1.5703,0.0,0.0,0.0,0.0,0.0,0.0,0.0,0.0,0.0,0.0,0.0,0.0,0.0,0.0,0.0,0.0,0.0,0.0,0.0,0.0,0.0,0.0,0.0,0.0,0.0,0.0,0.0,0.0,0.0,0.0,0.0,0.0,0.0,0.0,0.0,0.0,0.0,0.0,0.0,0.0,0.0,0.0,0.0,0.0,0.0,0.0,0.0,0.0,0.0,0.0,0.0,0.0,0.0,0.0,0.0,0.0,0.0,0.0,0.0,0.0,0.0,0.0,0.0,0.0,0.0,0.0,0.0,0.0,0.0,0.0,0.0,0.0,0.0,0.0,0.0,0.0,0.0,0.0,0.0,0.0,0.0,0.0,0.0,0.0,0.0,0.0,0.0,0.0,0.0,0.0,0.0,0.0,0.0,0.0,0.0,0.0,0.0,0.0,0.0,0.0,0.0,0.0,0.0,0.0,-2.0118,-2.0923,-2.0314,-1.9303,-1.8324,-1.7472,-1.618,-1.5467,-1.5633,0.0,0.0,0.0,0.0,0.0,0.0,0.0,0.0,0.0,0.0,0.0,0.0,0.0,0.0,0.0,0.0,0.0,0.0,0.0,0.0,0.0,0.0,0.0,0.0,0.0,0.0,0.0,0.0,0.0,0.0,0.0,0.0,0.0,0.0,0.0,0.0,0.0,0.0,0.0,0.0,0.0,0.0,0.0,0.0,0.0,0.0,0.0,0.0,0.0,0.0,0.0,0.0,0.0,0.0,0.0,0.0,0.0,0.0,0.0,0.0,0.0,0.0,0.0,0.0,0.0,0.0,0.0,0.0,0.0,0.0,0.0,0.0,0.0,0.0,0.0,0.0,0.0,0.0,0.0,0.0,0.0,0.0,0.0,0.0,0.0,0.0,0.0,0.0,0.0,0.0,0.0,0.0,0.0,0.0,0.0,0.0,0.0,0.0,0.0,0.0,0.0,0.0,-1.8993,-2.0314,-2.1163,-2.0683,-1.9308,-1.805,-1.7142,-1.6016,-1.5345,-1.5293,0.0,0.0,0.0,0.0,0.0,0.0,0.0,0.0,0.0,0.0,0.0,0.0,0.0,0.0,0.0,0.0,0.0,0.0,0.0,0.0,0.0,0.0,0.0,0.0,0.0,0.0,0.0,0.0,0.0,0.0,0.0,0.0,0.0,0.0,0.0,0.0,0.0,0.0,0.0,0.0,0.0,0.0,0.0,0.0,0.0,0.0,0.0,0.0,0.0,0.0,0.0,0.0,0.0,0.0,0.0,0.0,0.0,0.0,0.0,0.0,0.0,0.0,0.0,0.0,0.0,0.0,0.0,0.0,0.0,0.0,0.0,0.0,0.0,0.0,0.0,0.0,0.0,0.0,0.0,0.0,0.0,0.0,0.0,0.0,0.0,0.0,0.0,0.0,0.0,0.0,0.0,0.0,0.0,0.0,0.0,0.0,0.0,0.0,0.0,0.0,0.0,0.0,-1.8797,-2.0109,-2.1115,-2.1167,-1.9031,-1.7623,-1.7655,-1.6191,-1.527,-1.5298,0.0,0.0,0.0,0.0,0.0,0.0,0.0,0.0,0.0,0.0,0.0,0.0,0.0,0.0,0.0,0.0,0.0,0.0,0.0,0.0,0.0,0.0,0.0,0.0,0.0,0.0,0.0,0.0,0.0,0.0,0.0,0.0,0.0,0.0,0.0,0.0,0.0,0.0,0.0,0.0,0.0,0.0,0.0,0.0,0.0,0.0,0.0,0.0,0.0,0.0,0.0,0.0,0.0,0.0,0.0,0.0,0.0,0.0,0.0,0.0,-1.9048,0.0,0.0,0.0,0.0,0.0,0.0,0.0,0.0,0.0,0.0,0.0,0.0,0.0,0.0,0.0,0.0,0.0,0.0,0.0,0.0,0.0,0.0,0.0,0.0,0.0,0.0,0.0,0.0,0.0,0.0,0.0,0.0,0.0,0.0,0.0,0.0,0.0,0.0,0.0,0.0,0.0,-1.8731,-2.0031,-2.0784,-2.0175,-1.9063,-1.7862,-1.6643,-1.5677,-1.5168,-1.5219,0.0,0.0,0.0,0.0,0.0,0.0,0.0,0.0,0.0,0.0,0.0,0.0,0.0,0.0,0.0,0.0,0.0,0.0,0.0,0.0,0.0,0.0,0.0,0.0,0.0,0.0,0.0,0.0,0.0,0.0,0.0,0.0,0.0,0.0,0.0,0.0,0.0,0.0,0.0,0.0,0.0,0.0,0.0,0.0,0.0,0.0,0.0,0.0,0.0,0.0,0.0,0.0,0.0,0.0,0.0,0.0,0.0,0.0,0.0,0.0,0.0,-1.8594,0.0,0.0,0.0,0.0,0.0,0.0,0.0,0.0,0.0,0.0,0.0,0.0,0.0,0.0,0.0,0.0,0.0,0.0,0.0,0.0,0.0,0.0,0.0,0.0,0.0,0.0,0.0,0.0,0.0,0.0,0.0,0.0,0.0,0.0,0.0,0.0,0.0,0.0,0.0,0.0,-1.8662,-1.9848,-2.0672,-2.0362,-1.8894,-1.7616,-1.6834,-1.5692,-1.5044,-1.5149,-1.5647,0.0,0.0,0.0,0.0,0.0,0.0,0.0,0.0,0.0,0.0,0.0,0.0,0.0,0.0,0.0,0.0,0.0,0.0,0.0,0.0,0.0,0.0,0.0,0.0,0.0,0.0,0.0,0.0,0.0,0.0,0.0,0.0,0.0,0.0,0.0,0.0,0.0,0.0,0.0,0.0,0.0,0.0,0.0,0.0,0.0,0.0,0.0,0.0,0.0,0.0,0.0,0.0,0.0,-1.6909,-1.7221,-1.8341,-1.7365,-1.7817,-1.9316,-1.8055,-1.7941,-1.8647,0.0,0.0,0.0,0.0,0.0,0.0,0.0,0.0,0.0,0.0,0.0,0.0,0.0,0.0,0.0,0.0,0.0,0.0,0.0,0.0,0.0,0.0,0.0,0.0,0.0,-1.7886,-1.8534,0.0,0.0,0.0,0.0,0.0,0.0,0.0,0.0,0.0,0.0,0.0,0.0,-1.8508,-1.952,-2.042,-2.0625,-1.8546,-1.7208,-1.7344,-1.5847,-1.4927,-1.5069,-1.5141,-1.5209,0.0,0.0,0.0,0.0,0.0,0.0,0.0,0.0,0.0,0.0,0.0,0.0,0.0,0.0,0.0,0.0,0.0,0.0,0.0,0.0,0.0,0.0,0.0,0.0,0.0,0.0,0.0,0.0,0.0,0.0,0.0,0.0,-1.6169,-1.6265,0.0,0.0,0.0,0.0,0.0,0.0,0.0,0.0,0.0,0.0,0.0,0.0,0.0,0.0,-1.7097,-1.7097,-1.7085,-1.7085,-1.6979,-1.7015,-1.714,-1.7024,-1.7105,-1.7319,-1.7749,0.0,-1.9054,-1.8475,0.0,0.0,0.0,0.0,0.0,0.0,0.0,0.0,0.0,0.0,0.0,0.0,0.0,0.0,0.0,0.0,0.0,0.0,0.0,0.0,0.0,0.0,-1.9217,-1.9099,-1.9162,-1.9264,0.0,-1.8105,-1.6989,-1.6939,0.0,0.0,0.0,0.0,0.0,0.0,0.0,0.0,-1.8099,-1.8825,-1.9436,-1.9567,-1.8001,-1.7015,-1.7202,-1.5737,-1.4849,-1.4921,-1.504,-1.512,-1.5139,-1.5198,0.0,0.0,0.0,0.0,0.0,0.0,0.0,0.0,0.0,0.0,0.0,0.0,0.0,0.0,0.0,0.0,0.0,0.0,0.0,0.0,0.0,0.0,0.0,0.0,0.0,0.0,0.0,0.0,0.0,-1.5549,-1.6208,-1.6564,-1.6528,-1.6625,0.0,0.0,0.0,0.0,0.0,0.0,0.0,0.0,0.0,-1.6696,-1.6242,-1.6135,-1.6448,-1.6448,-1.6448,-1.6448,-1.6827,-1.6971,-1.6955,-1.7151,-1.7646,-1.8342,-1.8021,-1.8321,-1.8998,-1.8396,-1.8544,-1.9093,0.0,0.0,0.0,0.0,0.0,-2.0213,-2.0389,-2.0385,0.0,0.0,0.0,0.0,0.0,0.0,0.0,0.0,0.0,0.0,0.0,0.0,0.0,-1.9007,-1.8973,-1.893,-1.9051,-1.8397,-1.7764,0.0,-1.7596,-1.7454,-1.7057,0.0,0.0,0.0,0.0,0.0,-1.8698,-1.8891,-1.9145,-1.9274,-1.7869,-1.6938,-1.7015,-1.5625,-1.4771,-1.4834,-1.4898,-1.4973,-1.5047,-1.5103,-1.4979,0.0,0.0,0.0,0.0,0.0,0.0,0.0,0.0,0.0,0.0,0.0,0.0,0.0,0.0,0.0,0.0,0.0,0.0,0.0,0.0,0.0,0.0,0.0,0.0,0.0,0.0,0.0,0.0,-1.5619,-1.6173,-1.6713,-1.6301,-1.6123,0.0,0.0,0.0,0.0,0.0,0.0,-1.6557,-1.6505,-1.6407,-1.6282,-1.6202,-1.6114,-1.5979,-1.6114,-1.6174,-1.6189,-1.6788,-1.7059,-1.7059,-1.7409,-1.8099,-1.9028,-1.8387,-1.8398,-1.8836,-1.8297,-1.8487,-1.9098,-1.8739,-1.9176,-2.0,-2.0091,-2.0186,-2.034,-2.0845,-2.0688,-2.0276,-2.0276,0.0,-1.8682,-1.8629,0.0,0.0,0.0,0.0,-1.8667,-1.8623,-1.8403,-1.8249,-1.8545,-1.8506,-1.8438,-1.8584,-1.8497,-1.8369,0.0,-1.8149,-1.7923,-1.732,0.0,0.0,0.0,0.0,-1.9633,-1.9273,-1.9022,-1.894,-1.9119,-1.7942,-1.7069,-1.689,-1.5698,-1.4972,-1.5052,-1.4893,-1.4937,-1.5237,-1.5113,-1.5061,-1.5067,0.0,0.0,0.0,0.0,0.0,0.0,0.0,0.0,0.0,0.0,0.0,0.0,0.0,0.0,0.0,0.0,0.0,0.0,0.0,0.0,0.0,0.0,0.0,0.0,0.0,0.0,0.0,0.0,0.0,-1.6151,-1.612,0.0,0.0,0.0,0.0,-1.512,-1.562,-1.5949,-1.5949,-1.6422,-1.6448,-1.5931,-1.6419,-1.6417,-1.5914,-1.6403,-1.6667,-1.6667,-1.7088,-1.725,-1.7213,-1.7718,-1.794,-1.7921,-1.8639,-1.8896,-1.8755,-1.8027,-1.7789,-1.7876,-1.7786,-1.8215,-1.8909,-1.9237,-1.9605,-1.9883,-1.9528,-1.9654,-1.9934,-1.9934,-1.9958,-1.998,-1.9772,-1.974,0.0,0.0,-1.9227,-1.9004,-1.8311,-1.8121,-1.8111,-1.8132,-1.8121,-1.8121,-1.8132,-1.8121,-1.8184,0.0,-1.8271,-1.8114,-1.8123,0.0,-1.8481,-1.9135,-1.8704,-1.8599,-1.9472,-1.8951,-1.8649,-1.8984,-1.8262,-1.7506,-1.6855,-1.6107,-1.5674,-1.5747,-1.5143,-1.5142,-1.5931,-1.5279,-1.4939,-1.5002,-1.4969,0.0,0.0,0.0,0.0,0.0,0.0,0.0,0.0,0.0,0.0,0.0,0.0,0.0,0.0,0.0,0.0,0.0,0.0,0.0,0.0,0.0,0.0,0.0,0.0,0.0,0.0,0.0,0.0,-1.5624,-1.5595,0.0,0.0,-1.5134,-1.5201,-1.5427,-1.5618,-1.5881,-1.6269,-1.6459,-1.6473,-1.6298,-1.6473,-1.6473,-1.6298,-1.6473,-1.6568,-1.6568,-1.7143,-1.7182,-1.6774,-1.7383,-1.764,-1.7622,-1.7903,-1.8003,-1.796,-1.7963,-1.8505,-1.9294,-1.8843,-1.9249,-2.0099,-2.0209,-2.0369,-2.0464,-2.032,-2.0369,-2.04,-1.9941,-1.9798,-1.9731,-1.9187,-1.9034,-1.9,-1.8882,-1.8828,-1.8776,-1.8641,-1.8526,-1.8556,-1.907,-1.9058,-1.8891,-1.8779,-1.8631,-1.8433,-1.8001,-1.8012,-1.7945,-1.7445,-1.8622,-1.9532,-1.9263,-1.9452,-1.9745,-2.0067,-1.902,-1.8283,-1.8413,-1.7777,-1.7312,-1.7188,-1.6556,-1.6215,-1.6376,-1.5705,-1.5434,-1.5729,-1.5602,-1.5325,-1.489,-1.5517,-1.5475,0.0,0.0,0.0,0.0,0.0,0.0,0.0,0.0,0.0,0.0,0.0,0.0,0.0,0.0,0.0,0.0,0.0,0.0,0.0,0.0,0.0,0.0,0.0,0.0,0.0,0.0,-1.5625,-1.5453,-1.5436,-1.5413,-1.534,-1.5303,-1.5372,-1.5603,-1.5784,-1.605,-1.6441,-1.6641,-1.6654,-1.6468,-1.6641,-1.6641,-1.6468,-1.6641,-1.6736,-1.6736,-1.7322,-1.7365,-1.6955,-1.7562,-1.7838,-1.7838,-1.7838,-1.7838,-1.7857,-1.8133,-1.8772,-1.9588,-1.9184,-1.959,-2.0444,-2.0562,-2.0529,-2.0427,-2.0427,-2.0427,-2.035,-1.9866,-1.9694,-1.9633,-1.9248,-1.9139,-1.9124,-1.8997,-1.8965,-1.8932,-1.8841,-1.8705,-1.8736,-1.9271,-1.9271,-1.9086,-1.8954,-1.865,-1.8292,-1.7944,-1.7866,-1.7759,-1.7433,-1.8814,-1.9904,-1.9704,-1.9849,-2.0039,-2.024,-1.8944,-1.8023,-1.809,-1.7695,-1.7385,-1.7273,-1.6923,-1.678,-1.6957,-1.6063,-1.5664,-1.5957,-1.5618,-1.5189,-1.4673,-1.5427,-1.5586,-1.5099,0.0,0.0,0.0,0.0,0.0,0.0,0.0,0.0,0.0,0.0,0.0,0.0,0.0,0.0,0.0,0.0,0.0,0.0,0.0,0.0,0.0,0.0,0.0,-1.546,-1.5343,-1.5438,-1.5672,-1.571,-1.5777,-1.5973,-1.5973,-1.5858,-1.5563,-1.6062,-1.6402,-1.6415,-1.6911,-1.6963,-1.6441,-1.6924,-1.695,-1.6428,-1.6937,-1.7199,-1.7199,-1.7598,-1.7767,-1.7787,-1.8246,-1.8461,-1.8461,-1.8461,-1.8461,-1.8461,-1.8461,-1.8481,-1.8502,-1.8638,-1.9086,-1.9693,-2.0032,-1.9945,-1.969,-1.969,-1.969,-1.9708,-1.9708,-1.9708,-1.9747,-2.0102,-2.0174,-2.0121,-1.9797,-1.9689,-1.9547,-1.8824,-1.8636,-1.8636,-1.8651,-1.8651,-1.8651,-1.8635,-1.8115,-1.7803,-1.8297,-1.785,-1.7597,-1.8205,-1.8729,-1.9412,-2.0385,-1.9691,0.0,-1.9862,-1.8672,-1.7861,-1.8048,-1.808,-1.7793,-1.7084,-1.7195,-1.7355,-1.7471,-1.6174,-1.5789,-1.6606,-1.5268,-1.4495,-1.4435,-1.4727,-1.489,-1.4908,0.0,0.0,0.0,0.0,0.0,0.0,0.0,0.0,0.0,0.0,0.0,0.0,0.0,0.0,0.0,0.0,0.0,0.0,0.0,0.0,0.0,0.0,-1.6716,-1.656,-1.6531,-1.6405,-1.6027,-1.5984,-1.5892,-1.566,-1.5636,-1.5783,-1.6133,-1.6297,-1.6558,-1.6963,-1.712,-1.7133,-1.6977,-1.712,-1.7133,-1.6977,-1.7133,-1.7199,-1.7199,-1.7323,-1.7352,-1.7372,-1.7496,-1.7557,-1.7557,-1.7557,-1.7557,-1.7578,-1.7868,-1.7988,-1.8034,-1.8413,-1.8683,-1.8846,-1.8926,-1.9091,-1.9269,-1.9269,-1.9472,-1.9708,-1.9708,-1.9708,-1.9726,-1.98,-1.9836,-1.9808,-1.973,-1.9704,-1.9658,-1.9459,-1.9396,-1.945,-1.9704,-1.9754,-1.968,-1.939,-1.9108,-1.8781,-1.8331,-1.772,-1.7471,-1.8179,-1.8461,-1.868,-1.8959,-1.8605,0.0,-1.8522,-1.798,-1.7592,-1.7587,-1.7587,-1.7568,-1.7501,-1.756,-1.7453,0.0,-1.6308,-1.5709,-1.5414,-1.5145,-1.5074,-1.5194,-1.4852,-1.4728,0.0,0.0,0.0,0.0,0.0,0.0,0.0,0.0,0.0,0.0,0.0,0.0,0.0,0.0,0.0,0.0,0.0,0.0,0.0,0.0,0.0,0.0,-1.6378,-1.7004,-1.7324,-1.6954,-1.6556,-1.6366,-1.6289,-1.6213,-1.6199,-1.6205,-1.6349,-1.6702,-1.6728,-1.6872,-1.7186,-1.7073,-1.6976,-1.6976,-1.6976,-1.6913,-1.6778,-1.6926,-1.6926,-1.6778,-1.6778,-1.6863,-1.6976,-1.6842,-1.6863,0.0,-1.6976,-1.6976,-1.7018,-1.7393,-1.7557,0.0,0.0,0.0,0.0,0.0,-1.8649,-1.8841,-1.8841,-1.9105,-1.942,-1.9254,-1.931,-1.942,-1.9254,-1.9203,-1.9203,-1.9203,-1.9203,-1.9203,-1.9203,-1.9328,-1.9493,-1.9696,-1.9749,-1.9662,-1.9375,-1.8891,-1.8374,-1.7899,0.0,0.0,-1.7578,-1.7729,-1.7821,-1.7956,-1.773,-1.7604,-1.7773,-1.7355,-1.7022,-1.6987,-1.7016,-1.7097,-1.7313,-1.7392,0.0,0.0,0.0,-1.541,-1.4481,-1.4506,0.0,0.0,0.0,0.0,0.0,0.0,0.0,0.0,-1.5322,-1.5417,0.0,0.0,0.0,0.0,0.0,0.0,0.0,0.0,0.0,0.0,0.0,0.0,0.0,0.0,0.0,0.0,-1.6542,-1.7205,-1.776,-1.6888,-1.6346,-1.6735,-1.6632,-1.6696,-1.716,-1.7199,-1.7178,-1.7157,-1.7178,-1.7178,-1.7157,0.0,0.0,0.0,0.0,-1.65,-1.62,-1.65,-1.65,-1.62,-1.62,-1.6362,-1.6637,-1.634,-1.6362,-1.6637,-1.6637,-1.668,-1.671,-1.7018,-1.7178,-1.7282,-1.8048,-1.8344,-1.8344,-1.8344,-1.8383,0.0,-1.8422,0.0,0.0,-1.863,-1.8745,-1.8969,-1.8611,-1.85,-1.85,-1.85,-1.85,-1.85,-1.85,-1.8765,-1.9026,-1.9026,-1.9026,-1.8993,-1.8874,-1.8111,-1.7385,-1.7306,-1.6948,-1.6638,-1.6623,-1.6739,-1.6924,-1.7221,-1.6982,-1.6906,-1.7254,-1.678,-1.6405,-1.6392,0.0,0.0,-1.6725,-1.6901,-1.6828,-1.6381,-1.5751,-1.4928,-1.3891,-1.3738,-1.387,-1.4271,-1.4343,-1.476,-1.5492,-1.576,-1.5848,-1.5799,-1.5544,-1.5774,0.0,0.0,0.0,0.0,0.0,0.0,0.0,0.0,0.0,0.0,0.0,0.0,0.0,0.0,0.0,-1.6667,-1.7259,-1.7652,-1.7435,-1.7079,-1.6954,-1.7309,-1.7316,-1.7253,-1.7206,-1.7199,-1.7094,-1.6829,-1.7039,-1.7081,-1.6808,-1.6744,0.0,-1.6689,-1.6436,-1.6275,-1.62,-1.6253,-1.6253,-1.62,0.0,0.0,-1.6297,-1.6244,-1.6231,-1.6297,-1.6297,-1.6457,-1.6723,-1.6786,-1.6955,-1.722,-1.7393,-1.7455,-1.7455,-1.7455,-1.7659,-1.7928,-1.7928,-1.8226,-1.8611,-1.8519,-1.8553,-1.8611,-1.8519,-1.85,0.0,-1.85,-1.85,-1.85,-1.85,-1.8572,-1.863,-1.863,-1.863,-1.8611,-1.8577,-1.8324,-1.7946,-1.7403,-1.6766,-1.6133,-1.5607,-1.598,-1.6356,-1.6419,-1.6204,-1.6035,-1.6121,-1.6292,-1.6378,-1.6326,-1.6326,-1.634,-1.638,-1.6434,-1.619,-1.5574,-1.4614,-1.412,-1.4196,-1.4187,-1.453,-1.5291,-1.5427,-1.5702,-1.6138,-1.6297,-1.6391,-1.6428,-1.6694,-1.6612,0.0,0.0,0.0,0.0,0.0,0.0,0.0,0.0,0.0,0.0,0.0,-1.5691,0.0,0.0,-1.6467,-1.6382,-1.6738,-1.6968,-1.6774,-1.6659,-1.6701,-1.6976,-1.6913,-1.682,-1.6714,-1.6693,-1.6629,-1.6457,-1.6607,-1.6629,-1.6457,-1.625,-1.6151,-1.6151,-1.5988,-1.5824,-1.5647,-1.5824,-1.5824,-1.5647,-1.5647,-1.5736,-1.5891,-1.5714,-1.5736,-1.5891,-1.5891,-1.5988,-1.6173,-1.6539,-1.6701,-1.6735,-1.7073,-1.7199,-1.7199,-1.7199,-1.7344,-1.7496,-1.7413,-1.772,-1.8048,-1.7787,-1.7828,-1.7968,-1.7787,-1.776,-1.776,-1.7828,-1.7848,-1.7848,-1.7848,-1.7988,-1.8147,-1.8147,-1.8108,-1.8068,-1.8008,-1.774,-1.7323,-1.6665,-1.6139,-1.5626,-1.5059,-1.5345,-1.5562,-1.5286,-1.5135,-1.5058,-1.5058,-1.5211,-1.5345,-1.53,-1.5492,-1.5652,-1.5738,-1.5716,-1.5569,-1.5268,-1.4173,-1.3855,-1.4519,-1.4328,-1.4588,-1.5419,-1.5518,-1.5872,-1.6541,-1.6686,-1.7002,-1.7521,-1.8187,-1.8238,0.0,0.0,0.0,0.0,0.0,0.0,0.0,0.0,-1.5214,-1.5179,-1.5591,-1.5907,-1.5757,-1.5944,-1.6069,-1.5897,-1.6055,-1.6178,-1.61,-1.6078,-1.6122,-1.6219,-1.621,-1.62,-1.62,-1.62,-1.6178,-1.61,-1.6156,-1.6178,-1.61,-1.578,-1.5591,-1.5591,-1.5546,-1.5367,-1.5108,-1.5379,-1.5379,-1.5108,-1.5108,-1.5244,-1.5479,-1.521,-1.5244,-1.5501,-1.5568,-1.5591,-1.5657,-1.6337,-1.6436,-1.6253,-1.6799,-1.7052,-1.7115,-1.7178,-1.7136,-1.7018,-1.7002,-1.7165,-1.7338,-1.701,-1.7115,-1.7344,-1.7065,-1.6981,-1.7002,-1.7115,-1.7136,-1.7136,-1.7136,-1.7393,-1.7639,-1.7639,-1.7618,-1.7578,-1.7434,-1.7065,-1.6562,-1.5949,-1.5543,-1.5153,-1.4672,-1.477,-1.4774,-1.4349,-1.4395,-1.4406,-1.4314,-1.43,-1.43,-1.43,-1.4592,-1.4876,-1.5106,-1.5132,-1.5101,-1.5004,-1.4153,-1.3995,-1.473,-1.4454,-1.4669,-1.5528,-1.5572,-1.6037,-1.6882,-1.7082,-1.7554,-1.8332,-1.9291,-1.9613,-1.5519,-1.4998,-1.4433,-1.4127,-1.4553,-1.4944,0.0,0.0,-1.5604,-1.5488,-1.5647,-1.5814,-1.5794,-1.6015,-1.6188,-1.6167,-1.6173,-1.6078,-1.5724,-1.5657,-1.558,-1.5289,-1.5814,-1.62,-1.62,-1.62,-1.6057,-1.568,-1.6013,-1.6035,-1.568,-1.5613,-1.5591,-1.5591,-1.53,-1.5131,-1.5108,-1.5131,-1.5131,-1.5108,-1.5108,-1.5131,-1.5153,-1.5108,-1.5131,-1.5176,-1.5479,-1.5591,-1.5635,-1.6066,-1.6244,-1.6222,-1.6287,-1.6479,-1.6786,-1.7094,-1.6858,-1.6475,-1.6863,-1.6689,-1.6364,-1.6757,-1.6918,-1.696,-1.6918,-1.6897,-1.6897,-1.6918,-1.6918,-1.6918,-1.6918,-1.7002,-1.7094,-1.7094,-1.7178,-1.722,-1.7073,-1.7002,-1.6751,-1.6036,-1.5431,-1.486,-1.4264,-1.4194,-1.4235,-1.4284,-1.4715,-1.4847,-1.4368,-1.43,-1.43,-1.43,-1.4335,-1.4495,-1.4825,-1.5106,-1.4994,-1.4354,-1.4456,-1.4571,-1.4626,-1.4868,-1.5417,-1.6354,-1.6597,-1.6865,-1.7148,-1.7586,-1.7853,-1.7977,-1.9048,-1.9641,-1.5449,-1.4822,0.0,0.0,-1.4323,-1.4657,-1.4519,-1.4998,-1.5461,-1.5401,-1.5732,-1.6035,-1.6035,-1.5941,-1.5846,0.0,-1.5691,-1.5491,-1.5334,-1.53,-1.5255,-1.5108,-1.5379,-1.5558,-1.5558,-1.5558,-1.5491,-1.5322,-1.5468,-1.5491,-1.5334,-1.53,-1.53,-1.53,-1.5176,-1.5108,-1.5108,-1.5108,-1.5108,-1.5108,-1.5108,-1.5108,-1.5108,-1.5108,-1.5108,-1.5108,-1.5244,-1.53,-1.5345,-1.5714,-1.5736,-1.5603,-1.6035,-1.6132,-1.6107,-1.6479,-1.6488,-1.629,-1.6207,-1.6129,-1.6086,-1.6216,-1.6445,-1.6684,-1.6761,-1.6599,-1.638,-1.642,-1.6238,-1.6086,-1.6355,-1.6463,-1.6548,-1.6863,-1.6918,-1.6876,-1.6846,-1.6543,-1.6219,-1.589,-1.516,-1.4505,-1.4203,-1.4421,-1.4404,-1.3758,-1.4154,-1.431,-1.3739,-1.3661,-1.3728,-1.3931,-1.3947,-1.4108,-1.4493,-1.4651,-1.4603,-1.4278,-1.4124,-1.4328,-1.492,-1.486,-1.5293,-1.6311,-1.6432,-1.6667,-1.7035,-1.7219,-1.7983,-1.9244,-1.9582,-2.0235,-1.4977,0.0,0.0,-1.4063,-1.4349,-1.4655,-1.4655,-1.511,-1.5543,-1.5543,-1.5819,-1.6035,-1.6035,-1.5714,0.0,-1.5457,-1.5255,-1.5108,-1.5108,-1.5108,-1.5108,-1.5108,-1.5108,-1.5108,-1.5108,-1.5108,-1.5108,-1.5108,-1.5108,-1.5108,-1.5108,-1.5108,-1.5108,-1.5108,-1.5108,-1.5108,-1.5108,-1.5108,-1.5108,-1.5108,-1.5108,-1.5108,-1.5108,-1.5108,-1.5108,-1.5108,-1.5108,-1.5108,-1.5131,-1.5367,-1.5322,-1.5153,-1.5691,-1.578,-1.5613,-1.5736,-1.5834,-1.5876,-1.5601,-1.5546,-1.5557,-1.5601,-1.5844,-1.612,-1.6231,-1.6022,-1.5768,-1.581,-1.5589,-1.54,-1.5732,-1.5852,-1.5974,-1.638,-1.6392,-1.6328,-1.6318,-1.5954,-1.5656,-1.5623,-1.4903,-1.4278,-1.4231,-1.455,-1.4424,-1.3228,-1.3698,-1.3927,-1.3276,-1.3198,-1.3301,-1.3531,-1.3648,-1.3815,-1.4108,-1.4238,-1.4238,-1.4141,-1.3917,-1.4094,-1.4758,-1.4703,-1.5019,-1.5796,-1.5981,-1.6229,-1.6575,-1.6722,-1.7762,-1.9593,-1.9636,-2.035,0.0,0.0,-1.3908,-1.4296,-1.4833,-1.5265,-1.5265,-1.5749,-1.6175,-1.6175,-1.5879,-1.5613,-1.5613,-1.5345,-1.5108,-1.5108,-1.5108,-1.5108,-1.5108,-1.5108,-1.5108,-1.5108,-1.5108,-1.5108,0.0,-1.5108,-1.5108,-1.5108,-1.5108,-1.5108,-1.5108,-1.5108,-1.5108,-1.5108,-1.5108,-1.5108,-1.5108,-1.5108,-1.5108,-1.5108,-1.5108,-1.5108,-1.5108,-1.5108,-1.5108,-1.5108,-1.5108,-1.5108,-1.5108,-1.5108,-1.5108,-1.5108,-1.5131,-1.5322,-1.5524,-1.4971,-1.4823,-1.4971,-1.522,-1.4937,-1.4512,-1.4971,-1.5131,-1.5131,-1.5153,-1.5131,-1.5131,-1.5131,-1.5131,-1.5108,-1.5131,-1.5232,-1.5333,-1.5333,-1.54,-1.5411,-1.5355,-1.5333,-1.5266,-1.5153,-1.4684,-1.4307,-1.4296,-1.4307,-1.3952,-1.288,-1.3609,-1.4032,-1.3275,-1.3198,-1.3198,-1.3215,-1.3514,-1.3698,-1.3715,-1.4075,-1.4124,-1.3735,-1.4065,-1.4114,-1.3752,-1.442,-1.4811,-1.4841,-1.5418,-1.5724,-1.5739,-1.6256,-1.7051,-1.8079,-1.8727,-1.9567,0.0,0.0,-1.4566,-1.442,-1.4791,-1.5176,-1.5176,-1.5317,-1.5468,-1.5468,-1.5356,-1.5266,-1.5266,-1.5176,-1.5108,-1.5108,-1.5108,-1.5108,-1.5108,-1.5108,-1.5108,-1.5108,-1.5395,0.0,0.0,0.0,0.0,-1.5108,-1.5108,-1.5108,-1.5108,-1.5108,-1.5108,-1.5108,-1.5108,-1.5108,-1.5108,-1.5108,-1.5108,-1.5108,-1.5108,-1.5108,-1.5108,-1.5108,-1.5108,-1.5108,-1.5108,-1.5108,-1.5108,-1.5108,-1.5108,-1.5108,-1.5108,-1.5176,-1.5221,-1.4697,-1.4535,-1.4558,-1.4466,-1.4419,-1.4419,-1.4581,-1.4857,-1.5108,-1.5108,-1.488,-1.4628,-1.4628,-1.4385,-1.4199,-1.4535,-1.4674,-1.4777,-1.5096,-1.5187,-1.5187,-1.5164,-1.4915,-1.4697,-1.4651,-1.4185,-1.3819,-1.3784,-1.4094,-1.4138,-1.3461,-1.3301,-1.326,-1.3322,-1.3052,-1.297,-1.3252,-1.3086,-1.3074,-1.334,-1.3493,-1.351,-1.3374,-1.3506,-1.3611,-1.3698,-1.4192,-1.4572,-1.4808,-1.5011,-1.53,-1.5695,-1.6099,-1.6998,-1.8338,-1.9115,-1.9859,0.0,-1.4339,-1.4792,-1.4679,-1.4878,-1.5108,-1.5108,-1.5108,-1.5108,-1.5108,-1.5108,-1.5108,-1.5108,-1.5269,-1.5326,-1.5142,-1.5269,-1.5326,-1.5142,-1.5108,-1.5177,-1.5372,-1.5705,0.0,0.0,0.0,0.0,-1.5406,-1.5395,-1.5395,-1.5395,-1.5211,-1.5108,-1.5108,-1.5108,-1.5108,-1.5108,-1.5108,-1.504,-1.4949,-1.4949,-1.4949,-1.4971,-1.5062,-1.5108,-1.5108,-1.5108,-1.5108,-1.5108,-1.5108,-1.5108,-1.5108,-1.5108,-1.5108,-1.504,-1.4558,-1.4396,-1.4361,-1.3986,-1.3962,-1.4116,-1.4116,-1.4316,-1.457,-1.457,-1.4339,-1.4116,-1.4116,-1.3881,-1.3692,-1.4012,-1.4116,-1.4186,-1.4478,-1.457,-1.457,-1.457,-1.4326,-1.4116,-1.4116,-1.3834,-1.3588,-1.3538,-1.3717,-1.3816,-1.3676,-1.3151,-1.2869,-1.3157,-1.3042,-1.3048,-1.3303,-1.3068,-1.2916,-1.3023,-1.3154,-1.3157,-1.3007,-1.3116,-1.3301,-1.3514,-1.3881,-1.4189,-1.4383,-1.4718,-1.5071,-1.5421,-1.5874,-1.6841,-1.8295,-1.8864,-1.953,-1.4417,-1.4504,-1.4609,-1.4993,-1.5108,-1.5108,-1.5108,-1.5108,-1.5119,-1.5142,-1.5131,-1.5119,0.0,0.0,-1.5739,-1.5234,-1.5579,-1.5716,-1.5188,-1.5108,-1.5292,0.0,0.0,0.0,0.0,0.0,0.0,-1.598,0.0,-1.5911,-1.5911,-1.5395,-1.5108,-1.5108,-1.5108,-1.5108,-1.5108,-1.5108,-1.4971,-1.472,-1.472,-1.472,-1.4731,-1.4971,-1.5108,-1.5108,-1.5108,-1.5108,-1.5108,-1.5108,-1.5108,-1.5108,-1.5108,-1.5108,-1.504,-1.4581,-1.443,-1.4326,-1.381,-1.361,-1.3597,-1.3597,-1.3597,-1.3597,-1.3597,-1.3597,-1.3597,-1.3597,-1.3597,-1.3597,-1.3597,-1.3597,-1.3597,-1.3597,-1.3597,-1.3597,-1.3597,-1.3597,-1.3597,-1.3597,-1.3597,-1.3597,-1.3597,-1.3225,-1.3091,-1.3501,-1.3191,-1.2892,-1.2829,-1.3141,-1.3358,-1.3378,-1.3354,-1.3179,-1.273,-1.3018,-1.305,-1.2591,-1.296,-1.3163,-1.3163,-1.3514,-1.3682,-1.3598,-1.4565,-1.5014,-1.49,-1.5586,-1.661,-1.7881,-1.8043,-1.869,-1.4415,-1.4671,-1.497,-1.5073,-1.5108,-1.5108,-1.5108,-1.5108,-1.52,-1.5601,-1.5383,-1.5337,0.0,0.0,0.0,-1.5728,-1.582,0.0,-1.5188,-1.5108,0.0,0.0,0.0,-1.5797,-1.5521,-1.652,0.0,0.0,-1.6095,-1.5912,-1.5911,-1.5395,-1.5108,-1.5108,-1.5108,-1.5108,-1.5108,-1.5108,-1.5062,-1.4994,-1.4994,-1.4994,-1.4994,-1.5062,-1.5108,-1.5108,-1.5108,-1.5108,-1.5108,-1.5108,-1.5108,-1.5108,-1.5108,-1.5108,-1.5062,-1.4743,-1.4605,-1.4535,-1.408,-1.3773,-1.3597,-1.3597,-1.3597,-1.3597,-1.3597,-1.3597,-1.3597,-1.3597,-1.3597,-1.3597,-1.3597,-1.3597,-1.3597,-1.3597,-1.3597,-1.3597,-1.3597,-1.3597,-1.3597,-1.3597,-1.3597,-1.3597,-1.3597,-1.3493,-1.3358,-1.3174,-1.3046,-1.2973,-1.2946,-1.2993,-1.3029,-1.3029,-1.2706,-1.2569,-1.2677,-1.2524,-1.235,-1.224,-1.2561,-1.2743,-1.2743,-1.3365,-1.3682,-1.3598,-1.4345,-1.4778,-1.49,-1.5811,-1.6726,-1.7622,-1.82,-1.8815,-1.4728,-1.4901,-1.5108,-1.5108,-1.5108,-1.5108,-1.5108,-1.5292,-1.5544,-1.5843,-1.567,0.0,0.0,0.0,0.0,0.0,0.0,0.0,-1.5533,-1.5257,-1.52,0.0,-1.5728,0.0,-1.5785,-1.6543,-1.6933,0.0,-1.6359,-1.621,-1.6197,-1.5486,-1.5108,-1.5108,-1.5108,-1.5108,-1.5108,-1.4971,-1.4926,-1.4926,-1.4926,-1.4926,-1.4926,-1.504,-1.5108,-1.5108,0.0,-1.5108,-1.5108,-1.5108,-1.5108,-1.5108,-1.5108,-1.504,-1.4903,-1.4651,-1.4489,-1.4337,-1.3962,-1.3716,-1.3597,-1.3597,-1.3597,-1.3597,-1.3597,-1.3597,-1.3597,-1.3597,-1.3597,-1.3597,-1.3597,-1.3597,-1.3597,-1.3597,-1.3597,-1.3597,-1.3597,-1.3597,-1.3597,-1.3597,-1.3597,-1.3597,-1.3597,-1.3597,-1.3467,-1.3064,-1.2991,-1.2871,-1.2564,-1.2627,-1.2659,-1.2496,-1.2364,-1.2225,-1.2023,-1.2102,-1.2065,-1.1851,-1.2318,-1.2603,-1.2603,-1.297,-1.3325,-1.3629,-1.4141,-1.4607,-1.5131,-1.6013,-1.6722,-1.7241,-1.7995,-1.8442,-1.5131,-1.5108,-1.5108,-1.5108,-1.5108,-1.5108,-1.5108,-1.5521,-1.5924,-1.59,0.0,0.0,-1.6598,0.0,-1.6621,-1.669,0.0,-1.653,-1.6072,-1.5602,-1.5452,-1.5854,-1.59,-1.6014,-1.6369,-1.6461,-1.6507,-1.6507,-1.6507,-1.6507,-1.6507,-1.5601,-1.5108,-1.5108,-1.5108,-1.5108,-1.5108,-1.4857,-1.4743,-1.4743,-1.4743,-1.4743,-1.4766,-1.4994,-1.5108,-1.5108,0.0,0.0,-1.5108,-1.5108,-1.5108,-1.5108,-1.5108,-1.4949,-1.472,-1.4558,-1.4361,-1.4104,-1.381,-1.3716,-1.3681,-1.3621,-1.3597,-1.3597,-1.3597,-1.3597,-1.3597,-1.3597,-1.3597,-1.3597,-1.3597,-1.3597,-1.3597,-1.3597,-1.3597,-1.3597,-1.3597,-1.3597,-1.3597,-1.3597,-1.3597,-1.3597,-1.3597,-1.3597,-1.3467,-1.3064,-1.2967,-1.2686,-1.1993,-1.2249,-1.2353,-1.1926,-1.2109,-1.194,-1.119,-1.1641,-1.1791,-1.1389,-1.2054,-1.2461,-1.2431,-1.2478,-1.2835,-1.3494,-1.3958,-1.4558,-1.5306,-1.611,-1.665,-1.6939,-1.7557,-1.7828,-1.5131,-1.5108,-1.5108,-1.5108,-1.5108,-1.5108,-1.5108,-1.5603,0.0,0.0,0.0,-1.6309,-1.7108,-1.6899,0.0,-1.7186,0.0,0.0,0.0,0.0,-1.6244,0.0,0.0,0.0,0.0,0.0,0.0,0.0,0.0,0.0,-1.6026,-1.5441,-1.5108,-1.5108,-1.5108,-1.5108,-1.5108,-1.5062,-1.504,-1.504,-1.504,-1.504,-1.504,-1.5085,-1.5108,-1.5108,0.0,0.0,-1.5108,-1.5108,-1.5108,-1.5108,-1.5108,-1.5062,-1.504,-1.4994,-1.4949,-1.4857,-1.4419,-1.4257,-1.4186,-1.3729,-1.3597,-1.3597,-1.3597,-1.3597,-1.3597,-1.3597,-1.3597,-1.3597,-1.3597,-1.3597,-1.3597,-1.3597,-1.3597,-1.3597,-1.3597,-1.3597,-1.3597,-1.3597,-1.3597,-1.3597,-1.3597,-1.3597,-1.3467,-1.3064,-1.2769,-1.2421,-1.1952,-1.2249,-1.2353,-1.1951,-1.1607,-1.136,-1.1194,-1.0883,-1.0672,-1.0592,-1.1282,-1.1634,-1.1531,-1.2212,-1.2578,-1.2541,-1.3956,-1.4713,-1.4733,-1.5914,-1.6659,-1.6972,-1.7052,-1.7393,-1.5131,-1.5108,-1.5108,-1.5108,-1.5108,-1.5108,-1.5108,0.0,0.0,0.0,0.0,-1.6324,-1.7055,0.0,0.0,0.0,0.0,0.0,0.0,0.0,0.0,0.0,0.0,0.0,0.0,0.0,0.0,0.0,0.0,0.0,-1.59,-1.5395,-1.5108,-1.5108,-1.5108,-1.5108,-1.5108,-1.5108,-1.5108,-1.5108,-1.5108,-1.5108,-1.5108,-1.5108,-1.5108,-1.5108,-1.5108,0.0,-1.5108,-1.5108,-1.5108,-1.5108,-1.5108,-1.5017,-1.488,-1.488,-1.4834,-1.473,-1.4763,-1.4591,-1.4437,-1.472,-1.4257,-1.3645,-1.3877,-1.3786,-1.3654,-1.3899,-1.3783,-1.3597,-1.3597,-1.3597,-1.3597,-1.3597,-1.3597,-1.3597,-1.3597,-1.3597,-1.3597,-1.3597,-1.3597,-1.3597,-1.3597,-1.3597,-1.3467,-1.3064,-1.2856,-1.255,-1.1977,-1.2076,-1.1944,-1.1345,-1.1243,-1.119,-1.1189,-1.0927,-1.0844,-1.105,-1.1602,-1.1863,-1.1723,-1.2258,-1.2701,-1.3025,-1.368,-1.4355,-1.5013,-1.5777,-1.6281,-1.6595,-1.6812,-1.7157,-1.5187,-1.5131,-1.5131,-1.5108,-1.5108,-1.5108,-1.5131,-1.5568,0.0,0.0,0.0,-1.6302,-1.6761,0.0,0.0,0.0,0.0,0.0,0.0,0.0,0.0,0.0,0.0,0.0,0.0,0.0,0.0,0.0,0.0,0.0,-1.5716,-1.5337,-1.5108,-1.5108,-1.5108,-1.5108,-1.5108,-1.5108,-1.5108,-1.5108,-1.5108,-1.5108,-1.5108,-1.5108,-1.5108,-1.5108,-1.5108,0.0,0.0,-1.5108,-1.5108,-1.5108,-1.5108,-1.4971,-1.48,-1.48,-1.4775,-1.4756,-1.5095,-1.5015,-1.4906,-1.5538,-1.487,-1.3932,-1.4399,-1.4176,-1.3826,-1.4204,-1.3948,-1.3597,-1.3597,-1.3597,-1.3597,-1.3597,-1.3597,-1.3597,-1.3597,-1.3597,-1.3597,-1.3597,-1.3597,-1.3597,-1.3597,-1.3597,-1.3491,-1.3194,-1.3064,-1.2798,-1.2206,-1.1993,-1.1661,-1.1019,-1.1122,-1.1208,-1.1228,-1.1236,-1.1375,-1.1691,-1.2094,-1.2234,-1.2061,-1.2359,-1.2784,-1.3365,-1.3405,-1.4026,-1.5254,-1.5567,-1.5866,-1.6222,-1.6556,-1.682,-1.5357,-1.5289,-1.5255,-1.5131,-1.5108,-1.5131,-1.5255,0.0,0.0,0.0,-1.5995,-1.6338,-1.6291,-1.6232,0.0,0.0,0.0,0.0,0.0,0.0,0.0,0.0,0.0,0.0,0.0,0.0,0.0,0.0,0.0,0.0,0.0,-1.5142,-1.5108,-1.5108,-1.5108,-1.5108,-1.5108,-1.5108,-1.5108,-1.5108,-1.5108,-1.5108,-1.5108,-1.5108,-1.5108,-1.5108,0.0,0.0,0.0,-1.5108,-1.5108,-1.5108,-1.5108,-1.5085,-1.5062,-1.5062,-1.5372,-1.5736,-1.5519,-1.574,-1.6012,-1.538,-1.4921,-1.4683,-1.5151,-1.4794,-1.4229,-1.4279,-1.3948,-1.3597,-1.3597,-1.3597,-1.3597,-1.3597,-1.3597,-1.3597,-1.3597,-1.3597,-1.3597,-1.3597,-1.3597,-1.3597,-1.3597,-1.3597,-1.3597,-1.3539,-1.3242,-1.2967,-1.2919,-1.2304,-1.1859,-1.1798,-1.1481,-1.1293,-1.1295,-1.1554,-1.1747,-1.179,-1.2104,-1.219,-1.1922,-1.2357,-1.2508,-1.2342,-1.3274,-1.41,-1.4766,-1.5231,-1.569,-1.62,-1.611,-1.6262,-1.5357,-1.5233,-1.5165,-1.5108,-1.5165,-1.5233,-1.5289,0.0,-1.5773,-1.5662,-1.5803,-1.5968,-1.5968,-1.5968,-1.629,0.0,-1.7388,-1.7606,0.0,0.0,0.0,0.0,0.0,0.0,0.0,0.0,0.0,0.0,0.0,0.0,0.0,-1.5866,-1.5865,-1.559,-1.559,-1.5441,-1.5108,-1.5108,-1.5108,-1.5108,-1.5108,-1.5108,-1.5108,-1.5108,-1.5108,-1.5108,0.0,0.0,0.0,-1.5108,-1.5108,-1.5108,-1.5108,-1.5108,-1.5142,-1.5475,-1.5728,-1.5968,-1.6466,-1.6578,-1.6514,-1.6815,-1.6497,-1.5989,-1.5717,-1.5138,-1.4594,-1.4887,-1.4303,-1.3597,-1.3597,-1.3597,-1.3597,-1.3597,-1.3597,-1.3597,-1.3597,-1.3597,-1.3597,-1.3597,-1.3597,-1.3597,-1.3597,-1.3597,-1.3597,-1.3597,-1.3467,-1.3266,-1.304,-1.2749,-1.2476,-1.2274,-1.1896,-1.1746,-1.1998,-1.2135,-1.232,-1.251,-1.2649,-1.2649,-1.245,-1.3086,-1.3222,-1.2746,-1.3729,-1.4387,-1.4698,-1.5254,-1.5746,-1.62,-1.6144,-1.6275,-1.5447,-1.5323,-1.5256,-1.5372,-1.5348,-1.5358,0.0,0.0,-1.5592,-1.5703,-1.5738,-1.5738,-1.5792,-1.5792,-1.6069,-1.6884,-1.7109,-1.7509,-1.8377,0.0,0.0,0.0,0.0,0.0,0.0,0.0,0.0,0.0,0.0,0.0,0.0,-1.6869,-1.674,-1.5934,-1.5751,-1.5487,-1.5085,-1.5108,-1.5108,-1.5108,-1.5108,-1.5108,-1.5108,-1.5108,-1.5153,-1.5244,0.0,0.0,0.0,-1.5311,-1.5334,-1.5424,-1.5424,-1.5356,-1.5302,-1.5858,-1.6076,-1.6257,-1.7236,-1.7424,-1.7368,-1.8031,-1.7893,-1.7342,-1.6669,-1.5786,-1.5096,-1.5341,-1.4538,-1.3597,-1.3597,-1.3597,-1.3597,-1.3597,-1.3597,-1.3597,-1.3597,-1.3597,-1.3597,-1.3597,-1.3597,-1.3597,-1.3597,-1.3597,-1.3597,-1.3597,-1.3597,-1.3491,-1.3208,-1.3064,-1.2905,-1.2681,-1.2387,-1.2338,-1.2632,-1.29,-1.3094,-1.317,-1.3338,-1.3362,-1.3204,-1.3766,-1.3918,-1.3583,-1.4222,-1.4686,-1.4971,-1.5344,-1.579,-1.6253,-1.6222,-1.6392,-1.5703,-1.5592,-1.5586,-1.5975,-1.5684,-1.5463,0.0,-1.5948,-1.5715,-1.5792,-1.5792,-1.5792,-1.5792,-1.5792,-1.5994,-1.6523,-1.6943,-1.7584,-1.8655,0.0,0.0,0.0,0.0,0.0,0.0,0.0,0.0,0.0,0.0,0.0,0.0,-1.8077,-1.7607,-1.5957,-1.5395,-1.5119,-1.5108,-1.5108,-1.5108,-1.5108,-1.5108,-1.5108,-1.5108,-1.5108,-1.5289,0.0,0.0,0.0,0.0,-1.5746,-1.5824,-1.62,-1.62,-1.5947,-1.565,-1.6195,-1.649,-1.6742,-1.7672,-1.8334,-1.877,-1.863,-1.8683,-1.8691,-1.8144,-1.6965,-1.5742,-1.5459,-1.4538,-1.3597,-1.3597,-1.3597,-1.3597,-1.3597,-1.3597,-1.3597,-1.3597,-1.3597,-1.3597,-1.3597,-1.3597,-1.3597,-1.3597,-1.3597,-1.3597,-1.3597,-1.3597,-1.3597,-1.3586,-1.3242,-1.2991,-1.2991,-1.2991,-1.2991,-1.2991,-1.3847,-1.4163,-1.3634,-1.4093,-1.4326,-1.4199,-1.4199,-1.4351,-1.4686,-1.4686,-1.4983,-1.5588,-1.5466,-1.5756,-1.6392,-1.6253,-1.6595,-1.5888,-1.5864,-1.5997,-1.5751,-1.5632,-1.5617,-1.5805,-1.6056,-1.6154,-1.5859,-1.6044,-1.6175,-1.5859,-1.6044,-1.6581,-1.7543,-1.8077,0.0,0.0,0.0,0.0,0.0,0.0,0.0,0.0,0.0,0.0,0.0,0.0,0.0,0.0,-1.7897,-1.7664,-1.6947,-1.6392,-1.6065,-1.5986,-1.561,-1.5434,-1.5434,-1.5434,-1.5434,-1.5434,-1.5434,0.0,0.0,0.0,0.0,0.0,-1.6057,-1.6078,-1.62,-1.62,-1.6122,-1.6073,-1.6561,-1.7037,-1.7508,-1.8126,-1.871,-1.9212,-1.916,-1.9169,-1.9174,-1.9004,-1.7859,-1.6491,-1.5902,-1.4969,-1.4215,-1.4548,-1.4484,-1.4281,-1.3962,-1.3999,-1.4046,-1.3692,-1.3597,-1.3597,-1.3597,-1.3597,-1.3597,-1.3597,-1.3597,-1.3597,-1.3597,-1.3597,-1.3597,-1.3597,-1.38,-1.3823,-1.3443,-1.3752,-1.3695,-1.3064,-1.386,-1.4337,-1.4163,-1.4605,-1.4857,-1.4834,-1.5051,-1.5062,-1.4835,-1.5434,-1.569,-1.561,-1.5932,-1.6185,-1.6392,-1.6253,-1.665,0.0,-1.6044,-1.6043,-1.5889,-1.5879,-1.5983,-1.6189,-1.6508,-1.668,-1.6392,-1.6565,-1.6659,-1.6392,-1.675,-1.7335,-1.806,-1.8776,0.0,0.0,0.0,0.0,0.0,0.0,0.0,0.0,0.0,0.0,0.0,0.0,0.0,0.0,0.0,-1.8482,-1.847,-1.7333,-1.6752,-1.68,-1.6218,-1.5931,-1.5943,-1.5708,-1.5591,-1.5591,-1.5591,0.0,0.0,0.0,0.0,0.0,-1.6436,-1.6457,-1.6577,-1.6577,-1.6616,-1.6744,-1.7256,-1.7708,-1.8191,-1.8846,-1.9306,-1.9668,-1.9823,-1.9772,-1.9617,-1.9447,-1.8522,-1.7344,-1.6688,-1.5835,-1.5185,-1.5477,-1.5254,-1.4892,-1.4593,-1.464,-1.4663,-1.4305,-1.4199,-1.4176,-1.4176,-1.4176,-1.4176,-1.4176,-1.4176,-1.4176,-1.4176,-1.4176,-1.4176,-1.4176,-1.4466,-1.4535,-1.4199,-1.4466,-1.4432,-1.3849,-1.4328,-1.4651,-1.4651,-1.5096,-1.5355,-1.5355,-1.5557,-1.5623,-1.5512,-1.6044,-1.6185,-1.593,-1.6259,-1.6436,-1.6436,-1.6522,-1.6947,0.0,-1.6234,-1.596,-1.6369,-1.6408,-1.6492,-1.7003,-1.7178,0.0,-1.722,-1.722,-1.7253,-1.7251,-1.776,-1.8184,-1.8262,-1.9193,0.0,0.0,0.0,0.0,0.0,0.0,0.0,0.0,0.0,0.0,0.0,0.0,0.0,0.0,0.0,-1.985,-2.0207,-1.823,-1.7319,-1.7666,-1.6968,-1.6625,-1.6628,-1.6008,-1.5712,-1.569,-1.5712,0.0,0.0,0.0,0.0,0.0,-1.6892,-1.6934,-1.722,-1.722,-1.7321,-1.754,-1.8025,-1.8405,-1.8759,-1.9623,-1.9978,-2.0131,-2.0574,-2.041,-1.9978,-1.9617,-1.895,-1.8223,-1.7751,-1.7003,-1.6361,-1.6408,-1.5936,-1.5478,-1.5433,-1.5389,-1.5355,-1.5311,-1.521,-1.5108,-1.5108,-1.5108,-1.5108,-1.5108,-1.5108,-1.5108,-1.5108,-1.5108,-1.5108,-1.5108,-1.5131,-1.5131,-1.5108,-1.5131,-1.5153,-1.5153,-1.5153,-1.5153,-1.5153,-1.5601,-1.5854,-1.5854,-1.5854,-1.6064,-1.65,-1.6543,-1.6552,-1.6552,-1.6573,-1.6595,-1.6595,-1.7052,-1.7434,-1.7584,0.0,-1.7383,-1.7076,-1.6995,-1.7015,0.0,-1.7423,-1.7578,-1.7261,0.0,-1.7711,-1.786,-1.8294,-1.8941,-1.9863,-2.0553,0.0,0.0,0.0,0.0,0.0,0.0,0.0,0.0,0.0,0.0,0.0,0.0,0.0,0.0,0.0,-2.0409,-2.0497,-1.9967,-1.9548,-1.9333,-1.8379,-1.7883,-1.7869,-1.7209,-1.6811,-1.6676,-1.6833,0.0,0.0,0.0,0.0,-1.7706,-1.7427,-1.7352,-1.7413,-1.7261,-1.7235,-1.7281,-1.7424,-1.8031,-1.8864,-1.9087,-1.977,-2.0536,-2.0649,-2.0624,-2.0524,-2.0423,-1.9522,-1.8583,-1.8864,-1.7922,-1.6933,-1.7349,-1.6843,-1.6151,-1.5788,-1.5798,-1.5808,-1.5456,-1.5311,-1.5243,-1.5243,-1.5164,-1.5108,-1.5108,-1.5108,-1.5108,-1.5108,-1.5108,-1.5108,-1.5108,-1.54,-1.549,-1.5131,-1.5423,-1.5645,-1.5645,-1.5645,-1.5645,-1.5645,-1.6086,-1.6337,-1.6337,-1.6337,-1.638,-1.65,-1.6863,-1.706,-1.7118,-1.738,-1.7482,-1.7503,-1.7618,-1.802,-1.8046,-1.788,-1.7556,-1.7277,-1.7344,-1.7475,-1.7475,-1.7801,0.0,0.0,0.0,-1.8234,-1.8628,-1.9165,0.0,0.0,0.0,0.0,0.0,0.0,0.0,0.0,0.0,0.0,0.0,0.0,0.0,0.0,0.0,0.0,0.0,0.0,-2.108,-2.1323,-2.105,-2.0755,-2.0404,-1.9526,-1.8948,-1.8671,-1.8054,-1.7534,-1.7139,-1.756,0.0,0.0,0.0,0.0,-1.8282,-1.7855,-1.7672,-1.7672,-1.755,-1.7779,-1.8143,-1.7845,-1.8424,-1.9316,-1.9316,-1.9928,-2.0699,-2.0699,-2.0699,-2.0699,-2.0699,-2.0165,-1.9623,-1.9915,-1.9167,-1.8304,-1.8295,-1.7778,-1.7097,-1.6559,-1.6484,-1.6441,-1.6182,-1.6086,-1.602,-1.602,-1.5988,-1.5935,-1.5935,-1.5935,-1.5935,-1.5935,-1.5869,-1.5824,-1.5824,-1.601,-1.6054,-1.5846,-1.6225,-1.648,-1.648,-1.6693,-1.6621,-1.6151,-1.6358,-1.6607,-1.6808,-1.6808,-1.6934,-1.7173,-1.7626,-1.7846,-1.7892,-1.8246,-1.8454,-1.8454,-1.8631,-1.8956,-1.8189,-1.7819,-1.7267,-1.738,-1.7659,-1.7902,-1.7902,0.0,0.0,0.0,0.0,0.0,0.0,0.0,0.0,0.0,0.0,0.0,0.0,0.0,0.0,0.0,0.0,0.0,0.0,0.0,0.0,0.0,0.0,0.0,0.0,0.0,0.0,-2.2184,-2.1746,-2.141,-2.1188,-2.0516,-1.9905,-1.9284,-1.8727,-1.8137,-1.7595,-1.8198,-1.8623,0.0,0.0,0.0,-1.8713,-1.8167,-1.7997,-1.8079,-1.8058,-1.859,-1.9302,-1.8692,-1.9025,-1.9801,-1.9927,-2.0331,-2.079,-2.0797,-2.0799,-2.0799,-2.0724,-2.0699,-2.0724,-2.0799,-2.0342,-1.9706,-1.9252,-1.8736,-1.8218,-1.779,-1.7508,-1.7371,-1.7371,-1.7222,-1.7094,-1.7044,-1.7002,-1.696,-1.6897,-1.6897,-1.6897,-1.6897,-1.6803,-1.6718,-1.6718,-1.6684,-1.6693,-1.6812,-1.7173,-1.7435,-1.7435,-1.7794,-1.7652,-1.6795,-1.6723,-1.6892,-1.7289,-1.7323,-1.7557,-1.8028,-1.8493,-1.8717,-1.8735,-1.9185,-1.9403,-1.9403,-1.974,-1.9949,-1.7576,-1.7651,-1.7668,-1.8163,-1.8361,-1.8386,-1.8386,0.0,0.0,0.0,0.0,0.0,0.0,0.0,0.0,0.0,0.0,0.0,0.0,0.0,0.0,0.0,0.0,0.0,0.0,0.0,0.0,0.0,0.0,0.0,0.0,0.0,0.0,-2.2208,-2.2114,-2.2067,-2.2006,-2.1414,-2.0812,-2.0199,-1.9538,-1.9086,-1.8824,-1.9107,-1.9183,0.0,0.0,-1.9014,-1.854,-1.825,-1.8466,-1.89,-1.8733,-1.907,-1.9556,-1.896,-1.9119,-1.9732,-2.0489,-2.0937,-2.1226,-2.1271,-2.1302,-2.1229,-2.0823,-2.0699,-2.0799,-2.1326,-2.0668,-1.9869,-2.0184,-1.9863,-1.9527,-1.9836,-1.9447,-1.903,-1.903,-1.8526,-1.7968,-1.7639,-1.7496,-1.7303,-1.696,-1.6897,-1.6897,-1.6897,-1.6876,-1.6854,-1.6854,-1.7157,-1.7352,-1.7372,-1.774,-1.7987,-1.7987,-1.8046,-1.8027,-1.7867,-1.7693,-1.7686,-1.7868,-1.7868,-1.7988,-1.8246,-1.8864,-1.9255,-1.9365,-1.9989,-2.0297,-2.0297,-2.0365,-2.0667,-1.7829,-1.7857,-1.7745,-1.8343,-1.8498,-1.8498,-1.8498,-1.8498,0.0,0.0,0.0,0.0,0.0,0.0,0.0,0.0,0.0,0.0,0.0,0.0,0.0,0.0,0.0,0.0,0.0,0.0,0.0,0.0,0.0,0.0,0.0,0.0,0.0,0.0,-2.2208,-2.2208,-2.2208,-2.1912,-2.1476,-2.0886,-2.0245,-1.9887,-1.9789,-1.9523,-1.9544,-1.9789,0.0,-1.9256,-1.8941,-1.8526,-1.8723,-1.9245,-1.9163,-1.9623,-2.0278,-1.9704,-1.9543,-1.9719,-2.0477,-2.1022,-2.147,-2.1876,-2.1978,-2.1955,-2.1756,-2.167,-2.1732,-2.2016,-2.1397,-2.0721,-2.096,-2.0796,-2.0526,-2.0429,-2.0161,-1.9943,-1.9943,-1.9402,-1.8833,-1.8651,-1.8322,-1.7968,-1.7787,-1.776,-1.776,-1.776,-1.77,-1.7659,-1.7659,-1.7754,-1.7854,-1.7928,-1.8297,-1.8535,-1.8535,-1.876,-1.8679,-1.8145,-1.8252,-1.8447,-1.8688,-1.8987,-1.9266,-1.9543,-2.0091,-2.0399,-2.0465,-2.1007,-2.1321,-2.1472,-2.1517,-2.1736,-1.7969,-1.7857,-1.7599,-1.8373,0.0,-1.8498,-1.8498,-1.861,0.0,0.0,0.0,0.0,0.0,0.0,0.0,0.0,0.0,0.0,0.0,0.0,0.0,0.0,0.0,0.0,0.0,0.0,0.0,0.0,0.0,0.0,0.0,0.0,0.0,0.0,-2.2208,-2.2208,-2.2208,-2.2208,-2.1898,-2.1279,-2.0829,-2.0597,-2.0583,-2.0091,-2.0063,-2.0372,-1.9859,-1.9466,-1.9157,-1.8694,-1.8863,-1.939,-1.939,-1.988,-2.0515,-2.018,-1.9828,-1.9688,-2.0546,-2.1201,-2.1765,-2.2435,-2.2657,-2.2634,-2.2535,-2.2512,-2.2535,-2.2672,-2.2282,-2.1834,-2.189,-2.1828,-2.1655,-2.1312,-2.1118,-2.1003,-2.1003,-2.0473,-1.9932,-1.9845,-1.9441,-1.9013,-1.8759,-1.8706,-1.8669,-1.8528,-1.8403,-1.8344,-1.8344,-1.835,-1.8375,-1.8481,-1.885,-1.9118,-1.921,-1.953,-1.9442,-1.8774,-1.8949,-1.921,-1.9582,-2.0,-2.0344,-2.063,-2.1087,-2.1293,-2.1293,-2.1764,-2.211,-2.23,-2.2418,-2.2652,-1.7323,-1.7269,-1.7143,-1.8394,-1.8595,0.0,-1.8498,-1.8933,0.0,-1.9376,0.0,0.0,0.0,0.0,0.0,0.0,0.0,0.0,0.0,0.0,0.0,0.0,0.0,0.0,0.0,0.0,0.0,0.0,0.0,0.0,0.0,0.0,0.0,0.0,0.0,-2.2208,-2.2208,-2.2208,-2.1898,-2.1316,-2.1274,-2.1245,-2.1223,-2.1181,-2.0886,-2.04,-2.0344,-1.9669,-1.8554,-1.8512,-1.8863,-1.939,-1.939,-1.9446,-1.9536,-1.98,-1.9701,-1.9645,-2.1103,-2.1803,-2.2182,-2.2904,-2.315,-2.3061,-2.2634,-2.2512,-2.2626,-2.3187,-2.3194,-2.3069,-2.3069,-2.3054,-2.3186,-2.364,-2.3277,-2.2803,-2.2803,-2.2194,-2.1516,-2.1131,-2.0994,-2.0587,-1.9518,-1.9339,-1.9156,-1.8584,-1.8481,-1.8481,-1.8481,-1.8803,-1.903,-1.9045,-1.9402,-1.9782,-2.0087,-2.0139,-2.0292,-2.0596,-2.0124,-2.0022,-2.0481,-2.0531,-2.063,-2.0778,-2.1119,-2.1293,-2.1293,-2.195,-2.2289,-2.23,-2.2617,-2.301,-1.7987,-1.7929,-1.7694,-1.8546,-1.8976,0.0,0.0,-1.9095,-1.9619,-1.995,-2.0695,0.0,0.0,0.0,0.0,0.0,0.0,0.0,0.0,0.0,0.0,0.0,0.0,0.0,0.0,0.0,0.0,0.0,0.0,0.0,0.0,0.0,0.0,0.0,0.0,-2.237,-2.2208,-2.2278,-2.2188,-2.1842,-2.1111,-2.0745,-2.0695,-1.9922,-1.9641,-1.9761,-1.9368,-1.8947,-1.8498,-1.8498,-1.8863,-1.9432,-1.9859,-2.0244,-2.0605,-2.0726,-2.0956,-2.1356,-2.2345,-2.2764,-2.2957,-2.3669,-2.3873,-2.3852,-2.3666,-2.3616,-2.3681,-2.3909,-2.3915,-2.3873,-2.3824,-2.376,-2.3739,-2.3961,-2.3821,-2.3707,-2.3943,-2.3443,-2.2871,-2.2723,-2.2343,-2.1744,-2.0858,-2.0715,-2.0548,-2.0115,-2.0043,-2.0041,-2.0004,-2.0124,-2.0191,-2.0154,-2.0291,-2.0446,-2.0614,-2.0647,-2.0796,-2.1214,-2.0747,-2.063,-2.1023,-2.1087,-2.1307,-2.1715,-2.1907,-2.2062,-2.2227,-2.2538,-2.2843,-2.3159,-2.3338,-2.3676,-1.8555,-1.8526,-1.8434,0.0,0.0,0.0,-1.9407,-1.9654,-2.0054,-2.0648,0.0,0.0,0.0,0.0,0.0,0.0,0.0,0.0,0.0,0.0,0.0,0.0,0.0,0.0,0.0,0.0,0.0,0.0,0.0,0.0,0.0,0.0,0.0,0.0,0.0,0.0,-2.2324,-2.2417,-2.2317,-2.2004,-2.0929,-2.0527,-2.0639,-1.9585,-1.9326,-1.9677,-1.9099,-1.8852,-1.8844,-1.8787,-1.9189,-1.9844,-2.0247,-2.0787,-2.134,-2.1441,-2.1773,-2.2283,-2.3051,-2.3326,-2.3489,-2.4107,-2.4405,-2.4487,-2.4343,-2.4343,-2.4385,-2.4317,-2.4302,-2.4297,-2.4234,-2.4151,-2.4073,-2.4073,-2.4198,-2.4369,-2.4643,-2.4406,-2.4172,-2.4172,-2.3759,-2.3188,-2.2476,-2.235,-2.2202,-2.1759,-2.168,-2.1599,-2.131,-2.1277,-2.1181,-2.0893,-2.086,-2.091,-2.1087,-2.1087,-2.1245,-2.1628,-2.137,-2.1276,-2.1509,-2.166,-2.1907,-2.2313,-2.2462,-2.263,-2.2835,-2.2984,-2.3287,-2.3707,-2.3885,-2.4192,-1.8803,-1.8898,0.0,0.0,0.0,0.0,-2.0633,-2.0698,-2.072,-2.1454,0.0,0.0,0.0,0.0,0.0,0.0,0.0,0.0,0.0,0.0,0.0,0.0,0.0,0.0,0.0,0.0,0.0,0.0,0.0,0.0,0.0,0.0,0.0,0.0,0.0,0.0,-2.2615,-2.2615,-2.2263,-2.159,-2.0855,-2.0775,-2.1274,-2.0653,-2.0386,-2.0358,-1.9836,-1.9594,-1.9591,-1.9461,-1.9916,-2.0696,-2.0476,-2.0818,-2.1455,-2.1803,-2.1916,-2.2046,-2.2992,-2.3455,-2.3686,-2.4148,-2.4625,-2.4906,-2.4446,-2.4446,-2.4569,-2.4364,-2.4302,-2.4302,-2.4302,-2.4302,-2.4302,-2.4302,-2.4599,-2.4902,-2.4902,-2.5176,-2.5406,-2.5406,-2.5294,-2.4997,-2.4328,-2.42,-2.3993,-2.3306,-2.3209,-2.2952,-2.2212,-2.2098,-2.1809,-2.1087,-2.1007,-2.115,-2.1477,-2.1507,-2.166,-2.1982,-2.2013,-2.2013,-2.1996,-2.2261,-2.2409,-2.2409,-2.2669,-2.2848,-2.291,-2.3253,-2.3512,-2.3723,-2.4126,-2.4474,-1.8487,0.0,0.0,0.0,0.0,0.0,0.0,-2.1104,0.0,0.0,0.0,0.0,0.0,0.0,0.0,0.0,0.0,0.0,0.0,0.0,0.0,0.0,0.0,0.0,0.0,0.0,0.0,0.0,0.0,0.0,0.0,0.0,0.0,0.0,0.0,0.0,-2.2615,-2.2698,-2.2359,-2.159,-2.0955,-2.045,-2.009,-1.9817,-1.9705,-1.9691,-1.9515,-1.9512,-1.962,-1.9963,-2.0703,-2.1595,-2.1557,-2.2067,-2.2893,-2.2987,-2.3468,-2.4112,-2.441,-2.4532,-2.4619,-2.4764,-2.4886,-2.4966,-2.4846,-2.4846,-2.4866,-2.4806,-2.4786,-2.4786,-2.4786,-2.4855,-2.4899,-2.4759,-2.4803,-2.5059,-2.5615,-2.5817,-2.589,-2.589,-2.5854,-2.5606,-2.49,-2.4752,-2.4626,-2.418,-2.4112,-2.383,-2.3051,-2.2409,-2.195,-2.1735,-2.1876,-2.2062,-2.2251,-2.2462,-2.2617,-2.2773,-2.2815,-2.2669,-2.2303,-2.2456,-2.2717,-2.3093,-2.3224,-2.3414,-2.3671,-2.3929,-2.4146,-2.4339,-2.4609,-2.4855,-1.9348,0.0,0.0,0.0,0.0,0.0,0.0,0.0,0.0,0.0,0.0,0.0,0.0,0.0,0.0,0.0,0.0,0.0,0.0,0.0,0.0,0.0,0.0,0.0,0.0,0.0,0.0,0.0,0.0,0.0,0.0,0.0,0.0,0.0,0.0,0.0,-2.2729,-2.2803,-2.2602,-2.2109,-2.1212,-2.0668,-2.0442,-1.9841,-1.9553,-1.9533,-1.9814,-2.0071,-2.0289,-2.0816,-2.1648,-2.2609,-2.2705,-2.3293,-2.4108,-2.4108,-2.4489,-2.5005,-2.5005,-2.5045,-2.5119,-2.5041,-2.5119,-2.5236,-2.5185,-2.5143,-2.5143,-2.5285,-2.5246,-2.5169,-2.5288,-2.5387,-2.537,-2.5079,-2.5214,-2.5503,-2.6015,-2.6228,-2.6333,-2.6333,-2.6333,-2.6199,-2.5747,-2.5681,-2.5615,-2.5406,-2.5134,-2.4747,-2.4278,-2.3268,-2.2741,-2.3144,-2.3113,-2.3265,-2.371,-2.3927,-2.3912,-2.3635,-2.3642,-2.3453,-2.2898,-2.294,-2.3153,-2.3459,-2.361,-2.385,-2.4154,-2.4284,-2.4483,-2.4766,-2.4883,-2.5043,-2.0683,0.0,0.0,0.0,0.0,0.0,0.0,0.0,0.0,0.0,0.0,0.0,0.0,0.0,0.0,0.0,0.0,0.0,0.0,0.0,0.0,0.0,0.0,0.0,0.0,0.0,0.0,0.0,0.0,0.0,0.0,0.0,0.0,0.0,0.0,0.0,-2.2888,-2.2888,-2.2859,0.0,-2.1578,-2.1247,-2.1686,-2.0452,-1.989,-1.9912,-2.0629,-2.1124,-2.1427,-2.1953,-2.279,-2.3725,-2.397,-2.4458,-2.5045,-2.5045,-2.5045,-2.5045,-2.5045,-2.5162,-2.5294,-2.5103,-2.5294,-2.5581,-2.5478,-2.54,-2.5416,-2.5762,-2.5689,-2.5556,-2.5783,-2.5873,-2.5783,-2.5424,-2.5726,-2.6139,-2.6175,-2.647,-2.6725,-2.6725,-2.6725,-2.6725,-2.6725,-2.6725,-2.6725,-2.6725,-2.6099,-2.5625,-2.5625,-2.4464,-2.401,-2.4928,-2.4565,-2.4625,-2.5459,-2.5628,-2.5376,-2.4633,-2.4604,-2.4379,-2.3894,-2.37,-2.3628,-2.366,-2.3896,-2.4154,-2.4407,-2.4424,-2.4625,-2.5006,-2.5019,-2.5128,0.0,-2.0335,0.0,0.0,0.0,0.0,0.0,0.0,0.0,0.0,0.0,0.0,0.0,0.0,0.0,0.0,0.0,0.0,0.0,0.0,0.0,0.0,0.0,0.0,0.0,0.0,0.0,0.0,0.0,0.0,0.0,0.0,0.0,0.0,0.0,-2.2888,-2.2888,-2.2888,-2.2664,0.0,-2.1895,-2.1562,-2.1164,-2.0717,-2.0755,-2.1226,-2.1861,-2.2384,-2.2816,-2.3361,-2.4195,-2.515,-2.5207,-2.5338,-2.5467,-2.5467,-2.5467,-2.5467,-2.5467,-2.5486,-2.554,-2.5502,-2.554,-2.5619,-2.5809,-2.5864,-2.5901,-2.6191,-2.6227,-2.6191,-2.6262,-2.6384,-2.6487,-2.6401,-2.6349,-2.6418,-2.6742,-2.6875,-2.6942,-2.6942,-2.6942,-2.6942,-2.6942,-2.6942,-2.6942,-2.6942,-2.631,-2.5848,-2.5848,-2.5235,-2.4917,-2.5129,-2.5414,-2.5667,-2.5883,-2.6156,-2.6204,-2.5978,-2.6122,-2.6124,-2.597,-2.4447,-2.3753,-2.4056,-2.4141,-2.4257,-2.4481,-2.4636,-2.4809,-2.4998,-2.5168,-2.5287,0.0,0.0,0.0,0.0,0.0,0.0,0.0,0.0,0.0,0.0,0.0,0.0,0.0,0.0,0.0,0.0,0.0,0.0,0.0,0.0,0.0,0.0,0.0,0.0,0.0,0.0,0.0,0.0,0.0,0.0,0.0,0.0,0.0,0.0,-2.2888,-2.2888,-2.2888,-2.2888,-2.2751,-2.2432,-2.2149,-2.1815,-2.1467,-2.1037,-2.1414,-2.2363,-2.2489,-2.292,-2.3593,-2.4181,-2.4757,-2.5282,-2.5505,-2.5597,-2.5597,-2.5597,-2.5597,-2.5597,-2.5597,-2.5597,-2.5597,-2.5597,-2.5597,-2.5637,-2.5917,-2.5917,-2.5917,-2.6453,-2.6504,-2.647,-2.6775,-2.6908,-2.699,-2.699,-2.6842,-2.6742,-2.6958,-2.6991,-2.6991,-2.6991,-2.6991,-2.6991,-2.6991,-2.6991,-2.6991,-2.6991,-2.6666,-2.6473,-2.6595,-2.6129,-2.6006,-2.6623,-2.6672,-2.6862,-2.7344,-2.7602,-2.7574,-2.7138,-2.7256,-2.7124,-2.6706,-2.5688,-2.5228,-2.5444,-2.5435,-2.5338,-2.5128,-2.5318,-2.5296,-2.5052,-2.5259,-2.5365,0.0,0.0,0.0,0.0,0.0,0.0,0.0,0.0,0.0,0.0,0.0,0.0,0.0,0.0,0.0,0.0,0.0,0.0,0.0,0.0,0.0,0.0,0.0,0.0,0.0,0.0,0.0,0.0,0.0,0.0,0.0,0.0,-2.2486,-2.2888,-2.2888,-2.2888,-2.2888,-2.2888,-2.2888,-2.2888,-2.2388,-2.2164,-2.2149,-2.1583,-2.2037,-2.3249,-2.3005,-2.3329,-2.4128,-2.4775,-2.5017,-2.5056,-2.5451,-2.5597,-2.5597,-2.56,-2.5619,-2.5619,-2.5637,-2.5637,-2.5637,-2.5637,-2.5637,-2.5694,-2.5972,-2.5936,-2.5954,-2.6674,-2.6741,-2.6741,-2.7249,-2.7376,-2.7376,-2.7376,-2.7249,-2.7121,-2.7056,-2.704,-2.704,-2.704,-2.704,-2.704,-2.704,-2.704,-2.704,-2.704,-2.704,-2.7152,-2.7426,-2.7029,-2.7154,-2.8252,-2.7961,-2.8037,-2.8879,-2.9055,-2.8835,-2.8161,-2.8189,-2.7925,-2.7259,-2.7233,-2.7253,-2.7273,-2.6965,-2.6544,-2.6022,-2.608,-2.5836,-2.5321,-2.539,-2.5391,0.0,0.0,0.0,0.0,0.0,0.0,0.0,0.0,0.0,0.0,0.0,0.0,0.0,0.0,0.0,0.0,0.0,0.0,0.0,0.0,0.0,0.0,0.0,0.0,0.0,0.0,0.0,0.0,0.0,0.0,0.0,-2.2797,-2.2843,-2.2888,-2.2888,-2.2888,-2.2888,-2.2888,-2.2888,-2.2888,-2.2815,-2.2772,-2.2772,-2.2685,-2.2966,-2.3567,-2.392,-2.4353,-2.4796,-2.5307,-2.5505,-2.5505,-2.5578,-2.5597,-2.5616,-2.5661,-2.5682,-2.5701,-2.5807,-2.586,-2.586,-2.586,-2.586,-2.5899,-2.6171,-2.6435,-2.6725,-2.7053,-2.7321,-2.7535,-2.7627,-2.7642,-2.7642,-2.7642,-2.7627,-2.7554,-2.7313,-2.7267,-2.7267,-2.7267,-2.7267,-2.7267,-2.7267,-2.7267,-2.7267,-2.7267,-2.7267,-2.7374,-2.7698,-2.7879,-2.8138,-2.8597,-2.8822,-2.9005,-2.9156,-2.9167,-2.9141,-2.903,-2.9103,-2.9069,-2.8976,-2.901,-2.9093,-2.9136,-2.7602,-2.6842,-2.6937,-2.6439,-2.6199,-2.6203,-2.5654,-2.54,-1.9188,0.0,0.0,0.0,0.0,0.0,0.0,0.0,0.0,0.0,0.0,0.0,0.0,0.0,0.0,0.0,0.0,0.0,0.0,0.0,0.0,0.0,0.0,0.0,0.0,0.0,0.0,0.0,0.0,0.0,-2.2888,-2.2888,-2.2888,-2.2888,-2.2888,-2.2888,-2.2888,-2.2888,-2.2888,-2.2888,-2.2888,-2.2888,-2.2888,-2.2888,-2.3297,-2.3994,-2.4219,-2.469,-2.5301,-2.5505,-2.5597,-2.5597,-2.564,-2.5659,-2.5677,-2.5772,-2.5809,-2.5809,-2.5881,-2.5897,-2.5897,-2.5897,-2.6026,-2.629,-2.6867,-2.6961,-2.7007,-2.7729,-2.7712,-2.7502,-2.7654,-2.7701,-2.7701,-2.7701,-2.7701,-2.7672,-2.7539,-2.7509,-2.7509,-2.7509,-2.7509,-2.7509,-2.7509,-2.7509,-2.7509,-2.7509,-2.7615,-2.7818,-2.8156,-2.8355,-2.8621,-2.8943,-2.9115,-2.92,-2.92,-2.924,-2.9251,-2.9251,-2.9323,-2.9388,-2.9454,-2.9531,-2.9617,-2.9724,-2.8821,-2.8231,-2.7943,-2.7783,-2.7536,-2.7184,-2.6959,-2.6593,0.0,0.0,0.0,0.0,0.0,0.0,0.0,0.0,0.0,0.0,0.0,0.0,0.0,0.0,0.0,0.0,0.0,0.0,0.0,0.0,0.0,0.0,0.0,0.0,0.0,0.0,0.0,0.0,0.0,0.0,-2.2888,-2.2888,-2.2888,-2.2888,-2.2888,-2.2888,-2.2888,-2.2888,-2.2888,-2.2888,-2.2888,-2.2888,-2.2888,-2.2888,-2.3429,-2.4328,-2.4302,-2.4791,-2.5597,-2.5597,-2.5597,-2.5616,-2.568,-2.5701,-2.5719,-2.5881,-2.5934,-2.5936,-2.6063,-2.6232,-2.6417,-2.6507,-2.6837,-2.7266,-2.7689,-2.7623,-2.7523,-2.8127,-2.7925,-2.7562,-2.7774,-2.7836,-2.7836,-2.7836,-2.7836,-2.7803,-2.7716,-2.7701,-2.7701,-2.7701,-2.7701,-2.773,-2.7757,-2.7771,-2.7786,-2.784,-2.7982,-2.8201,-2.8538,-2.8646,-2.8849,-2.9211,-2.9262,-2.9262,-2.9262,-2.9312,-2.9326,-2.9347,-2.9399,-2.9482,-2.9635,-2.9698,-2.9792,-2.995,-2.9823,-2.9498,-2.8965,-2.8943,-2.8648,-2.8099,-2.8048,-2.7679,0.0,0.0,0.0,0.0,0.0,0.0,0.0,0.0,0.0,0.0,0.0,0.0,0.0,0.0,0.0,0.0,0.0,0.0,0.0,0.0,0.0,0.0,0.0,0.0,0.0,0.0,0.0,0.0,0.0,0.0,-2.2888,-2.2888,-2.2888,-2.2888,-2.2888,-2.2888,-2.2888,-2.2888,-2.2888,-2.2888,-2.2888,-2.2888,-2.2888,-2.2888,-2.3443,-2.4405,-2.4328,-2.4791,-2.5597,-2.5597,-2.5597,-2.5616,-2.568,-2.5701,-2.5719,-2.5919,-2.5992,-2.6064,-2.6504,-2.7165,-2.7861,-2.8167,-2.8747,-2.923,-2.8574,-2.8559,-2.8649,-2.7932,-2.7943,-2.8154,-2.8168,-2.8168,-2.8168,-2.8168,-2.8168,-2.8081,-2.776,-2.7701,-2.7701,-2.7701,-2.7701,-2.7757,-2.794,-2.7982,-2.8051,-2.8246,-2.8272,-2.8402,-2.8742,-2.879,-2.8948,-2.9347,-2.9396,-2.9396,-2.9396,-2.9396,-2.9419,-2.9501,-2.9492,-2.958,-2.9784,-2.9792,-2.9899,-3.0095,-3.0137,-3.0084,-2.9935,-2.9296,-2.8973,-2.8921,-2.8365,-2.8074,0.0,0.0,0.0,0.0,0.0,0.0,0.0,0.0,0.0,0.0,0.0,0.0,0.0,0.0,0.0,0.0,0.0,0.0,0.0,0.0,0.0,0.0,0.0,0.0,0.0,0.0,0.0,0.0,0.0,0.0,-2.2888,-2.2888,-2.2888,-2.2888,-2.2888,-2.2888,-2.2888,-2.2888,-2.2888,-2.2888,-2.2888,-2.3068,-2.3348,-2.3348,-2.39,-2.4859,-2.4835,-2.5185,-2.5787,-2.5787,-2.5787,-2.5854,-2.6389,-2.6606,-2.6674,-2.7319,-2.754,-2.7597,-2.797,-2.83,-2.8541,-2.844,-2.9049,-2.9681,-2.8947,-2.8954,-2.9157,-2.8873,-2.8518,-2.8196,-2.8196,-2.8196,-2.8196,-2.8196,-2.8196,-2.8209,-2.8214,-2.8119,-2.8025,-2.8025,-2.8025,-2.8077,-2.8277,-2.8317,-2.8396,-2.8596,-2.8731,-2.8868,-2.8991,-2.9115,-2.9243,-2.9368,-2.9396,-2.9427,-2.9461,-2.9461,-2.9511,-2.9626,-2.9663,-2.9786,-2.9973,-3.0085,-3.019,-3.035,-3.0414,-3.0386,-3.026,-3.0067,-2.9983,-3.0018,-2.9806,-2.9423,0.0,0.0,0.0,0.0,0.0,0.0,0.0,0.0,0.0,0.0,0.0,0.0,0.0,0.0,0.0,0.0,0.0,0.0,0.0,0.0,0.0,0.0,0.0,0.0,0.0,0.0,0.0,0.0,0.0,0.0,-2.2888,-2.2888,-2.2888,-2.2888,-2.2888,-2.2888,-2.2888,-2.2888,-2.2978,-2.3142,-2.3164,-2.3421,-2.3879,-2.3921,-2.44,-2.5208,-2.5208,-2.5473,-2.5897,-2.5897,-2.6063,-2.6325,-2.6876,-2.7262,-2.7545,-2.8172,-2.8392,-2.845,-2.8779,-2.9151,-2.945,-2.9349,-2.9885,-3.0437,-2.966,-2.9423,-2.9351,-2.9084,-2.8802,-2.8534,-2.8267,-2.8196,-2.8196,-2.8223,-2.8286,-2.8447,-2.8848,-2.8599,-2.8313,-2.8393,-2.8406,-2.8471,-2.8675,-2.8694,-2.8767,-2.8968,-2.9112,-2.9207,-2.9207,-2.9334,-2.9396,-2.9396,-2.9419,-2.9441,-2.9492,-2.955,-2.9608,-2.9729,-2.9832,-2.9969,-3.0159,-3.0273,-3.0411,-3.0525,-3.0588,-3.0554,-3.0479,-3.0515,-3.0554,-3.0604,-3.0614,-3.0369,0.0,0.0,0.0,0.0,0.0,0.0,0.0,0.0,0.0,0.0,0.0,0.0,0.0,0.0,0.0,0.0,0.0,0.0,0.0,0.0,0.0,0.0,0.0,0.0,0.0,0.0,0.0,0.0,0.0,-2.2902,-2.2917,-2.2902,-2.2888,-2.2888,-2.2888,-2.2888,-2.2888,-2.2888,-2.3142,-2.3595,-2.3672,-2.3954,-2.443,-2.4563,-2.4922,-2.5422,-2.5422,-2.5624,-2.5948,-2.5948,-2.6358,-2.7033,-2.7125,-2.7608,-2.824,-2.8403,-2.8459,-2.8517,-2.8861,-2.9687,-3.0646,-3.0989,-3.1351,-3.151,-3.0674,-2.9961,-2.928,-2.8463,-2.8798,-2.9226,-2.841,-2.8213,-2.8259,-2.8336,-2.8523,-2.8899,-2.9696,-2.9197,-2.8654,-2.8785,-2.8822,-2.8863,-2.9067,-2.9126,-2.9193,-2.9376,-2.9425,-2.9425,-2.9407,-2.9407,-2.9407,-2.9407,-2.9461,-2.9502,-2.9502,-2.9636,-2.9729,-2.9799,-2.9924,-3.0106,-3.0286,-3.0371,-3.0479,-3.0598,-3.0598,-3.0602,-3.0602,-3.0598,-3.0598,-3.0607,-3.0661,-3.0733,-1.963,0.0,0.0,0.0,0.0,0.0,0.0,0.0,0.0,0.0,0.0,0.0,0.0,0.0,0.0,0.0,0.0,0.0,0.0,0.0,0.0,0.0,0.0,0.0,0.0,0.0,0.0,0.0,-2.3171,-2.3113,-2.3601,-2.3171,-2.2888,-2.2888,-2.2888,-2.2888,-2.2888,-2.2888,-2.3142,-2.3595,-2.3672,-2.4116,-2.4899,-2.4981,-2.5326,-2.583,-2.583,-2.6233,-2.691,-2.691,-2.7026,-2.7323,-2.8365,-2.8897,-2.9145,-2.9711,-2.993,-3.0032,-3.0685,-3.0743,-3.0543,-3.0635,-3.0739,-3.0582,-2.923,-2.9462,-3.0047,-2.935,-2.9293,-2.9307,-2.8542,-2.8784,-2.9265,-2.9473,-3.0012,-3.0625,-3.1196,-3.1124,-3.0699,-2.9844,-2.9199,-2.8863,-2.9067,-2.9568,-2.9873,-2.9516,-2.9975,-3.0173,-2.9673,-2.9626,-2.9626,-2.9626,-2.9626,-2.9655,-2.97,-2.9755,-2.9808,-2.9874,-3.0087,-3.024,-3.0305,-3.0466,-3.0554,-3.0604,-3.0608,-3.0625,-3.068,-3.0615,-3.0615,-3.0665,-3.073,-3.0773,0.0,0.0,0.0,0.0,0.0,0.0,0.0,0.0,0.0,0.0,0.0,0.0,0.0,0.0,0.0,0.0,0.0,0.0,0.0,0.0,0.0,0.0,0.0,0.0,0.0,0.0,0.0,0.0,-2.3963,-2.3766,-2.3891,-2.3258,-2.2925,-2.2992,-2.2992,-2.309,-2.3326,-2.3326,-2.3638,-2.4277,-2.4348,-2.4788,-2.5476,-2.557,-2.5954,-2.6526,-2.6526,-2.7011,-2.7779,-2.8061,-2.8194,-2.8257,-2.9085,-2.9579,-2.993,-3.0529,-3.074,-3.0791,-3.1095,-3.0992,-3.0698,-3.039,-3.0178,-2.994,-2.9412,-2.9383,-2.9544,-2.9546,-2.9304,-2.9179,-2.9741,-2.9562,-2.9362,-2.9874,-3.0245,-3.0761,-3.1707,-3.1692,-3.1298,-3.0535,-3.0257,-3.0117,-2.9896,-3.0511,-3.0948,-3.0636,-3.0974,-3.1144,-3.0762,-3.0687,-3.0716,-3.079,-3.0516,-3.0333,-3.0385,-3.0146,-3.0003,-2.9977,-3.0221,-3.0336,-3.0336,-3.051,-3.06,-3.0606,-3.0626,-3.0668,-3.0694,-3.0665,-3.0668,-3.0709,-3.0774,-3.0799,0.0,-2.204,0.0,0.0,0.0,0.0,0.0,-2.5038,0.0,0.0,0.0,0.0,0.0,0.0,0.0,0.0,0.0,0.0,0.0,0.0,0.0,0.0,0.0,0.0,0.0,0.0,-2.4791,-2.4878,-2.4878,-2.4602,-2.3958,-2.3258,-2.297,-2.3105,-2.3105,-2.3378,-2.39,-2.39,-2.4338,-2.5211,-2.5346,-2.561,-2.5992,-2.615,-2.6601,-2.7298,-2.7298,-2.7763,-2.8558,-2.9152,-2.9397,-2.9397,-2.954,-2.9991,-3.0613,-3.1024,-3.1094,-3.0983,-3.0675,-3.0698,-3.0739,-3.0122,-2.9635,-2.9419,-3.0188,-2.9444,-2.8518,-2.9363,-2.9098,-2.9049,-3.12,-3.0377,-2.9205,-3.0009,-3.0131,-3.0441,-3.1807,-3.1759,-3.1393,-3.1233,-3.1693,-3.1853,-3.1035,-3.1655,-3.2228,-3.2126,-3.2202,-3.2249,-3.2175,-3.2175,-3.2222,-3.2339,-3.1781,-3.1339,-3.124,-3.0741,-3.0349,-3.015,-3.0298,-3.0398,-3.0398,-3.0525,-3.0606,-3.0614,-3.0683,-3.0704,-3.0704,-3.0701,-3.07,-3.0704,-3.0773,-3.081,-2.2258,-2.27,-2.2931,0.0,0.0,0.0,0.0,-2.3351,0.0,0.0,0.0,0.0,0.0,0.0,0.0,0.0,0.0,0.0,0.0,0.0,0.0,0.0,0.0,0.0,0.0,0.0,-2.4131,-2.4762,-2.4824,-2.4549,-2.392,-2.3258,-2.297,-2.3105,-2.3105,-2.3378,-2.39,-2.39,-2.4338,-2.5211,-2.5346,-2.561,-2.5992,-2.615,-2.6601,-2.7298,-2.7298,-2.8028,-2.9218,-2.9367,-2.9397,-2.9486,-3.0392,-3.0867,-3.1024,-3.1433,-3.117,-3.0658,-3.0906,-3.0219,-2.9281,-2.9464,-2.9027,-2.8463,-2.8651,-2.8961,-2.9299,-2.9611,-2.9602,-2.9636,-3.0107,-3.0547,-3.0956,-3.1293,-3.2523,-3.3573,-3.3393,-3.3772,-3.3951,-3.3289,-3.2581,-3.1853,-3.1035,-3.2143,-3.2944,-3.2345,-3.2892,-3.3162,-3.2575,-3.2592,-3.2675,-3.2697,-3.2577,-3.2194,-3.1491,-3.1333,-3.0976,-3.0298,-3.0354,-3.0398,-3.0398,-3.0525,-3.0622,-3.068,-3.0758,-3.0786,-3.0786,-3.0725,-3.07,-3.0704,-3.0765,-3.0799,0.0,0.0,-2.2888,-2.2888,0.0,0.0,0.0,0.0,0.0,0.0,0.0,0.0,0.0,0.0,0.0,0.0,0.0,0.0,0.0,0.0,0.0,0.0,0.0,0.0,0.0,0.0,-2.5469,-2.5648,-2.518,-2.4776,-2.4456,-2.3593,-2.3157,-2.3305,-2.3305,-2.3653,-2.4384,-2.44,-2.4843,-2.5698,-2.5772,-2.5899,-2.6097,-2.6168,-2.68,-2.7845,-2.7845,-2.8658,-2.991,-2.9546,-2.9516,-2.9797,-3.0718,-3.0864,-3.0637,-3.1199,-3.0907,-3.0245,-3.0253,-2.9988,-2.9614,-2.9454,-2.9387,-2.944,-2.9933,-3.0535,-3.0884,-3.008,-2.999,-3.024,-3.0638,-3.0951,-3.1288,-3.1776,-3.2724,-3.3544,-3.3677,-3.4017,-3.4188,-3.3771,-3.3583,-3.3242,-3.2449,-3.3375,-3.4122,-3.375,-3.4158,-3.4353,-3.3999,-3.4002,-3.4067,-3.4147,-3.3763,-3.316,-3.2325,-3.1904,-3.1323,-3.0458,-3.0496,-3.0558,-3.0558,-3.0614,-3.0685,-3.0739,-3.0789,-3.0791,-3.081,-3.0761,-3.0753,-3.0759,-3.0781,-3.0798,0.0,0.0,0.0,0.0,0.0,-2.3055,0.0,0.0,0.0,0.0,0.0,0.0,0.0,0.0,0.0,0.0,0.0,0.0,0.0,0.0,0.0,0.0,0.0,0.0,0.0,0.0,-2.6888,-2.6401,-2.5634,-2.515,-2.5009,-2.4047,-2.3496,-2.3487,-2.3509,-2.3952,-2.4883,-2.4902,-2.5343,-2.6202,-2.6202,-2.6202,-2.6202,-2.6202,-2.6932,-2.8194,-2.8194,-2.8962,-3.0165,-2.955,-2.9532,-2.9942,-3.0556,-3.0562,-3.0302,-3.0974,-3.0837,-3.0286,-2.9974,-3.0151,-3.0451,-2.9858,-3.0098,-3.0794,-3.1621,-3.2133,-3.2102,-3.054,-3.0286,-3.0689,-3.1489,-3.1414,-3.1326,-3.2141,-3.2609,-3.3032,-3.3581,-3.3828,-3.3922,-3.3922,-3.4481,-3.4689,-3.3873,-3.4494,-3.5113,-3.5138,-3.5251,-3.5345,-3.5345,-3.5367,-3.5416,-3.5528,-3.4904,-3.4156,-3.3367,-3.2739,-3.2014,-3.1086,-3.1115,-3.1102,-3.0966,-3.0782,-3.0734,-3.0799,-3.0808,-3.0808,-3.0792,-3.08,-3.0791,-3.0799,-3.0796,-3.0804,0.0,0.0,0.0,0.0,-2.2888,0.0,0.0,0.0,0.0,0.0,0.0,0.0,0.0,0.0,0.0,0.0,0.0,0.0,0.0,0.0,0.0,0.0,0.0,0.0,0.0,0.0,0.0,-2.5904,-2.5871,-2.5643,-2.5024,-2.4487,-2.3977,-2.3502,-2.3509,-2.3952,-2.4883,-2.4902,-2.5343,-2.6202,-2.6202,-2.6202,-2.6202,-2.6202,-2.6651,-2.7415,-2.7415,-2.8067,-2.9084,-2.8999,-2.9168,-2.9471,-2.9627,-3.0214,-3.1041,-3.1468,-3.1589,-3.1515,-3.1515,-3.1148,-3.0679,-3.0643,-3.0867,-3.1149,-3.1336,-3.1581,-3.1614,-3.0691,-3.0463,-3.0689,-3.1485,-3.1838,-3.2162,-3.2977,-3.3902,-3.4453,-3.3828,-3.4263,-3.4756,-3.4756,-3.4934,-3.4812,-3.402,-3.4562,-3.5138,-3.5251,-3.5395,-3.547,-3.547,-3.5584,-3.5662,-3.5673,-3.56,-3.5204,-3.44,-3.4255,-3.3833,-3.2943,-3.2908,-3.2601,-3.1882,-3.1113,-3.0734,-3.0799,-3.0794,-3.0809,-3.0792,-3.0799,-3.08,-3.08,-3.0799,-3.0794,0.0,0.0,0.0,0.0,0.0,0.0,0.0,0.0,-2.2888,0.0,0.0,0.0,0.0,0.0,0.0,0.0,0.0,0.0,0.0,0.0,0.0,0.0,0.0,0.0,0.0,0.0,0.0,0.0,0.0,-2.6393,-2.5955,-2.5251,-2.4694,-2.4328,-2.4313,-2.4608,-2.5237,-2.5237,-2.5572,-2.6202,-2.6202,-2.6202,-2.6202,-2.6202,-2.6601,-2.7298,-2.7298,-2.8154,-2.9463,-2.86,-2.911,-3.0297,-2.9508,-2.971,-3.0577,-3.1449,-3.1479,-3.1136,-3.1207,-3.1326,-3.1538,-3.2002,-3.2357,-3.2569,-3.2138,-3.2655,-3.3111,-3.1805,-3.1878,-3.2324,-3.2154,-3.2561,-3.311,-3.3449,-3.4235,-3.4813,-3.4472,-3.4661,-3.4917,-3.5,-3.5062,-3.504,-3.487,-3.5122,-3.534,-3.5409,-3.5528,-3.5614,-3.5614,-3.5676,-3.5693,-3.5693,-3.5737,-3.5428,-3.4626,-3.4563,-3.4195,-3.3362,-3.3323,-3.3159,-3.2835,-3.1987,-3.1535,-3.1558,-3.106,-3.0793,-3.0798,-3.0801,-3.0797,-3.0791,-3.0791,-3.0808,-2.3229,0.0,0.0,0.0,0.0,0.0,0.0,0.0,0.0,0.0,0.0,0.0,0.0,0.0,0.0,0.0,0.0,0.0,0.0,0.0,0.0,0.0,0.0,0.0,0.0,0.0,0.0,0.0,0.0,0.0,-2.696,-2.6196,-2.5597,-2.5219,-2.5013,-2.5082,-2.5503,-2.5503,-2.574,-2.6202,-2.6202,-2.6202,-2.6202,-2.6202,-2.6501,-2.7017,-2.7199,-2.8161,-2.9478,-2.8609,-2.9333,-3.0916,-3.009,-3.009,-3.0643,-3.1535,-3.164,-3.1368,-3.1474,-3.1877,-3.2483,-3.3084,-3.3541,-3.3732,-3.3233,-3.3832,-3.4377,-3.2947,-3.3101,-3.3543,-3.2918,-3.324,-3.3752,-3.3979,-3.4472,-3.4908,-3.4908,-3.4908,-3.4936,-3.507,-3.5136,-3.5258,-3.5463,-3.5509,-3.5502,-3.5552,-3.5629,-3.5716,-3.5727,-3.5723,-3.5727,-3.5727,-3.5791,-3.5593,-3.5003,-3.4954,-3.4717,-3.4116,-3.3875,-3.3756,-3.3758,-3.2926,-3.2467,-3.2457,-3.1834,-3.1504,-3.1502,-3.15,-3.1397,-3.1153,-3.0917,-3.08,0.0,0.0,0.0,-2.307,0.0,0.0,0.0,0.0,-2.3862,0.0,0.0,0.0,0.0,0.0,0.0,0.0,0.0,0.0,0.0,0.0,0.0,0.0,0.0,0.0,0.0,0.0,0.0,0.0,0.0,0.0,-2.7881,-2.7292,-2.6641,-2.5986,-2.5266,-2.5082,-2.5503,-2.5503,-2.574,-2.6202,-2.6202,-2.6202,-2.6202,-2.6202,-2.6202,-2.6286,-2.7,-2.7752,-2.8505,-2.9162,-2.9954,-3.079,-3.1452,-3.1802,-3.193,-3.1981,-3.2415,-3.3029,-3.3172,-3.3283,-3.3401,-3.3698,-3.3959,-3.4233,-3.4458,-3.4711,-3.4728,-3.3875,-3.3676,-3.3695,-3.3676,-3.3676,-3.3903,-3.468,-3.4889,-3.4908,-3.4908,-3.4908,-3.4936,-3.507,-3.5255,-3.5405,-3.5483,-3.5509,-3.554,-3.5664,-3.5704,-3.5722,-3.5786,-3.5791,-3.5795,-3.5795,-3.5853,-3.5882,-3.5862,-3.5852,-3.585,-3.5811,-3.5086,-3.4654,-3.4654,-3.3818,-3.3356,-3.3357,-3.334,-3.3318,-3.3318,-3.3327,-3.2871,-3.2032,-3.1192,-3.08,0.0,0.0,-2.4892,-2.3833,0.0,0.0,0.0,0.0,0.0,0.0,0.0,0.0,0.0,0.0,0.0,0.0,0.0,0.0,0.0,0.0,0.0,0.0,0.0,0.0,0.0,0.0,0.0,0.0,0.0,0.0,0.0,-2.8372,-2.7752,-2.6902,-2.6624,-2.6321,-2.5972,-2.5972,-2.6043,-2.6202,-2.6684,-2.6667,-2.6219,-2.7214,-2.7244,-2.6588,-2.7923,-2.8905,-2.9618,-2.9911,-3.0918,-3.2262,-3.2071,-3.2349,-3.2865,-3.2865,-3.3028,-3.3262,-3.3337,-3.3382,-3.3408,-3.3509,-3.3847,-3.4221,-3.4305,-3.4607,-3.4832,-3.4567,-3.4491,-3.45,-3.4547,-3.4556,-3.4641,-3.4963,-3.5029,-3.5029,-3.5029,-3.5098,-3.5184,-3.5276,-3.5425,-3.5577,-3.5684,-3.5694,-3.5694,-3.5704,-3.5708,-3.5722,-3.5791,-3.5842,-3.5861,-3.5861,-3.5895,-3.5894,-3.5894,-3.5909,-3.5916,-3.5955,-3.5708,-3.5559,-3.5565,-3.4726,-3.4257,-3.4252,-3.3681,-3.3404,-3.3404,-3.3399,-3.324,-3.2949,-3.2655,-3.1893,-2.527,-2.5487,0.0,-2.45,-2.4544,0.0,-2.3757,0.0,0.0,0.0,0.0,0.0,0.0,0.0,0.0,0.0,0.0,0.0,0.0,0.0,0.0,0.0,0.0,0.0,0.0,0.0,-2.8796,-2.9514,0.0,0.0,0.0,0.0,-2.8555,-2.7729,-2.7431,-2.695,-2.6202,-2.6468,-2.6468,-2.6202,-2.7216,-2.7298,-2.6634,-2.7862,-2.8052,-2.7571,-2.8898,-2.9903,-3.0616,-3.0977,-3.1923,-3.3129,-3.2685,-3.2856,-3.3337,-3.3337,-3.3337,-3.3337,-3.3396,-3.3466,-3.3549,-3.3643,-3.3985,-3.4351,-3.4424,-3.4651,-3.4908,-3.4908,-3.4908,-3.4917,-3.4992,-3.5001,-3.5011,-3.5084,-3.5092,-3.511,-3.5151,-3.5239,-3.5321,-3.545,-3.5554,-3.5674,-3.5786,-3.583,-3.5811,-3.5782,-3.5758,-3.5795,-3.5838,-3.5866,-3.5898,-3.5898,-3.5897,-3.5894,-3.5909,-3.5921,-3.5941,-3.5991,-3.5994,-3.5996,-3.5995,-3.5465,-3.5166,-3.5154,-3.4583,-3.4308,-3.4314,-3.4302,-3.4147,-3.3865,-3.3833,-3.3069]},{"header":{"parameterUnit":"m.s-1","parameterCategory":1,"la1":30.6,"la2":29.2853,"lo1":-89.7004,"lo2":-87.6739,"dy":0.0162,"dx":0.0183,"nx":112,"ny":82,"refTime":"2025-01-26T06:00:00:Z","depth":0,"parameterNumber":3,"parameterNumberName":"V-component_of_WINDS"},"data":[0.0,0.0,0.0,0.0,0.0,0.0,0.0,0.0,0.0,0.0,0.0,0.0,0.0,0.0,0.0,0.0,0.0,0.0,0.0,0.0,0.0,0.0,0.0,0.0,0.0,0.0,0.0,0.0,0.0,0.0,0.0,0.0,0.0,0.0,0.0,0.0,0.0,0.0,0.0,0.0,0.0,0.0,0.0,0.0,0.0,0.0,0.0,0.0,0.0,0.0,0.0,0.0,0.0,0.0,0.0,0.0,0.0,0.0,0.0,0.0,0.0,0.0,0.0,0.0,0.0,0.0,0.0,0.0,0.0,0.0,0.0,0.0,0.0,0.0,0.0,0.0,0.0,0.0,0.0,0.0,0.0,0.0,0.0,0.0,0.0,0.0,0.0,0.0,0.0,0.0,0.0,-0.1064,-0.088,-0.0904,-0.1275,-0.2186,-0.3112,-0.3963,0.0,0.0,0.0,0.0,0.0,0.0,0.0,0.0,0.0,0.0,0.0,0.0,0.0,0.0,0.0,0.0,0.0,0.0,0.0,0.0,0.0,0.0,0.0,0.0,0.0,0.0,0.0,0.0,0.0,0.0,0.0,0.0,0.0,0.0,0.0,0.0,0.0,0.0,0.0,0.0,0.0,0.0,0.0,0.0,0.0,0.0,0.0,0.0,0.0,0.0,0.0,0.0,0.0,0.0,0.0,0.0,0.0,0.0,0.0,0.0,0.0,0.0,0.0,0.0,0.0,0.0,0.0,0.0,0.0,0.0,0.0,0.0,0.0,0.0,0.0,0.0,0.0,0.0,0.0,0.0,0.0,0.0,0.0,0.0,0.0,0.0,0.0,0.0,0.0,0.0,0.0,0.0,0.0,0.0,0.0,0.0,0.0,0.0,0.0,0.0,0.0,0.0,0.0,0.0,-0.0999,-0.0421,-0.0472,-0.0743,-0.1252,-0.1765,-0.2638,-0.3991,0.0,0.0,0.0,0.0,0.0,0.0,0.0,0.0,0.0,0.0,0.0,0.0,0.0,0.0,0.0,0.0,0.0,0.0,0.0,0.0,0.0,0.0,0.0,0.0,0.0,0.0,0.0,0.0,0.0,0.0,0.0,0.0,0.0,0.0,0.0,0.0,0.0,0.0,0.0,0.0,0.0,0.0,0.0,0.0,0.0,0.0,0.0,0.0,0.0,0.0,0.0,0.0,0.0,0.0,0.0,0.0,0.0,0.0,0.0,0.0,0.0,0.0,0.0,0.0,0.0,0.0,0.0,0.0,0.0,0.0,0.0,0.0,0.0,0.0,0.0,0.0,0.0,0.0,0.0,0.0,0.0,0.0,0.0,0.0,0.0,0.0,0.0,0.0,0.0,0.0,0.0,0.0,0.0,0.0,0.0,0.0,0.0,0.0,0.0,0.0,0.0,0.0,0.0,-0.0778,-0.0275,0.004,-0.0019,-0.0348,-0.1019,-0.1324,-0.2131,-0.3673,-0.4903,0.0,0.0,0.0,0.0,0.0,0.0,0.0,0.0,0.0,0.0,0.0,0.0,0.0,0.0,0.0,0.0,0.0,0.0,0.0,0.0,0.0,0.0,0.0,0.0,0.0,0.0,0.0,0.0,0.0,0.0,0.0,0.0,0.0,0.0,0.0,0.0,0.0,0.0,0.0,0.0,0.0,0.0,0.0,0.0,0.0,0.0,0.0,0.0,0.0,0.0,0.0,0.0,0.0,0.0,0.0,0.0,0.0,0.0,0.0,0.0,0.0,0.0,0.0,0.0,0.0,0.0,0.0,0.0,0.0,0.0,0.0,0.0,0.0,0.0,0.0,0.0,0.0,0.0,0.0,0.0,0.0,0.0,0.0,0.0,0.0,0.0,0.0,0.0,0.0,0.0,0.0,0.0,0.0,0.0,0.0,0.0,0.0,0.0,0.0,0.0,0.0,0.0,0.0232,0.0353,0.0341,0.0352,0.0096,-0.0614,-0.0896,-0.1681,-0.3189,-0.4119,0.0,0.0,0.0,0.0,0.0,0.0,0.0,0.0,0.0,0.0,0.0,0.0,0.0,0.0,0.0,0.0,0.0,0.0,0.0,0.0,0.0,0.0,0.0,0.0,0.0,0.0,0.0,0.0,0.0,0.0,0.0,0.0,0.0,0.0,0.0,0.0,0.0,0.0,0.0,0.0,0.0,0.0,0.0,0.0,0.0,0.0,0.0,0.0,0.0,0.0,0.0,0.0,0.0,0.0,0.0,0.0,0.0,0.0,0.0,0.0,0.0,0.0,0.0,0.0,0.0,0.0,0.0,0.0,0.0,0.0,0.0,0.0,0.0,0.0,0.0,0.0,0.0,0.0,0.0,0.0,0.0,0.0,0.0,0.0,0.0,0.0,0.0,0.0,0.0,0.0,0.0,0.0,0.0,0.0,0.0,0.0,0.0,0.0,0.0,0.0,0.0,0.0,0.04,0.0484,0.0482,0.0543,0.0429,0.0058,-0.0485,-0.1354,-0.2582,-0.3703,0.0,0.0,0.0,0.0,0.0,0.0,0.0,0.0,0.0,0.0,0.0,0.0,0.0,0.0,0.0,0.0,0.0,0.0,0.0,0.0,0.0,0.0,0.0,0.0,0.0,0.0,0.0,0.0,0.0,0.0,0.0,0.0,0.0,0.0,0.0,0.0,0.0,0.0,0.0,0.0,0.0,0.0,0.0,0.0,0.0,0.0,0.0,0.0,0.0,0.0,0.0,0.0,0.0,0.0,0.0,0.0,0.0,0.0,0.0,0.0,0.0,0.0,0.0,0.0,0.0,0.0,0.0,0.0,0.0,0.0,0.0,0.0,0.0,0.0,0.0,0.0,0.0,0.0,0.0,0.0,0.0,0.0,0.0,0.0,0.0,0.0,0.0,0.0,0.0,0.0,0.0,0.0,0.0,0.0,0.0,0.0,0.0,0.0,0.0,0.0,0.0,0.0,0.0703,0.0822,0.0,0.0796,0.0597,0.0137,-0.0337,-0.1123,-0.2346,0.0,0.0,0.0,0.0,0.0,0.0,0.0,0.0,0.0,0.0,0.0,0.0,0.0,0.0,0.0,0.0,0.0,0.0,0.0,0.0,0.0,0.0,0.0,0.0,0.0,0.0,0.0,0.0,0.0,0.0,0.0,0.0,0.0,0.0,0.0,0.0,0.0,0.0,0.0,0.0,0.0,0.0,0.0,0.0,0.0,0.0,0.0,0.0,0.0,0.0,0.0,0.0,0.0,0.0,0.0,0.0,0.0,0.0,0.0,0.0,0.0,0.0,0.0,0.0,0.0,0.0,0.0,0.0,0.0,0.0,0.0,0.0,0.0,0.0,0.0,0.0,0.0,0.0,0.0,0.0,0.0,0.0,0.0,0.0,0.0,0.0,0.0,0.0,0.0,0.0,0.0,0.0,0.0,0.0,0.0,0.0,0.0,0.0,0.0,0.0,0.0,0.0,0.0948,0.1261,0.1416,0.0,0.1201,0.0948,0.0421,0.0,-0.0714,-0.1823,0.0,0.0,0.0,0.0,0.0,0.0,0.0,0.0,0.0,0.0,0.0,0.0,0.0,0.0,0.0,0.0,0.0,0.0,0.0,0.0,0.0,0.0,0.0,0.0,0.0,0.0,0.0,0.0,0.0,0.0,0.0,0.0,0.0,0.0,0.0,0.0,0.0,0.0,0.0,0.0,0.0,0.0,0.0,0.0,0.0,0.0,0.0,0.0,0.0,0.0,0.0,0.0,0.0,0.0,0.0,0.0,0.0,0.0,0.0,0.0,0.0,0.0,0.0,0.0,0.0,0.0,0.0,0.0,0.0,0.0,0.0,0.0,0.0,0.0,0.0,0.0,0.0,0.0,0.0,0.0,0.0,0.0,0.0,0.0,0.0,0.0,0.0,0.0,0.0,0.0,0.0,0.0,0.0,0.0,0.0,0.0,0.0,0.0,0.0,0.0,0.0,0.0,0.1517,0.2095,0.2339,0.1873,0.1758,0.1519,0.1048,0.0571,-0.0069,0.0,0.0,0.0,0.0,0.0,0.0,0.0,0.0,0.0,0.0,0.0,0.0,0.0,0.0,0.0,0.0,0.0,0.0,0.0,0.0,0.0,0.0,0.0,0.0,0.0,0.0,0.0,0.0,0.0,0.0,0.0,0.0,0.0,0.0,0.0,0.0,0.0,0.0,0.0,0.0,0.0,0.0,0.0,0.0,0.0,0.0,0.0,0.0,0.0,0.0,0.0,0.0,0.0,0.0,0.0,0.0,0.0,0.0,0.0,0.0,0.0,0.0,0.0,0.0,0.0,0.0,0.0,0.0,0.0,0.0,0.0,0.0,0.0,0.0,0.0,0.0,0.0,0.0,0.0,0.0,0.0,0.0,0.0,0.0,0.0,0.0,0.0,0.0,0.0,0.0,0.0,0.0,0.0,0.0,0.0,0.0,0.0,0.0,0.0,0.0,0.0,0.0,0.0,0.0,0.2939,0.3104,0.281,0.2563,0.2209,0.174,0.1007,0.0236,-0.0597,0.0,0.0,0.0,0.0,0.0,0.0,0.0,0.0,0.0,0.0,0.0,0.0,0.0,0.0,0.0,0.0,0.0,0.0,0.0,0.0,0.0,0.0,0.0,0.0,0.0,0.0,0.0,0.0,0.0,0.0,0.0,0.0,0.0,0.0,0.0,0.0,0.0,0.0,0.0,0.0,0.0,0.0,0.0,0.0,0.0,0.0,0.0,0.0,0.0,0.0,0.0,0.0,0.0,0.0,0.0,0.0,0.0,0.0,0.0,0.0,0.0,0.0,0.0,0.0,0.0,0.0,0.0,0.0,0.0,0.0,0.0,0.0,0.0,0.0,0.0,0.0,0.0,0.0,0.0,0.0,0.0,0.0,0.0,0.0,0.0,0.0,0.0,0.0,0.0,0.0,0.0,0.0,0.0,0.0,0.0,0.0,0.0,0.0,0.0,0.0,0.0,0.0,0.3413,0.3995,0.4234,0.3833,0.3426,0.2899,0.2219,0.1577,0.0888,0.01,0.0,0.0,0.0,0.0,0.0,0.0,0.0,0.0,0.0,0.0,0.0,0.0,0.0,0.0,0.0,0.0,0.0,0.0,0.0,0.0,0.0,0.0,0.0,0.0,0.0,0.0,0.0,0.0,0.0,0.0,0.0,0.0,0.0,0.0,0.0,0.0,0.0,0.0,0.0,0.0,0.0,0.0,0.0,0.0,0.0,0.0,0.0,0.0,0.0,0.0,0.0,0.0,0.0,0.0,0.0,0.0,0.0,0.0,0.0,0.0,0.0,0.0,0.0,0.0,0.0,0.0,0.0,0.0,0.0,0.0,0.0,0.0,0.0,0.0,0.0,0.0,0.0,0.0,0.0,0.0,0.0,0.0,0.0,0.0,0.0,0.0,0.0,0.0,0.0,0.0,0.0,0.0,0.0,0.0,0.0,0.0,0.0,0.0,0.0,0.0,0.0,0.0,0.4189,0.5084,0.5485,0.4863,0.4306,0.3606,0.2639,0.2257,0.1757,0.1019,0.0,0.0,0.0,0.0,0.0,0.0,0.0,0.0,0.0,0.0,0.0,0.0,0.0,0.0,0.0,0.0,0.0,0.0,0.0,0.0,0.0,0.0,0.0,0.0,0.0,0.0,0.0,0.0,0.0,0.0,0.0,0.0,0.0,0.0,0.0,0.0,0.0,0.0,0.0,0.0,0.0,0.0,0.0,0.0,0.0,0.0,0.0,0.0,0.0,0.0,0.0,0.0,0.0,0.0,0.0,0.0,0.0,0.0,0.0,0.0,0.6769,0.0,0.0,0.0,0.0,0.0,0.0,0.0,0.0,0.0,0.0,0.0,0.0,0.0,0.0,0.0,0.0,0.0,0.0,0.0,0.0,0.0,0.0,0.0,0.0,0.0,0.0,0.0,0.0,0.0,0.0,0.0,0.0,0.0,0.0,0.0,0.0,0.0,0.0,0.0,0.0,0.0,0.48,0.5461,0.5813,0.5524,0.4997,0.4412,0.3709,0.2976,0.2233,0.1499,0.0,0.0,0.0,0.0,0.0,0.0,0.0,0.0,0.0,0.0,0.0,0.0,0.0,0.0,0.0,0.0,0.0,0.0,0.0,0.0,0.0,0.0,0.0,0.0,0.0,0.0,0.0,0.0,0.0,0.0,0.0,0.0,0.0,0.0,0.0,0.0,0.0,0.0,0.0,0.0,0.0,0.0,0.0,0.0,0.0,0.0,0.0,0.0,0.0,0.0,0.0,0.0,0.0,0.0,0.0,0.0,0.0,0.0,0.0,0.0,0.0,0.7418,0.0,0.0,0.0,0.0,0.0,0.0,0.0,0.0,0.0,0.0,0.0,0.0,0.0,0.0,0.0,0.0,0.0,0.0,0.0,0.0,0.0,0.0,0.0,0.0,0.0,0.0,0.0,0.0,0.0,0.0,0.0,0.0,0.0,0.0,0.0,0.0,0.0,0.0,0.0,0.0,0.5351,0.6092,0.6468,0.608,0.5462,0.4885,0.4334,0.3659,0.2958,0.223,0.1731,0.0,0.0,0.0,0.0,0.0,0.0,0.0,0.0,0.0,0.0,0.0,0.0,0.0,0.0,0.0,0.0,0.0,0.0,0.0,0.0,0.0,0.0,0.0,0.0,0.0,0.0,0.0,0.0,0.0,0.0,0.0,0.0,0.0,0.0,0.0,0.0,0.0,0.0,0.0,0.0,0.0,0.0,0.0,0.0,0.0,0.0,0.0,0.0,0.0,0.0,0.0,0.0,0.0,1.0085,1.0399,1.1075,1.0001,1.0312,1.1577,0.9726,0.897,0.8994,0.0,0.0,0.0,0.0,0.0,0.0,0.0,0.0,0.0,0.0,0.0,0.0,0.0,0.0,0.0,0.0,0.0,0.0,0.0,0.0,0.0,0.0,0.0,0.0,0.0,0.6246,0.5777,0.0,0.0,0.0,0.0,0.0,0.0,0.0,0.0,0.0,0.0,0.0,0.0,0.5925,0.6721,0.7106,0.6552,0.587,0.524,0.4769,0.4246,0.367,0.3032,0.2534,0.2087,0.0,0.0,0.0,0.0,0.0,0.0,0.0,0.0,0.0,0.0,0.0,0.0,0.0,0.0,0.0,0.0,0.0,0.0,0.0,0.0,0.0,0.0,0.0,0.0,0.0,0.0,0.0,0.0,0.0,0.0,0.0,0.0,0.9836,1.0238,0.0,0.0,0.0,0.0,0.0,0.0,0.0,0.0,0.0,0.0,0.0,0.0,0.0,0.0,1.129,1.129,1.1308,1.1308,1.1291,1.1342,1.1507,1.1294,1.1348,1.1627,1.172,0.0,1.0051,0.9515,0.0,0.0,0.0,0.0,0.0,0.0,0.0,0.0,0.0,0.0,0.0,0.0,0.0,0.0,0.0,0.0,0.0,0.0,0.0,0.0,0.0,0.0,0.664,0.6623,0.6621,0.6563,0.0,0.5839,0.5418,0.5118,0.0,0.0,0.0,0.0,0.0,0.0,0.0,0.0,0.6521,0.7038,0.7243,0.6881,0.633,0.5776,0.5259,0.4568,0.4048,0.3772,0.3266,0.2768,0.2296,0.1514,0.0,0.0,0.0,0.0,0.0,0.0,0.0,0.0,0.0,0.0,0.0,0.0,0.0,0.0,0.0,0.0,0.0,0.0,0.0,0.0,0.0,0.0,0.0,0.0,0.0,0.0,0.0,0.0,0.0,0.9835,1.0652,1.1068,1.1017,1.1082,0.0,0.0,0.0,0.0,0.0,0.0,0.0,0.0,0.0,1.1909,1.1936,1.2048,1.2282,1.2282,1.2282,1.2282,1.2623,1.2789,1.2777,1.2547,1.2762,1.3266,1.2707,1.2271,1.1871,1.1136,1.0733,1.0556,0.0,0.0,0.0,0.0,0.0,0.975,0.9562,0.9478,0.0,0.0,0.0,0.0,0.0,0.0,0.0,0.0,0.0,0.0,0.0,0.0,0.0,0.7752,0.7835,0.7938,0.7697,0.7644,0.7335,0.0,0.6188,0.6181,0.5894,0.0,0.0,0.0,0.0,0.0,0.7154,0.7465,0.7566,0.723,0.6526,0.5998,0.5776,0.5002,0.4393,0.4027,0.3784,0.3474,0.3044,0.2274,0.1723,0.0,0.0,0.0,0.0,0.0,0.0,0.0,0.0,0.0,0.0,0.0,0.0,0.0,0.0,0.0,0.0,0.0,0.0,0.0,0.0,0.0,0.0,0.0,0.0,0.0,0.0,0.0,0.0,1.086,1.143,1.1784,1.152,1.1501,0.0,0.0,0.0,0.0,0.0,0.0,1.2591,1.3041,1.3227,1.3039,1.3445,1.3581,1.3408,1.3581,1.3662,1.3675,1.3994,1.4156,1.4125,1.3724,1.3951,1.4568,1.3699,1.3521,1.3716,1.2516,1.2092,1.2079,1.1399,1.1239,1.1373,1.1252,1.1362,1.1566,1.1584,1.1586,1.1559,1.1559,0.0,1.0489,1.0141,0.0,0.0,0.0,0.0,0.8954,0.8635,0.905,0.9399,0.8846,0.8926,0.9068,0.8765,0.8947,0.8762,0.0,0.7218,0.7151,0.6976,0.0,0.0,0.0,0.0,0.8283,0.8082,0.8123,0.8015,0.7579,0.6887,0.6382,0.6189,0.5463,0.4865,0.4476,0.4253,0.402,0.3799,0.3109,0.2656,0.2504,0.0,0.0,0.0,0.0,0.0,0.0,0.0,0.0,0.0,0.0,0.0,0.0,0.0,0.0,0.0,0.0,0.0,0.0,0.0,0.0,0.0,0.0,0.0,0.0,0.0,0.0,0.0,0.0,0.0,1.2733,1.2708,0.0,0.0,0.0,0.0,1.3855,1.4407,1.4743,1.4743,1.5381,1.5439,1.4791,1.5412,1.5443,1.4808,1.543,1.5747,1.5747,1.5319,1.5195,1.5296,1.4769,1.4592,1.4707,1.5094,1.5336,1.5323,1.3431,1.263,1.2575,1.2599,1.2873,1.321,1.2763,1.3162,1.3793,1.2925,1.3194,1.3926,1.3926,1.3685,1.3162,1.188,1.1512,0.0,0.0,1.0143,1.0105,0.966,0.9559,0.9579,0.954,0.9559,0.9559,0.954,0.9559,0.9441,0.0,0.9184,0.9405,0.9259,0.0,0.9417,0.9855,0.9582,0.94,0.9576,0.9218,0.8671,0.7961,0.7611,0.714,0.6449,0.5942,0.5589,0.5441,0.4648,0.4306,0.453,0.3951,0.3449,0.3069,0.3131,0.0,0.0,0.0,0.0,0.0,0.0,0.0,0.0,0.0,0.0,0.0,0.0,0.0,0.0,0.0,0.0,0.0,0.0,0.0,0.0,0.0,0.0,0.0,0.0,0.0,0.0,0.0,0.0,1.3344,1.3378,0.0,0.0,1.3868,1.4113,1.4671,1.4951,1.527,1.5711,1.5964,1.5978,1.5738,1.5978,1.5978,1.5738,1.5978,1.6105,1.6105,1.6268,1.6198,1.5918,1.6068,1.6164,1.6183,1.6369,1.6461,1.6422,1.5478,1.4918,1.4638,1.4296,1.4308,1.4469,1.4315,1.4462,1.4698,1.4361,1.4462,1.4686,1.4388,1.4219,1.3977,1.3187,1.296,1.2906,1.2557,1.2462,1.2398,1.1961,1.2031,1.2021,1.1149,1.117,1.1183,1.0356,1.0381,1.0455,1.0107,0.9805,0.9517,0.9251,0.9824,1.0276,1.0242,1.0261,1.0333,1.0391,0.9822,0.929,0.903,0.8551,0.8073,0.7541,0.6985,0.6531,0.6225,0.5677,0.539,0.5493,0.4882,0.4304,0.3816,0.3636,0.3096,0.0,0.0,0.0,0.0,0.0,0.0,0.0,0.0,0.0,0.0,0.0,0.0,0.0,0.0,0.0,0.0,0.0,0.0,0.0,0.0,0.0,0.0,0.0,0.0,0.0,0.0,1.3523,1.4098,1.4175,1.4373,1.4846,1.494,1.5205,1.5774,1.6062,1.6404,1.684,1.7082,1.7096,1.6868,1.7082,1.7082,1.6868,1.7082,1.718,1.718,1.7398,1.7327,1.6992,1.7183,1.7264,1.7264,1.7264,1.7264,1.7244,1.6983,1.6718,1.64,1.557,1.5374,1.5546,1.539,1.5434,1.5568,1.5568,1.5568,1.5509,1.5209,1.5112,1.5031,1.4537,1.4422,1.4345,1.4025,1.3937,1.385,1.3408,1.3497,1.3488,1.2605,1.2605,1.2603,1.1758,1.1654,1.1709,1.1708,1.0842,1.0099,1.004,1.089,1.1463,1.1262,1.1402,1.1424,1.1104,1.0339,0.9785,0.9619,0.9236,0.8858,0.8471,0.7936,0.7449,0.7089,0.649,0.617,0.6226,0.5512,0.4954,0.4644,0.408,0.342,0.2662,0.0,0.0,0.0,0.0,0.0,0.0,0.0,0.0,0.0,0.0,0.0,0.0,0.0,0.0,0.0,0.0,0.0,0.0,0.0,0.0,0.0,0.0,0.0,1.3829,1.3754,1.4115,1.5036,1.5138,1.5572,1.6613,1.6722,1.6858,1.7209,1.7838,1.8216,1.823,1.8782,1.884,1.8259,1.8796,1.8825,1.8245,1.8811,1.9101,1.9101,1.8707,1.8519,1.85,1.8048,1.7828,1.7828,1.7828,1.7828,1.7828,1.7828,1.7808,1.7673,1.6309,1.6086,1.6488,1.6042,1.6151,1.6522,1.6522,1.6522,1.65,1.65,1.65,1.6423,1.5954,1.5832,1.5614,1.4716,1.4469,1.4365,1.3897,1.379,1.379,1.377,1.377,1.377,1.3726,1.3313,1.3143,1.3788,1.2441,1.1346,1.1879,1.2574,1.3063,1.3112,1.3033,0.0,1.1729,1.0862,1.0157,0.9697,0.9638,0.9511,0.918,0.8714,0.8348,0.8054,0.7033,0.654,0.6709,0.5842,0.5401,0.5505,0.4538,0.3816,0.3408,0.0,0.0,0.0,0.0,0.0,0.0,0.0,0.0,0.0,0.0,0.0,0.0,0.0,0.0,0.0,0.0,0.0,0.0,0.0,0.0,0.0,0.0,1.5351,1.5174,1.5148,1.5399,1.6097,1.6194,1.6421,1.7015,1.7064,1.73,1.7879,1.81,1.839,1.884,1.9014,1.9029,1.8854,1.9014,1.9029,1.8854,1.9029,1.9101,1.9101,1.8988,1.8936,1.8917,1.8803,1.8745,1.8745,1.8745,1.8745,1.8726,1.8422,1.8305,1.8232,1.7511,1.7309,1.7421,1.7305,1.7152,1.701,1.701,1.6778,1.65,1.65,1.65,1.6479,1.6358,1.6315,1.6256,1.6013,1.592,1.5884,1.5758,1.5742,1.5645,1.5291,1.5226,1.5067,1.4479,1.4269,1.4184,1.4129,1.3353,1.2869,1.339,1.3567,1.3665,1.368,1.2997,0.0,1.2144,1.129,1.0728,1.0699,1.0699,1.0504,1.0079,0.9935,0.9525,0.0,0.8087,0.7577,0.729,0.6704,0.6225,0.5871,0.4915,0.4119,0.0,0.0,0.0,0.0,0.0,0.0,0.0,0.0,0.0,0.0,0.0,0.0,0.0,0.0,0.0,0.0,0.0,0.0,0.0,0.0,0.0,0.0,1.6271,1.6637,1.684,1.6408,1.634,1.7022,1.7203,1.7462,1.7951,1.7998,1.8158,1.855,1.8579,1.8738,1.9087,1.9213,1.9273,1.9273,1.9273,1.9328,1.9472,1.9343,1.9343,1.9472,1.9472,1.9398,1.9273,1.9417,1.9398,0.0,1.9273,1.9273,1.9236,1.8898,1.8745,0.0,0.0,0.0,0.0,0.0,1.7659,1.7455,1.7455,1.7165,1.6808,1.6997,1.6934,1.6808,1.6997,1.7026,1.7026,1.7026,1.7026,1.7026,1.7026,1.6913,1.6723,1.6454,1.6389,1.628,1.583,1.5711,1.5658,1.5491,0.0,0.0,1.4815,1.4293,1.3767,1.3623,1.3209,1.282,1.2619,1.1955,1.1508,1.1593,1.1586,1.1397,1.1029,1.0867,0.0,0.0,0.0,0.8086,0.72,0.7016,0.0,0.0,0.0,0.0,0.0,0.0,0.0,0.0,0.2393,0.215,0.0,0.0,0.0,0.0,0.0,0.0,0.0,0.0,0.0,0.0,0.0,0.0,0.0,0.0,0.0,0.0,1.7394,1.7895,1.8472,1.7603,1.7149,1.7829,1.8111,1.8502,1.9058,1.9101,1.912,1.9139,1.912,1.912,1.9139,0.0,0.0,0.0,0.0,1.9708,2.0005,1.9708,1.9708,2.0005,2.0005,1.9848,1.9566,1.9866,1.9848,1.9566,1.9566,1.953,1.9479,1.9236,1.912,1.9026,1.8246,1.7948,1.7948,1.7948,1.7908,0.0,1.7868,0.0,0.0,1.7679,1.7557,1.7344,1.77,1.7787,1.7787,1.7787,1.7787,1.7787,1.7787,1.7537,1.7282,1.7282,1.7282,1.7289,1.7333,1.7262,1.7196,1.7193,1.6582,1.6032,1.5879,1.4712,1.3705,1.3394,1.3508,1.3478,1.3061,1.2587,1.2306,1.2324,0.0,0.0,1.1902,1.1616,1.1059,1.0162,0.9394,0.836,0.6982,0.7152,0.7067,0.6598,0.6199,0.6114,0.6338,0.5581,0.5264,0.5286,0.3339,0.2657,0.0,0.0,0.0,0.0,0.0,0.0,0.0,0.0,0.0,0.0,0.0,0.0,0.0,0.0,0.0,1.741,1.7951,1.844,1.8779,1.8761,1.8664,1.8603,1.865,1.8787,1.9068,1.9101,1.9195,1.9402,1.9217,1.918,1.942,1.9475,0.0,1.9497,1.9762,1.9919,2.0005,1.9937,1.9937,2.0005,0.0,0.0,1.9902,1.997,1.9955,1.9902,1.9902,1.9744,1.9493,1.9439,1.9291,1.9082,1.8898,1.8841,1.8841,1.8841,1.8649,1.8364,1.8364,1.8068,1.77,1.7767,1.776,1.77,1.7767,1.7787,0.0,1.7787,1.7787,1.7787,1.7787,1.774,1.7679,1.7679,1.7679,1.77,1.7707,1.7773,1.7712,1.7289,1.6766,1.6239,1.5743,1.4967,1.4407,1.4336,1.3687,1.3189,1.3083,1.2615,1.2342,1.2443,1.2443,1.2425,1.2372,1.23,1.2007,1.1393,1.0115,0.9061,0.8341,0.8357,0.8389,0.8389,0.8052,0.7637,0.7164,0.6792,0.6457,0.6142,0.4985,0.4257,0.0,0.0,0.0,0.0,0.0,0.0,0.0,0.0,0.0,0.0,0.0,1.6072,0.0,0.0,1.7971,1.8075,1.8753,1.9306,1.9424,1.9548,1.9512,1.9273,1.9328,1.9435,1.9527,1.9545,1.9599,1.9744,1.9617,1.9599,1.9744,1.9889,1.9945,1.9945,2.01,2.0254,2.0392,2.0254,2.0254,2.0392,2.0392,2.0323,2.0202,2.034,2.0323,2.0202,2.0202,2.01,1.9927,1.9624,1.9512,1.9508,1.9213,1.9101,1.9101,1.9101,1.8969,1.8803,1.8879,1.8592,1.8246,1.85,1.8461,1.8324,1.85,1.8553,1.8553,1.8461,1.8442,1.8442,1.8442,1.8305,1.8147,1.8147,1.8187,1.8226,1.8285,1.8572,1.8617,1.8028,1.7344,1.6647,1.5974,1.548,1.5094,1.4761,1.4269,1.395,1.395,1.3726,1.3576,1.3626,1.3437,1.3251,1.3118,1.2558,1.2082,1.1769,1.0464,0.9634,0.9451,0.9062,0.894,0.915,0.8982,0.8753,0.8451,0.8116,0.7906,0.7801,0.7279,0.6481,0.0,0.0,0.0,0.0,0.0,0.0,0.0,0.0,1.5962,1.5995,1.6573,1.7133,1.7271,1.8022,1.869,1.8862,1.9519,2.0023,2.0061,2.0078,2.0043,1.994,1.9973,2.0005,2.0005,2.0005,2.0023,2.0061,2.0041,2.0023,2.0061,2.0289,2.041,2.041,2.0444,2.0579,2.0794,2.0595,2.0595,2.0794,2.0794,2.0695,2.0495,2.0696,2.0695,2.0478,2.0427,2.041,2.0359,1.9818,1.9762,1.9937,1.9453,1.9232,1.9176,1.912,1.9157,1.9236,1.9302,1.9105,1.8921,1.9269,1.9176,1.8969,1.9246,1.9321,1.9302,1.9176,1.9157,1.9157,1.9157,1.8898,1.8669,1.8669,1.8688,1.8726,1.886,1.9246,1.9348,1.8716,1.788,1.7052,1.633,1.6083,1.5705,1.4924,1.4907,1.495,1.4822,1.4808,1.4808,1.4808,1.4465,1.4117,1.3842,1.2867,1.2201,1.2042,1.1008,1.0474,1.0628,0.9934,0.9686,0.994,0.9872,0.9827,0.9821,0.9347,0.9211,0.9366,0.9279,0.8477,1.525,1.4998,1.4816,1.492,1.5269,1.5679,0.0,0.0,1.6881,1.7014,1.7763,1.8394,1.8411,1.9171,1.9814,1.9831,1.9927,2.0078,2.0308,2.0359,2.0443,2.0662,2.0287,2.0005,2.0005,2.0005,2.0096,2.0342,2.0131,2.0113,2.0342,2.0393,2.041,2.041,2.0629,2.0778,2.0794,2.0778,2.0778,2.0794,2.0794,2.0778,2.0761,2.0794,2.0778,2.0745,2.0495,2.041,2.0376,2.0063,1.997,1.9988,1.9935,1.9726,1.9439,1.9195,1.935,1.9678,1.9398,1.9497,1.9719,1.949,1.9376,1.9339,1.9376,1.9395,1.9395,1.9376,1.9376,1.9376,1.9376,1.9302,1.9195,1.9195,1.912,1.9082,1.9213,1.9302,1.9185,1.8693,1.8028,1.736,1.6739,1.6619,1.6196,1.4986,1.5304,1.5475,1.4878,1.4808,1.4808,1.4808,1.4747,1.459,1.4254,1.3842,1.3383,1.2896,1.2456,1.22,1.2164,1.1773,1.167,1.1882,1.154,1.1216,1.0924,1.0282,0.9972,0.999,0.981,0.9316,1.5652,1.5687,0.0,0.0,1.6586,1.7123,1.7265,1.7756,1.8182,1.8233,1.8873,1.9409,1.9409,1.9863,2.0237,0.0,2.0357,2.051,2.0628,2.0629,2.0663,2.0794,2.0595,2.046,2.046,2.046,2.051,2.0613,2.0527,2.051,2.0628,2.0629,2.0629,2.0629,2.0745,2.0794,2.0794,2.0794,2.0794,2.0794,2.0794,2.0794,2.0794,2.0794,2.0794,2.0794,2.0695,2.0629,2.0596,2.034,2.0323,2.0426,2.0113,2.001,1.998,1.9726,1.9693,1.9806,1.9925,1.9962,1.9997,1.9892,1.9729,1.9578,1.9538,1.965,1.9782,1.9699,1.9874,1.9997,1.9752,1.9663,1.9591,1.9398,1.9376,1.9413,1.9465,1.9672,1.9763,1.9578,1.9187,1.8608,1.7776,1.7928,1.7513,1.5653,1.5928,1.6104,1.5461,1.5374,1.5314,1.5103,1.5088,1.4965,1.462,1.4461,1.4288,1.4061,1.3433,1.31,1.3142,1.2524,1.2274,1.2431,1.227,1.1916,1.1383,1.1102,1.0912,1.0805,1.0882,1.1073,1.6131,0.0,0.0,1.706,1.7759,1.8341,1.8341,1.8827,1.928,1.928,1.971,2.0113,2.0113,2.034,0.0,2.0512,2.0663,2.0794,2.0794,2.0794,2.0794,2.0794,2.0794,2.0794,2.0794,2.0794,2.0794,2.0794,2.0794,2.0794,2.0794,2.0794,2.0794,2.0794,2.0794,2.0794,2.0794,2.0794,2.0794,2.0794,2.0794,2.0794,2.0794,2.0794,2.0794,2.0794,2.0794,2.0794,2.0778,2.0579,2.0613,2.0761,2.0357,2.0289,2.0393,2.0323,2.0222,2.0139,2.0378,2.0444,2.0412,2.0378,2.0189,1.9995,1.9955,2.0098,2.0273,2.0191,2.0362,2.053,2.0227,2.0108,2.0037,1.9782,1.9797,1.9851,1.9884,2.0102,2.0311,2.0361,2.0048,1.9562,1.8843,1.9091,1.8671,1.663,1.703,1.7121,1.5962,1.5799,1.5712,1.5463,1.5359,1.5209,1.4965,1.4841,1.4841,1.4934,1.4255,1.3941,1.4127,1.3355,1.297,1.3079,1.2883,1.2538,1.2043,1.1872,1.1701,1.157,1.1916,1.2471,0.0,0.0,1.7061,1.7852,1.8523,1.8978,1.8978,1.9491,1.9975,1.9975,2.0187,2.0393,2.0393,2.0596,2.0794,2.0794,2.0794,2.0794,2.0794,2.0794,2.0794,2.0794,2.0794,2.0794,0.0,2.0794,2.0794,2.0794,2.0794,2.0794,2.0794,2.0794,2.0794,2.0794,2.0794,2.0794,2.0794,2.0794,2.0794,2.0794,2.0794,2.0794,2.0794,2.0794,2.0794,2.0794,2.0794,2.0794,2.0794,2.0794,2.0794,2.0794,2.0778,2.0613,2.0461,2.0893,2.0974,2.0845,2.0663,2.0893,2.1214,2.0893,2.0778,2.0778,2.0761,2.0778,2.0778,2.0778,2.0778,2.0794,2.0778,2.0679,2.058,2.058,2.053,2.0497,2.0563,2.058,2.063,2.0761,2.0257,1.9783,1.9767,1.9783,1.9292,1.785,1.8817,1.8748,1.614,1.5799,1.5799,1.5784,1.5477,1.5314,1.5299,1.4995,1.4949,1.5255,1.4951,1.4905,1.524,1.461,1.4241,1.4238,1.3551,1.3165,1.3148,1.2502,1.2218,1.2281,1.2751,1.3043,0.0,0.0,1.856,1.9092,1.9717,2.0185,2.0185,2.0373,2.0527,2.0527,2.0611,2.0678,2.0678,2.0745,2.0794,2.0794,2.0794,2.0794,2.0794,2.0794,2.0794,2.0794,2.1189,0.0,0.0,0.0,0.0,2.0794,2.0794,2.0794,2.0794,2.0794,2.0794,2.0794,2.0794,2.0794,2.0794,2.0794,2.0794,2.0794,2.0794,2.0794,2.0794,2.0794,2.0794,2.0794,2.0794,2.0794,2.0794,2.0794,2.0794,2.0794,2.0794,2.0745,2.0712,2.1087,2.1198,2.1183,2.1246,2.1277,2.1277,2.1167,2.0974,2.0794,2.0794,2.0958,2.1135,2.1135,2.1277,2.1402,2.1198,2.1103,2.1007,2.0778,2.0712,2.0712,2.0729,2.0909,2.1087,2.1119,2.1129,2.0927,2.0245,2.0507,2.0476,1.9495,1.8821,1.825,1.784,1.736,1.698,1.6811,1.6269,1.5825,1.5653,1.5522,1.5507,1.5624,1.5536,1.5418,1.5314,1.4858,1.4541,1.43,1.4059,1.3685,1.3199,1.3599,1.3582,1.3171,1.3697,1.4133,0.0,1.8687,1.9496,2.0019,2.0478,2.0794,2.0794,2.0794,2.0794,2.0794,2.0794,2.0794,2.0794,2.1015,2.1094,2.0842,2.1015,2.1094,2.0842,2.0794,2.0889,2.1158,2.1567,0.0,0.0,0.0,0.0,2.1205,2.1189,2.1189,2.1189,2.0936,2.0794,2.0794,2.0794,2.0794,2.0794,2.0794,2.0844,2.0909,2.0909,2.0909,2.0893,2.0827,2.0794,2.0794,2.0794,2.0794,2.0794,2.0794,2.0794,2.0794,2.0794,2.0794,2.0844,2.1183,2.1293,2.1341,2.1588,2.1603,2.148,2.148,2.1324,2.1151,2.1151,2.1308,2.148,2.148,2.1632,2.1753,2.1525,2.148,2.1433,2.1214,2.1151,2.1151,2.1151,2.134,2.148,2.148,2.1663,2.1587,2.0947,2.0971,2.1023,2.0811,1.9636,1.8812,1.8922,1.8454,1.8042,1.7855,1.7421,1.6948,1.6519,1.639,1.6212,1.5956,1.5841,1.5712,1.5477,1.5149,1.4887,1.47,1.4782,1.4618,1.4162,1.4966,1.5097,1.4618,1.4938,1.5293,1.9484,1.9736,1.9925,2.0636,2.0794,2.0794,2.0794,2.0794,2.081,2.0842,2.0826,2.081,0.0,0.0,2.1663,2.0968,2.1442,2.1632,2.0905,2.0794,2.1047,0.0,0.0,0.0,0.0,0.0,0.0,2.1995,0.0,2.19,2.19,2.1189,2.0794,2.0794,2.0794,2.0794,2.0794,2.0794,2.0893,2.1071,2.1071,2.1071,2.1087,2.0893,2.0794,2.0794,2.0794,2.0794,2.0794,2.0794,2.0794,2.0794,2.0794,2.0794,2.0844,2.1167,2.1294,2.134,2.1678,2.1781,2.1812,2.1812,2.1812,2.1812,2.1812,2.1812,2.1812,2.1812,2.1812,2.1812,2.1812,2.1812,2.1812,2.1812,2.1812,2.1812,2.1812,2.1812,2.1812,2.1812,2.1812,2.1812,2.1812,2.1216,2.1,2.1711,2.1213,2.0433,1.9474,1.9076,1.8901,1.8886,1.8808,1.8477,1.7765,1.7433,1.6968,1.6262,1.5969,1.5827,1.5827,1.5477,1.5329,1.5404,1.5687,1.5856,1.5909,1.6497,1.6646,1.6421,1.6389,1.6427,1.9704,2.0146,2.0557,2.0747,2.0794,2.0794,2.0794,2.0794,2.0969,2.1522,2.1173,2.111,0.0,0.0,0.0,2.1647,2.1774,0.0,2.0905,2.0794,0.0,0.0,0.0,2.1742,2.1363,2.2738,0.0,0.0,2.2153,2.1851,2.19,2.1189,2.0794,2.0794,2.0794,2.0794,2.0794,2.0794,2.0827,2.0876,2.0876,2.0876,2.0876,2.0827,2.0794,2.0794,2.0794,2.0794,2.0794,2.0794,2.0794,2.0794,2.0794,2.0794,2.0827,2.1055,2.1151,2.1198,2.1527,2.1724,2.1812,2.1812,2.1812,2.1812,2.1812,2.1812,2.1812,2.1812,2.1812,2.1812,2.1812,2.1812,2.1812,2.1812,2.1812,2.1812,2.1812,2.1812,2.1812,2.1812,2.1812,2.1812,2.1812,2.1647,2.1639,2.1979,2.1874,2.1644,2.1387,2.0693,2.0207,2.016,1.9017,1.8118,1.7731,1.7119,1.6689,1.6503,1.626,1.6093,1.6093,1.558,1.5329,1.5404,1.5862,1.6022,1.5909,1.7142,1.7434,1.6869,1.7196,1.7165,2.0225,2.051,2.0794,2.0794,2.0794,2.0794,2.0794,2.1047,2.1395,2.1805,2.1568,0.0,0.0,0.0,0.0,0.0,0.0,0.0,2.1379,2.1,2.0921,0.0,2.1647,0.0,2.1726,2.2769,2.3307,0.0,2.2517,2.2311,2.2345,2.1364,2.0794,2.0794,2.0794,2.0794,2.0794,2.0893,2.0925,2.0925,2.0925,2.0925,2.0925,2.0844,2.0794,2.0794,0.0,2.0794,2.0794,2.0794,2.0794,2.0794,2.0794,2.0844,2.0942,2.1119,2.123,2.1356,2.1603,2.1738,2.1812,2.1812,2.1812,2.1812,2.1812,2.1812,2.1812,2.1812,2.1812,2.1812,2.1812,2.1812,2.1812,2.1812,2.1812,2.1812,2.1812,2.1812,2.1812,2.1812,2.1812,2.1812,2.1812,2.1812,2.1869,2.2068,2.211,2.2181,2.2378,2.187,2.1331,2.0951,1.998,1.9052,1.8251,1.7609,1.7112,1.6808,1.6421,1.6203,1.6203,1.591,1.5845,1.6099,1.6741,1.714,1.7254,1.8299,1.8531,1.805,1.7995,1.7848,2.0778,2.0794,2.0794,2.0794,2.0794,2.0794,2.0794,2.1363,2.1867,2.1884,0.0,0.0,2.2898,0.0,2.293,2.3025,0.0,2.2803,2.2122,2.1474,2.1268,2.1821,2.1884,2.2092,2.2582,2.2708,2.2772,2.2772,2.2772,2.2772,2.2772,2.1522,2.0794,2.0794,2.0794,2.0794,2.0794,2.0974,2.1055,2.1055,2.1055,2.1055,2.1039,2.0876,2.0794,2.0794,0.0,0.0,2.0794,2.0794,2.0794,2.0794,2.0794,2.0909,2.1071,2.1183,2.1341,2.1511,2.1678,2.1738,2.1736,2.1797,2.1812,2.1812,2.1812,2.1812,2.1812,2.1812,2.1812,2.1812,2.1812,2.1812,2.1812,2.1812,2.1812,2.1812,2.1812,2.1812,2.1812,2.1812,2.1812,2.1812,2.1812,2.1812,2.1869,2.2068,2.2124,2.2309,2.2734,2.2619,2.2228,2.1571,2.1132,2.0372,1.9091,1.8405,1.7772,1.7125,1.6591,1.6313,1.6311,1.6447,1.669,1.7117,1.7945,1.8592,1.9071,1.9499,1.9581,1.9358,1.8745,1.8461,2.0778,2.0794,2.0794,2.0794,2.0794,2.0794,2.0794,2.1279,0.0,0.0,0.0,2.2142,2.3493,2.3259,0.0,2.3654,0.0,0.0,0.0,0.0,2.2359,0.0,0.0,0.0,0.0,0.0,0.0,0.0,0.0,0.0,2.2058,2.1252,2.0794,2.0794,2.0794,2.0794,2.0794,2.0827,2.0844,2.0844,2.0844,2.0844,2.0844,2.0811,2.0794,2.0794,0.0,0.0,2.0794,2.0794,2.0794,2.0794,2.0794,2.0827,2.0844,2.0876,2.0909,2.0974,2.1277,2.1387,2.1433,2.1706,2.1812,2.1812,2.1812,2.1812,2.1812,2.1812,2.1812,2.1812,2.1812,2.1812,2.1812,2.1812,2.1812,2.1812,2.1812,2.1812,2.1812,2.1812,2.1812,2.1812,2.1812,2.1812,2.1869,2.2068,2.2284,2.2525,2.2777,2.2619,2.2517,2.2535,2.1212,2.0232,1.9989,1.8615,1.7718,1.7584,1.7126,1.6888,1.6935,1.7319,1.7634,1.7828,1.8732,1.9262,1.9419,1.9609,1.9548,1.9225,1.9232,1.8898,2.0778,2.0794,2.0794,2.0794,2.0794,2.0794,2.0794,0.0,0.0,0.0,0.0,2.201,2.3048,0.0,0.0,0.0,0.0,0.0,0.0,0.0,0.0,0.0,0.0,0.0,0.0,0.0,0.0,0.0,0.0,0.0,2.1884,2.1189,2.0794,2.0794,2.0794,2.0794,2.0794,2.0794,2.0794,2.0794,2.0794,2.0794,2.0794,2.0794,2.0794,2.0794,2.0794,0.0,2.0794,2.0794,2.0794,2.0794,2.0794,2.086,2.0958,2.0958,2.099,2.1135,2.1682,2.1633,2.1454,2.2345,2.2597,2.2653,2.3038,2.2887,2.2556,2.2406,2.2111,2.1812,2.1812,2.1812,2.1812,2.1812,2.1812,2.1812,2.1812,2.1812,2.1812,2.1812,2.1812,2.1812,2.1812,2.1812,2.1869,2.2068,2.2212,2.2409,2.2764,2.2712,2.2583,2.2387,2.1539,2.0771,2.0238,1.9512,1.9021,1.8901,1.8522,1.8355,1.8445,1.8564,1.8785,1.9085,1.9629,1.9941,2.0014,1.9968,1.9839,1.9603,1.9468,1.9139,2.076,2.0778,2.0778,2.0794,2.0794,2.0794,2.0778,2.1329,0.0,0.0,0.0,2.1782,2.2293,0.0,0.0,0.0,0.0,0.0,0.0,0.0,0.0,0.0,0.0,0.0,0.0,0.0,0.0,0.0,0.0,0.0,2.1632,2.111,2.0794,2.0794,2.0794,2.0794,2.0794,2.0794,2.0794,2.0794,2.0794,2.0794,2.0794,2.0794,2.0794,2.0794,2.0794,0.0,0.0,2.0794,2.0794,2.0794,2.0794,2.0893,2.1038,2.1038,2.1199,2.1521,2.2117,2.2053,2.1892,2.3091,2.3341,2.3301,2.4023,2.3769,2.3182,2.2953,2.2376,2.1812,2.1812,2.1812,2.1812,2.1812,2.1812,2.1812,2.1812,2.1812,2.1812,2.1812,2.1812,2.1812,2.1812,2.1812,2.1855,2.2013,2.2068,2.2223,2.2598,2.2734,2.2642,2.2223,2.1887,2.1359,2.0573,2.0323,2.0156,1.9997,1.9687,1.9578,1.973,1.973,1.9923,2.0337,2.0544,2.0648,2.0614,2.0379,2.0172,1.9988,1.9687,1.9435,2.066,2.071,2.0711,2.0778,2.0794,2.0778,2.0711,0.0,0.0,0.0,2.1035,2.1486,2.1668,2.1639,0.0,0.0,0.0,0.0,0.0,0.0,0.0,0.0,0.0,0.0,0.0,0.0,0.0,0.0,0.0,0.0,0.0,2.0842,2.0794,2.0794,2.0794,2.0794,2.0794,2.0794,2.0794,2.0794,2.0794,2.0794,2.0794,2.0794,2.0794,2.0794,0.0,0.0,0.0,2.0794,2.0794,2.0794,2.0794,2.0811,2.0827,2.0827,2.1254,2.1859,2.2061,2.2479,2.3027,2.357,2.3309,2.2882,2.3556,2.339,2.2937,2.2906,2.2376,2.1812,2.1812,2.1812,2.1812,2.1812,2.1812,2.1812,2.1812,2.1812,2.1812,2.1812,2.1812,2.1812,2.1812,2.1812,2.1812,2.1825,2.1984,2.2124,2.2153,2.2544,2.2782,2.2725,2.2054,2.1579,2.1468,2.0526,1.9942,1.9916,1.9704,1.9651,1.9792,2.0465,2.0921,2.111,2.1346,2.1303,2.0943,2.0631,2.0309,2.0005,2.0028,1.9904,2.066,2.0727,2.0777,2.0794,2.0777,2.0727,2.071,0.0,2.0836,2.0503,2.0641,2.081,2.081,2.081,2.1277,0.0,2.297,2.3417,0.0,0.0,0.0,0.0,0.0,0.0,0.0,0.0,0.0,0.0,0.0,0.0,0.0,2.1837,2.1886,2.1458,2.1458,2.1252,2.0794,2.0794,2.0794,2.0794,2.0794,2.0794,2.0794,2.0794,2.0794,2.0794,0.0,0.0,0.0,2.0794,2.0794,2.0794,2.0794,2.0794,2.0842,2.13,2.1647,2.2028,2.2873,2.3081,2.3151,2.4182,2.4116,2.3705,2.426,2.405,2.3584,2.3424,2.2614,2.1812,2.1812,2.1812,2.1812,2.1812,2.1812,2.1812,2.1812,2.1812,2.1812,2.1812,2.1812,2.1812,2.1812,2.1812,2.1812,2.1812,2.1869,2.1969,2.2082,2.2251,2.245,2.2605,2.2432,2.2267,2.2155,2.1723,2.1393,2.1238,2.1155,2.1155,2.1295,2.1302,2.147,2.1801,2.1498,2.1229,2.0991,2.0614,2.0291,2.0005,2.0025,1.9919,2.0592,2.0661,2.0759,2.1013,2.0885,2.0756,0.0,0.0,2.0458,2.0373,2.0371,2.0371,2.0304,2.0304,2.0707,2.1954,2.2347,2.3025,2.4498,0.0,0.0,0.0,0.0,0.0,0.0,0.0,0.0,0.0,0.0,0.0,0.0,2.3112,2.2988,2.1932,2.1679,2.1316,2.0811,2.0794,2.0794,2.0794,2.0794,2.0794,2.0794,2.0794,2.0761,2.0695,0.0,0.0,0.0,2.0645,2.0628,2.0561,2.0561,2.0611,2.0774,2.148,2.1925,2.2325,2.34,2.3601,2.3472,2.4147,2.4347,2.4312,2.4424,2.4192,2.3869,2.3736,2.2766,2.1812,2.1812,2.1812,2.1812,2.1812,2.1812,2.1812,2.1812,2.1812,2.1812,2.1812,2.1812,2.1812,2.1812,2.1812,2.1812,2.1812,2.1812,2.1855,2.1982,2.2068,2.2184,2.2357,2.2521,2.2548,2.2385,2.2231,2.2118,2.2027,2.1926,2.1911,2.203,2.166,2.1586,2.1844,2.1386,2.1023,2.0797,2.0548,2.0256,1.9937,1.9988,1.9797,2.0373,2.0458,2.0683,2.149,2.1195,2.0849,0.0,2.0973,2.0388,2.0304,2.0304,2.0304,2.0304,2.0304,2.0518,2.1196,2.1982,2.2968,2.4312,0.0,0.0,0.0,0.0,0.0,0.0,0.0,0.0,0.0,0.0,0.0,0.0,2.443,2.3903,2.1963,2.1189,2.081,2.0794,2.0794,2.0794,2.0794,2.0794,2.0794,2.0794,2.0794,2.0662,0.0,0.0,0.0,0.0,2.0291,2.0254,2.0005,2.0005,2.0183,2.0488,2.1153,2.2032,2.2938,2.3293,2.3894,2.4297,2.3264,2.3646,2.4358,2.3646,2.3404,2.3448,2.3635,2.2766,2.1812,2.1812,2.1812,2.1812,2.1812,2.1812,2.1812,2.1812,2.1812,2.1812,2.1812,2.1812,2.1812,2.1812,2.1812,2.1812,2.1812,2.1812,2.1812,2.1796,2.1984,2.211,2.211,2.211,2.211,2.211,2.1631,2.1449,2.1766,2.1495,2.134,2.1402,2.1402,2.1276,2.1023,2.1023,2.0764,2.0314,2.0431,2.0258,1.9797,1.9937,1.9603,2.0428,2.0816,2.1181,2.095,2.0698,2.0537,2.0738,2.0321,1.9993,2.0252,2.008,1.9975,2.0252,2.008,2.0249,2.1329,2.1495,0.0,0.0,0.0,0.0,0.0,0.0,0.0,0.0,0.0,0.0,0.0,0.0,0.0,0.0,2.3858,2.3763,2.3272,2.2613,2.1909,2.1214,2.0763,2.0529,2.0529,2.0529,2.0529,2.0529,2.0529,0.0,0.0,0.0,0.0,0.0,2.0096,2.0078,2.0005,2.0005,2.0043,2.0207,2.0867,2.1612,2.2359,2.2942,2.3575,2.4099,2.3766,2.3884,2.4105,2.3891,2.3862,2.3883,2.3576,2.2508,2.1578,2.2084,2.1728,2.1323,2.1603,2.1556,2.1526,2.1753,2.1812,2.1812,2.1812,2.1812,2.1812,2.1812,2.1812,2.1812,2.1812,2.1812,2.1812,2.1812,2.1661,2.1646,2.1884,2.1691,2.1705,2.2068,2.16,2.1356,2.1449,2.1151,2.0974,2.099,2.0811,2.0779,2.0942,2.0529,2.0309,2.0297,2.012,1.9942,1.9797,1.9937,1.9581,0.0,2.0628,2.1097,2.0895,2.0508,2.0229,2.049,1.9981,1.953,1.9797,1.9654,1.9548,1.9797,1.9829,2.0074,2.0868,2.1176,0.0,0.0,0.0,0.0,0.0,0.0,0.0,0.0,0.0,0.0,0.0,0.0,0.0,0.0,0.0,2.3656,2.364,2.2692,2.203,2.1698,2.0665,2.0345,2.0731,2.0517,2.041,2.041,2.041,0.0,0.0,0.0,0.0,0.0,1.9762,1.9744,1.9669,1.9669,1.9891,2.0267,2.0933,2.1674,2.2414,2.2964,2.342,2.3754,2.3625,2.3668,2.3797,2.3961,2.3921,2.3708,2.3074,2.2148,2.1436,2.1899,2.1435,2.0878,2.1135,2.1103,2.1087,2.1308,2.1402,2.1417,2.1417,2.1417,2.1417,2.1417,2.1417,2.1417,2.1417,2.1417,2.1417,2.1417,2.1246,2.1198,2.1402,2.1246,2.1246,2.1583,2.1292,2.1119,2.1119,2.0778,2.0563,2.0563,2.0412,2.0361,2.0446,2.008,1.9942,2.0072,1.9856,1.9762,1.9762,1.969,1.9325,0.0,2.0003,2.052,2.1093,2.049,1.9918,2.0535,1.9849,0.0,1.9082,1.9082,1.9078,1.9159,1.9595,1.9975,2.0061,2.1037,0.0,0.0,0.0,0.0,0.0,0.0,0.0,0.0,0.0,0.0,0.0,0.0,0.0,0.0,0.0,2.3551,2.3194,2.1774,2.1387,2.216,2.0538,2.0213,2.1188,2.0582,2.0292,2.0309,2.0292,0.0,0.0,0.0,0.0,0.0,1.9347,1.931,1.9082,1.9082,1.962,2.0491,2.1104,2.1934,2.2807,2.3129,2.3288,2.3312,2.3,2.312,2.3443,2.3797,2.3559,2.3064,2.2416,2.1812,2.137,2.1432,2.0957,2.0447,2.0481,2.0514,2.0563,2.0597,2.0696,2.0794,2.0794,2.0794,2.0794,2.0794,2.0794,2.0794,2.0794,2.0794,2.0794,2.0794,2.0778,2.0778,2.0794,2.0778,2.0761,2.0761,2.0761,2.0761,2.0761,2.0378,2.0156,2.0156,2.0156,2.0015,1.9708,1.9672,1.9639,1.9639,1.9621,1.9603,1.9603,1.9232,1.886,1.8774,0.0,2.0085,1.973,1.9465,1.9317,0.0,1.9056,1.8726,1.9045,0.0,1.8869,1.9662,1.9661,1.9829,2.0704,2.0823,0.0,0.0,0.0,0.0,0.0,0.0,0.0,0.0,0.0,0.0,0.0,0.0,0.0,0.0,0.0,2.3068,2.2965,2.1838,2.1427,2.1804,2.0456,1.9904,2.0153,1.9537,1.9339,1.9482,1.9321,0.0,0.0,0.0,0.0,1.8659,1.8893,1.8936,1.8879,1.9045,1.9226,1.9447,1.9607,2.0426,2.1463,2.1526,2.2199,2.3008,2.2933,2.2955,2.3045,2.3135,2.3061,2.3051,2.3452,2.233,2.1145,2.1713,2.0892,1.9945,2.0208,2.0176,2.0143,2.0464,2.0597,2.0647,2.0647,2.0729,2.0794,2.0794,2.0794,2.0794,2.0794,2.0794,2.0794,2.0794,2.053,2.0462,2.0778,2.0513,2.0344,2.0344,2.0344,2.0344,2.0344,1.9997,1.9818,1.9818,1.9818,1.9782,1.9708,1.9398,1.9199,1.9095,1.8884,1.8789,1.8769,1.8688,1.8218,1.8165,1.8924,1.9541,1.9188,1.8969,1.8822,1.8822,1.8514,0.0,0.0,0.0,1.8474,1.929,1.9503,0.0,0.0,0.0,0.0,0.0,0.0,0.0,0.0,0.0,0.0,0.0,0.0,0.0,0.0,0.0,0.0,0.0,0.0,2.2457,2.2226,2.1893,2.1824,2.2073,2.0621,2.0011,2.0243,1.9617,1.9219,1.9076,1.9248,0.0,0.0,0.0,0.0,1.8891,1.8733,1.8664,1.8664,1.8779,1.9233,1.98,1.9517,2.0284,2.1452,2.1452,2.2084,2.2888,2.2888,2.2888,2.2888,2.2888,2.2893,2.2975,2.3369,2.2491,2.1431,2.1515,2.0724,1.9842,1.9735,1.9645,1.9681,1.9894,1.9997,2.005,2.005,2.01,2.0168,2.0168,2.0168,2.0168,2.0168,2.022,2.0254,2.0254,2.0083,2.0048,2.0237,1.9859,1.9597,1.9597,1.9416,1.9503,1.9945,1.98,1.9617,1.942,1.942,1.931,1.9072,1.8574,1.828,1.8207,1.7853,1.7666,1.7666,1.745,1.7068,1.7603,1.8252,1.8802,1.8884,1.8649,1.8417,1.8417,0.0,0.0,0.0,0.0,0.0,0.0,0.0,0.0,0.0,0.0,0.0,0.0,0.0,0.0,0.0,0.0,0.0,0.0,0.0,0.0,0.0,0.0,0.0,0.0,0.0,0.0,2.1423,2.1841,2.217,2.2328,2.0832,2.0255,2.0634,1.9951,1.9407,1.8951,1.943,1.9539,0.0,0.0,0.0,1.9126,1.8649,1.8515,1.8599,1.8618,1.9462,2.0563,1.9957,2.0581,2.1751,2.1794,2.2139,2.254,2.2746,2.2797,2.2797,2.2865,2.2888,2.2865,2.2797,2.2394,2.1837,2.1194,2.0581,1.9969,1.9329,1.919,1.9208,1.9208,1.9211,1.9195,1.9265,1.9302,1.9339,1.9395,1.9395,1.9395,1.9395,1.9501,1.9574,1.9574,1.9578,1.9545,1.9468,1.9072,1.8779,1.8779,1.8467,1.8602,1.9406,1.9493,1.9347,1.8993,1.8988,1.8745,1.8266,1.7626,1.7301,1.7281,1.6751,1.6498,1.6498,1.6093,1.5833,1.6973,1.7232,1.7438,1.7966,1.8043,1.7989,1.7989,0.0,0.0,0.0,0.0,0.0,0.0,0.0,0.0,0.0,0.0,0.0,0.0,0.0,0.0,0.0,0.0,0.0,0.0,0.0,0.0,0.0,0.0,0.0,0.0,0.0,0.0,2.1399,2.1496,2.1544,2.1578,2.0815,2.023,1.985,1.9242,1.9003,1.9072,1.8982,1.9017,0.0,0.0,1.8604,1.8139,1.821,1.8547,1.9024,1.9188,1.9705,2.0295,1.9676,1.9929,2.0613,2.0941,2.0937,2.095,2.1978,2.2301,2.237,2.2775,2.2888,2.2797,2.2278,2.2067,2.1874,2.1316,2.0704,2.0133,1.9578,1.9111,1.8783,1.8783,1.8486,1.8324,1.8669,1.8803,1.9007,1.9339,1.9395,1.9395,1.9395,1.9413,1.9431,1.9431,1.9139,1.8936,1.8917,1.8491,1.8224,1.8224,1.8165,1.8185,1.8341,1.8563,1.8597,1.8422,1.8422,1.8305,1.8048,1.7286,1.6849,1.6723,1.5971,1.561,1.561,1.5521,1.505,1.7217,1.7244,1.7136,1.7753,1.7902,1.7902,1.7902,1.7902,0.0,0.0,0.0,0.0,0.0,0.0,0.0,0.0,0.0,0.0,0.0,0.0,0.0,0.0,0.0,0.0,0.0,0.0,0.0,0.0,0.0,0.0,0.0,0.0,0.0,0.0,2.1399,2.1399,2.1399,2.1114,2.0694,2.0125,1.9551,1.9331,1.9404,1.8977,1.9039,1.9404,0.0,1.8636,1.8371,1.8126,1.8399,1.8954,1.9038,1.9709,2.0545,1.9877,1.9458,1.9336,1.9817,2.0124,2.0419,2.1264,2.1551,2.1575,2.1803,2.186,2.1827,2.1541,2.1774,2.1883,2.0914,2.0525,2.0215,1.9642,1.93,1.9133,1.9133,1.8737,1.8426,1.861,1.8442,1.8324,1.85,1.8553,1.8553,1.8553,1.8611,1.8649,1.8649,1.8505,1.8408,1.8364,1.7941,1.7666,1.7666,1.7456,1.7571,1.8066,1.8014,1.7814,1.7504,1.7209,1.6896,1.6544,1.5874,1.5477,1.5421,1.4675,1.4179,1.3878,1.3807,1.3385,1.7353,1.7244,1.6921,1.7666,0.0,1.7902,1.7902,1.8011,0.0,0.0,0.0,0.0,0.0,0.0,0.0,0.0,0.0,0.0,0.0,0.0,0.0,0.0,0.0,0.0,0.0,0.0,0.0,0.0,0.0,0.0,0.0,0.0,0.0,0.0,2.1399,2.1399,2.1399,2.1399,2.1101,2.0504,2.0071,1.989,1.9876,1.9402,1.9374,1.9673,1.922,1.8839,1.8541,1.8092,1.8255,1.8806,1.8806,1.9451,2.0337,1.9702,1.8857,1.812,1.8745,1.9215,1.9727,2.0558,2.0807,2.0832,2.0968,2.0993,2.0968,2.082,2.1237,2.1503,2.0457,2.0266,2.0193,1.9615,1.9393,1.9288,1.9288,1.8883,1.8547,1.8669,1.8328,1.8042,1.7997,1.8024,1.795,1.7814,1.7888,1.7948,1.7948,1.7914,1.7861,1.7808,1.7387,1.7063,1.6959,1.668,1.6752,1.7354,1.725,1.6959,1.6468,1.6051,1.5645,1.5266,1.4697,1.4396,1.4396,1.36,1.2991,1.2584,1.2331,1.1855,1.6729,1.6531,1.6268,1.7417,1.7801,0.0,1.7902,1.8323,0.0,1.8793,0.0,0.0,0.0,0.0,0.0,0.0,0.0,0.0,0.0,0.0,0.0,0.0,0.0,0.0,0.0,0.0,0.0,0.0,0.0,0.0,0.0,0.0,0.0,0.0,0.0,2.1399,2.1399,2.1399,2.1101,2.0495,2.0454,2.0427,2.045,2.041,2.0125,1.97,1.9646,1.8995,1.7957,1.7916,1.8255,1.8806,1.8806,1.8861,1.8907,1.8545,1.7817,1.7115,1.7905,1.8013,1.8043,1.9736,2.0257,2.0358,2.0832,2.0993,2.087,2.0245,2.0207,2.032,2.0231,2.0218,2.0067,1.953,1.9018,1.8672,1.8672,1.8336,1.8174,1.8531,1.8656,1.87,1.8644,1.8634,1.8458,1.7869,1.7808,1.7808,1.7808,1.7496,1.7248,1.7261,1.6829,1.638,1.5942,1.5876,1.5712,1.5345,1.5864,1.5962,1.5433,1.5366,1.5266,1.5131,1.4651,1.4396,1.4396,1.3222,1.2643,1.2584,1.1963,1.1099,1.6995,1.6829,1.6536,1.737,1.7968,0.0,0.0,1.8239,1.8822,1.9266,1.9985,0.0,0.0,0.0,0.0,0.0,0.0,0.0,0.0,0.0,0.0,0.0,0.0,0.0,0.0,0.0,0.0,0.0,0.0,0.0,0.0,0.0,0.0,0.0,0.0,2.1229,2.1399,2.1326,2.1194,2.1047,2.0342,1.9989,1.9985,1.9239,1.8967,1.9125,1.8744,1.8337,1.7902,1.7902,1.8255,1.8847,1.922,1.9043,1.8593,1.8458,1.7898,1.7294,1.7934,1.8067,1.8138,1.9124,1.9462,1.9488,1.9683,1.9773,1.9695,1.9448,1.941,1.9462,1.9552,1.963,1.9656,1.9447,1.9247,1.8984,1.8622,1.8151,1.7869,1.7994,1.7812,1.7529,1.7194,1.7152,1.6863,1.6001,1.5872,1.5906,1.5983,1.5864,1.581,1.5888,1.5746,1.5512,1.5254,1.5243,1.5005,1.4444,1.5073,1.5266,1.4754,1.4663,1.4271,1.3569,1.3294,1.2996,1.2672,1.211,1.1482,1.0738,1.0391,0.9596,1.7303,1.7163,1.7003,0.0,0.0,0.0,1.8137,1.8529,1.9073,1.9723,0.0,0.0,0.0,0.0,0.0,0.0,0.0,0.0,0.0,0.0,0.0,0.0,0.0,0.0,0.0,0.0,0.0,0.0,0.0,0.0,0.0,0.0,0.0,0.0,0.0,0.0,2.1277,2.118,2.1086,2.1018,2.0079,1.9737,1.9931,1.8913,1.8704,1.9043,1.8404,1.8126,1.8078,1.7712,1.7855,1.8384,1.8839,1.8799,1.8469,1.8353,1.7988,1.7606,1.805,1.8142,1.8187,1.8792,1.8854,1.8747,1.8934,1.8934,1.8881,1.8999,1.8987,1.9025,1.9105,1.921,1.9277,1.9277,1.9119,1.8869,1.8444,1.7977,1.7602,1.7602,1.7341,1.6963,1.648,1.6388,1.6094,1.5236,1.511,1.5089,1.5025,1.5037,1.5004,1.4971,1.4983,1.488,1.4628,1.4628,1.4363,1.3779,1.4212,1.4351,1.4035,1.3766,1.3294,1.256,1.2291,1.1938,1.1541,1.1241,1.0551,0.9518,0.9228,0.8389,1.7496,1.7393,0.0,0.0,0.0,0.0,1.8824,1.9301,1.962,2.0094,0.0,0.0,0.0,0.0,0.0,0.0,0.0,0.0,0.0,0.0,0.0,0.0,0.0,0.0,0.0,0.0,0.0,0.0,0.0,0.0,0.0,0.0,0.0,0.0,0.0,0.0,2.0997,2.0997,2.0715,2.0177,1.9704,1.9845,2.0454,1.9944,1.9686,1.9659,1.8906,1.8594,1.8511,1.7294,1.701,1.7328,1.7527,1.7938,1.8365,1.8013,1.7906,1.7932,1.8125,1.8039,1.793,1.874,1.8598,1.822,1.8801,1.8801,1.864,1.8907,1.8987,1.8987,1.8987,1.8987,1.8987,1.8987,1.8536,1.8093,1.8093,1.771,1.7379,1.7379,1.7506,1.7422,1.6877,1.6788,1.6606,1.6055,1.5989,1.5811,1.5337,1.5295,1.5129,1.4731,1.4675,1.4502,1.4014,1.3967,1.3766,1.3208,1.3194,1.3194,1.3184,1.2691,1.2389,1.2389,1.1864,1.1516,1.1391,1.072,1.0041,0.9375,0.8692,0.7658,1.6829,0.0,0.0,0.0,0.0,0.0,0.0,1.9466,0.0,0.0,0.0,0.0,0.0,0.0,0.0,0.0,0.0,0.0,0.0,0.0,0.0,0.0,0.0,0.0,0.0,0.0,0.0,0.0,0.0,0.0,0.0,0.0,0.0,0.0,0.0,0.0,2.0997,2.0936,2.0669,2.0177,1.9627,1.928,1.9148,1.9095,1.907,1.9057,1.8845,1.8679,1.8537,1.77,1.741,1.7526,1.7574,1.775,1.7967,1.7879,1.7926,1.8046,1.8104,1.807,1.8051,1.8282,1.8247,1.8139,1.8302,1.8302,1.8275,1.8356,1.8383,1.8383,1.8383,1.8224,1.8131,1.8321,1.8228,1.7875,1.7034,1.6726,1.6613,1.6613,1.6669,1.6549,1.6093,1.6036,1.5726,1.4818,1.4667,1.4567,1.423,1.3969,1.3782,1.3647,1.3307,1.2996,1.2749,1.2291,1.1963,1.1792,1.1625,1.1864,1.2618,1.2384,1.1857,1.1015,1.0737,1.0364,0.9865,0.9276,0.858,0.7762,0.7144,0.6312,1.7421,0.0,0.0,0.0,0.0,0.0,0.0,0.0,0.0,0.0,0.0,0.0,0.0,0.0,0.0,0.0,0.0,0.0,0.0,0.0,0.0,0.0,0.0,0.0,0.0,0.0,0.0,0.0,0.0,0.0,0.0,0.0,0.0,0.0,0.0,0.0,2.0873,2.085,2.0665,2.0393,1.9608,1.9189,1.9146,1.8787,1.8636,1.8658,1.8844,1.8513,1.7832,1.77,1.7648,1.7664,1.7541,1.7672,1.7921,1.7921,1.7997,1.8084,1.8084,1.803,1.7959,1.8068,1.7959,1.7794,1.7799,1.7893,1.7893,1.7623,1.7678,1.7788,1.7584,1.7407,1.7396,1.7847,1.7655,1.7202,1.6454,1.6112,1.594,1.594,1.594,1.5859,1.5624,1.5583,1.5353,1.4705,1.4475,1.4324,1.4159,1.3604,1.3229,1.3194,1.2648,1.2241,1.2146,1.167,1.1341,1.1241,1.1088,1.1124,1.1416,1.1375,1.0981,1.0261,0.9961,0.9425,0.8672,0.8362,0.7631,0.6578,0.6204,0.5609,1.8623,0.0,0.0,0.0,0.0,0.0,0.0,0.0,0.0,0.0,0.0,0.0,0.0,0.0,0.0,0.0,0.0,0.0,0.0,0.0,0.0,0.0,0.0,0.0,0.0,0.0,0.0,0.0,0.0,0.0,0.0,0.0,0.0,0.0,0.0,0.0,2.0699,2.0699,2.0673,0.0,1.9643,1.9426,1.9872,1.8906,1.8507,1.8568,1.8944,1.8242,1.6892,1.7423,1.7686,1.7716,1.7415,1.7607,1.803,1.803,1.803,1.803,1.803,1.7865,1.7711,1.7947,1.7711,1.7295,1.7307,1.7457,1.7468,1.681,1.6922,1.7157,1.6743,1.6602,1.6743,1.7352,1.6866,1.6255,1.6197,1.5748,1.5352,1.5352,1.5352,1.5352,1.5352,1.5352,1.5352,1.5352,1.503,1.4757,1.4757,1.3876,1.3206,1.315,1.2449,1.1977,1.1906,1.1679,1.1431,1.1226,1.1148,1.079,0.9989,0.9999,0.9969,0.9891,0.9413,0.8732,0.7871,0.7818,0.709,0.5773,0.5719,0.5312,0.0,1.831,0.0,0.0,0.0,0.0,0.0,0.0,0.0,0.0,0.0,0.0,0.0,0.0,0.0,0.0,0.0,0.0,0.0,0.0,0.0,0.0,0.0,0.0,0.0,0.0,0.0,0.0,0.0,0.0,0.0,0.0,0.0,0.0,0.0,2.0699,2.0699,2.0699,2.0451,0.0,1.9758,1.9457,1.914,1.9108,1.9354,1.9794,1.9298,1.8658,1.7906,1.7484,1.7338,1.7406,1.7324,1.7374,1.7462,1.7462,1.7462,1.7462,1.7462,1.7434,1.739,1.7445,1.739,1.7239,1.6881,1.6797,1.674,1.6208,1.6151,1.6208,1.6093,1.5892,1.5719,1.5864,1.595,1.5874,1.5362,1.5167,1.5088,1.5088,1.5088,1.5088,1.5088,1.5088,1.5088,1.5088,1.4697,1.4402,1.4402,1.3488,1.2833,1.2804,1.1817,1.116,1.1154,1.0601,1.0322,1.0364,0.9995,0.9767,0.9678,0.9877,0.9718,0.9054,0.8936,0.8441,0.7572,0.7122,0.6416,0.5542,0.512,0.4715,0.0,0.0,0.0,0.0,0.0,0.0,0.0,0.0,0.0,0.0,0.0,0.0,0.0,0.0,0.0,0.0,0.0,0.0,0.0,0.0,0.0,0.0,0.0,0.0,0.0,0.0,0.0,0.0,0.0,0.0,0.0,0.0,0.0,0.0,2.0699,2.0699,2.0699,2.0699,2.053,2.0242,1.9943,1.9643,1.9329,1.9193,1.9154,1.9227,1.908,1.856,1.7859,1.769,1.7659,1.7661,1.7407,1.7306,1.7306,1.7306,1.7306,1.7306,1.7306,1.7306,1.7306,1.7306,1.7306,1.7211,1.6751,1.6751,1.6751,1.5816,1.5729,1.5787,1.5342,1.5108,1.4961,1.4961,1.5225,1.5362,1.5059,1.5,1.5,1.5,1.5,1.5,1.5,1.5,1.5,1.5,1.4781,1.4524,1.4216,1.3422,1.2754,1.2414,1.1494,1.0887,1.084,1.0389,1.007,1.0012,0.9685,0.9472,0.9424,0.954,0.9432,0.901,0.8976,0.8539,0.7593,0.6932,0.6161,0.5296,0.4653,0.4273,0.0,0.0,0.0,0.0,0.0,0.0,0.0,0.0,0.0,0.0,0.0,0.0,0.0,0.0,0.0,0.0,0.0,0.0,0.0,0.0,0.0,0.0,0.0,0.0,0.0,0.0,0.0,0.0,0.0,0.0,0.0,0.0,2.1106,2.0699,2.0699,2.0699,2.0699,2.0699,2.0699,2.0699,2.0203,1.9956,1.9943,1.9433,1.8947,1.8493,1.8796,1.8391,1.753,1.7836,1.7968,1.7913,1.7451,1.7306,1.7306,1.7267,1.7239,1.7239,1.7211,1.7211,1.7211,1.7211,1.7211,1.7127,1.6666,1.6722,1.6694,1.5439,1.5284,1.5323,1.4526,1.4327,1.4327,1.4327,1.4526,1.4764,1.4882,1.4911,1.4911,1.4911,1.4911,1.4911,1.4911,1.4911,1.4911,1.4911,1.4911,1.4666,1.3974,1.3329,1.2662,1.192,1.1191,1.0727,1.0654,1.0396,1.014,0.9938,0.9741,0.9547,0.932,0.9277,0.9218,0.9158,0.9153,0.8689,0.7739,0.6958,0.6084,0.5152,0.4363,0.3993,0.0,0.0,0.0,0.0,0.0,0.0,0.0,0.0,0.0,0.0,0.0,0.0,0.0,0.0,0.0,0.0,0.0,0.0,0.0,0.0,0.0,0.0,0.0,0.0,0.0,0.0,0.0,0.0,0.0,0.0,0.0,2.0799,2.0749,2.0699,2.0699,2.0699,2.0699,2.0699,2.0699,2.0699,2.0633,2.0594,2.0594,2.0515,2.0141,1.9557,1.9155,1.8602,1.7974,1.7556,1.7407,1.7407,1.7334,1.7306,1.7278,1.7106,1.7039,1.7011,1.692,1.6874,1.6874,1.6874,1.6874,1.6779,1.6314,1.5845,1.5352,1.4765,1.4222,1.3803,1.3662,1.3631,1.3631,1.3631,1.3662,1.3851,1.4446,1.4575,1.4575,1.4575,1.4575,1.4575,1.4575,1.4575,1.4575,1.4575,1.4575,1.4288,1.3472,1.2816,1.2089,1.1229,1.0526,1.0129,1.011,1.0079,1.0034,0.9996,0.9844,0.9762,0.973,0.9566,0.9313,0.9047,0.9035,0.8657,0.7883,0.6899,0.6079,0.542,0.4437,0.3938,1.7277,0.0,0.0,0.0,0.0,0.0,0.0,0.0,0.0,0.0,0.0,0.0,0.0,0.0,0.0,0.0,0.0,0.0,0.0,0.0,0.0,0.0,0.0,0.0,0.0,0.0,0.0,0.0,0.0,0.0,2.0699,2.0699,2.0699,2.0699,2.0699,2.0699,2.0699,2.0699,2.0699,2.0699,2.0699,2.0699,2.0699,2.0699,2.0207,1.9344,1.9093,1.8479,1.7634,1.7407,1.7306,1.7306,1.7172,1.7145,1.7117,1.6937,1.6881,1.6881,1.6807,1.6818,1.6818,1.6818,1.6581,1.6308,1.6263,1.5684,1.497,1.4705,1.4273,1.3825,1.3563,1.3511,1.3511,1.3511,1.3511,1.3571,1.3881,1.3941,1.3941,1.3941,1.3941,1.3941,1.3941,1.3941,1.3941,1.3941,1.3731,1.3268,1.2536,1.1927,1.1274,1.0534,1.0168,0.9983,0.9983,0.9926,0.9894,0.9894,0.974,0.9478,0.9075,0.8888,0.8528,0.7999,0.8469,0.8329,0.7553,0.651,0.5727,0.5192,0.433,0.3885,0.0,0.0,0.0,0.0,0.0,0.0,0.0,0.0,0.0,0.0,0.0,0.0,0.0,0.0,0.0,0.0,0.0,0.0,0.0,0.0,0.0,0.0,0.0,0.0,0.0,0.0,0.0,0.0,0.0,0.0,2.0699,2.0699,2.0699,2.0699,2.0699,2.0699,2.0699,2.0699,2.0699,2.0699,2.0699,2.0699,2.0699,2.0699,2.0054,1.8922,1.8987,1.8344,1.7306,1.7306,1.7306,1.7278,1.7078,1.7011,1.6983,1.6807,1.6761,1.6722,1.6524,1.6511,1.6547,1.6403,1.6086,1.5821,1.5986,1.539,1.4634,1.4448,1.4114,1.3704,1.3359,1.3277,1.3277,1.3277,1.3277,1.3299,1.348,1.3511,1.3511,1.3511,1.3511,1.345,1.3351,1.3321,1.329,1.313,1.2826,1.2336,1.1639,1.1212,1.0679,0.9951,0.9862,0.9862,0.9862,0.9772,0.967,0.9606,0.9446,0.9049,0.8323,0.8166,0.7739,0.7018,0.754,0.7629,0.7188,0.6152,0.5439,0.5081,0.4192,0.3736,0.0,0.0,0.0,0.0,0.0,0.0,0.0,0.0,0.0,0.0,0.0,0.0,0.0,0.0,0.0,0.0,0.0,0.0,0.0,0.0,0.0,0.0,0.0,0.0,0.0,0.0,0.0,0.0,0.0,0.0,2.0699,2.0699,2.0699,2.0699,2.0699,2.0699,2.0699,2.0699,2.0699,2.0699,2.0699,2.0699,2.0699,2.0699,1.9978,1.8727,1.8922,1.8344,1.7306,1.7306,1.7306,1.7278,1.7078,1.7011,1.6983,1.6712,1.6599,1.6485,1.5729,1.5684,1.5843,1.5293,1.5285,1.546,1.5153,1.4591,1.3973,1.3661,1.3141,1.2683,1.2652,1.2652,1.2652,1.2652,1.2652,1.2797,1.339,1.3511,1.3511,1.3511,1.3511,1.3351,1.2917,1.2826,1.2673,1.2135,1.2074,1.1764,1.0961,1.0836,1.0465,0.9606,0.9516,0.9516,0.9516,0.9516,0.9382,0.9055,0.9017,0.8657,0.7772,0.7739,0.7316,0.6465,0.6166,0.6326,0.6911,0.5894,0.5403,0.536,0.405,0.3416,0.0,0.0,0.0,0.0,0.0,0.0,0.0,0.0,0.0,0.0,0.0,0.0,0.0,0.0,0.0,0.0,0.0,0.0,0.0,0.0,0.0,0.0,0.0,0.0,0.0,0.0,0.0,0.0,0.0,0.0,2.0699,2.0699,2.0699,2.0699,2.0699,2.0699,2.0699,2.0699,2.0699,2.0699,2.0699,2.0498,2.0118,2.0118,1.9397,1.8186,1.8251,1.7799,1.6987,1.6987,1.6987,1.6991,1.7137,1.7196,1.7199,1.7278,1.7293,1.7203,1.6435,1.6257,1.6189,1.5281,1.4961,1.4839,1.4472,1.3927,1.3403,1.3272,1.2921,1.259,1.259,1.259,1.259,1.259,1.259,1.256,1.2451,1.2666,1.292,1.292,1.292,1.2758,1.2259,1.2166,1.1981,1.1445,1.1101,1.0793,1.0516,1.0168,0.9856,0.9542,0.9516,0.942,0.9183,0.9183,0.9022,0.8705,0.8366,0.7842,0.7092,0.6601,0.6005,0.5249,0.4987,0.5153,0.5745,0.5166,0.4715,0.4352,0.3891,0.3482,0.0,0.0,0.0,0.0,0.0,0.0,0.0,0.0,0.0,0.0,0.0,0.0,0.0,0.0,0.0,0.0,0.0,0.0,0.0,0.0,0.0,0.0,0.0,0.0,0.0,0.0,0.0,0.0,0.0,0.0,2.0699,2.0699,2.0699,2.0699,2.0699,2.0699,2.0699,2.0699,2.0599,2.0385,2.0359,2.0003,1.9423,1.9371,1.8765,1.7733,1.7733,1.7385,1.6818,1.6818,1.6885,1.7055,1.7246,1.7368,1.7506,1.7646,1.7699,1.7606,1.691,1.6577,1.6324,1.5359,1.4778,1.4355,1.3988,1.3525,1.3068,1.2949,1.2861,1.2742,1.2622,1.259,1.259,1.2529,1.2336,1.2112,1.1912,1.2103,1.2274,1.2089,1.2058,1.1903,1.1404,1.1303,1.1115,1.0579,1.0238,1.0021,1.0021,0.9708,0.9516,0.9516,0.9382,0.9247,0.9017,0.8894,0.87,0.8349,0.7819,0.7195,0.6445,0.5782,0.5123,0.4528,0.4367,0.4464,0.4827,0.4595,0.4328,0.3961,0.3725,0.3292,0.0,0.0,0.0,0.0,0.0,0.0,0.0,0.0,0.0,0.0,0.0,0.0,0.0,0.0,0.0,0.0,0.0,0.0,0.0,0.0,0.0,0.0,0.0,0.0,0.0,0.0,0.0,0.0,0.0,2.0712,2.0725,2.0712,2.0699,2.0699,2.0699,2.0699,2.0699,2.0699,2.0385,1.9798,1.9644,1.9268,1.8661,1.8551,1.8066,1.739,1.739,1.7162,1.6811,1.6811,1.7076,1.7472,1.7364,1.7588,1.7904,1.7792,1.774,1.7647,1.7001,1.6541,1.6081,1.5366,1.4661,1.4029,1.3697,1.3379,1.3036,1.271,1.2822,1.3012,1.2686,1.2598,1.2545,1.2321,1.1778,1.142,1.1848,1.1833,1.1613,1.1122,1.1028,1.0863,1.0364,1.0314,1.0123,0.958,0.949,0.949,0.9484,0.9484,0.9484,0.9484,0.9183,0.8985,0.8985,0.8673,0.8349,0.8019,0.7461,0.6778,0.5921,0.5355,0.4827,0.43,0.43,0.4267,0.4267,0.43,0.43,0.4233,0.3493,0.279,1.7102,0.0,0.0,0.0,0.0,0.0,0.0,0.0,0.0,0.0,0.0,0.0,0.0,0.0,0.0,0.0,0.0,0.0,0.0,0.0,0.0,0.0,0.0,0.0,0.0,0.0,0.0,0.0,2.0909,2.0857,2.125,2.0909,2.0699,2.0699,2.0699,2.0699,2.0699,2.0699,2.0385,1.9798,1.9644,1.9097,1.8131,1.7984,1.7529,1.6814,1.6814,1.6874,1.6938,1.6938,1.7011,1.7198,1.7853,1.8144,1.83,1.8611,1.8702,1.8539,1.7317,1.6606,1.6027,1.453,1.3887,1.3616,1.3052,1.3156,1.3378,1.2876,1.2813,1.2781,1.2336,1.2367,1.2384,1.1721,1.1633,1.145,1.0666,1.0452,1.0608,1.1195,1.1135,1.0863,1.0364,1.0471,1.0249,0.9271,0.9307,0.9261,0.8825,0.8776,0.8776,0.8776,0.8705,0.8538,0.8306,0.8182,0.7987,0.7657,0.6773,0.6152,0.5925,0.503,0.4328,0.3961,0.3928,0.3794,0.3496,0.403,0.403,0.346,0.2351,0.1714,0.0,0.0,0.0,0.0,0.0,0.0,0.0,0.0,0.0,0.0,0.0,0.0,0.0,0.0,0.0,0.0,0.0,0.0,0.0,0.0,0.0,0.0,0.0,0.0,0.0,0.0,0.0,0.0,2.1577,2.1446,2.1511,2.0988,2.0687,2.0612,2.0612,2.0473,2.0144,2.0144,1.9747,1.8924,1.8768,1.8217,1.7346,1.7207,1.7016,1.6777,1.6777,1.696,1.7316,1.7492,1.7575,1.7657,1.8175,1.8528,1.8702,1.8662,1.8654,1.8455,1.7103,1.6306,1.5641,1.4455,1.3753,1.333,1.298,1.3044,1.3115,1.277,1.259,1.2536,1.2662,1.2283,1.1789,1.1393,1.0896,1.0367,0.9921,0.9501,0.9457,1.018,1.0271,1.0077,0.975,0.9877,0.9795,0.9148,0.9175,0.9151,0.8785,0.8763,0.8663,0.8394,0.8212,0.7986,0.7787,0.7377,0.7134,0.7162,0.6148,0.5554,0.5554,0.4628,0.3995,0.3792,0.3625,0.3426,0.3192,0.3629,0.3426,0.2619,0.168,0.1143,0.0,1.9889,0.0,0.0,0.0,0.0,0.0,2.2544,0.0,0.0,0.0,0.0,0.0,0.0,0.0,0.0,0.0,0.0,0.0,0.0,0.0,0.0,0.0,0.0,0.0,0.0,2.2175,2.24,2.24,2.2152,2.1525,2.0988,2.0637,2.0486,2.0486,2.0144,1.9397,1.9397,1.8845,1.7694,1.7501,1.7112,1.6599,1.6459,1.6622,1.7017,1.7017,1.7306,1.7802,1.8216,1.8414,1.8414,1.8369,1.8604,1.8898,1.8138,1.7862,1.7663,1.6568,1.5684,1.5034,1.4651,1.3858,1.306,1.3204,1.2956,1.2585,1.2502,1.2277,1.2293,1.3123,1.2196,1.1065,1.1145,0.9972,0.8981,0.9459,0.892,0.8412,0.8698,0.8938,0.9021,0.8826,0.9002,0.9127,0.906,0.9006,0.8981,0.8885,0.881,0.8559,0.8026,0.7593,0.7343,0.7248,0.6429,0.6106,0.6581,0.565,0.5087,0.5087,0.4256,0.3792,0.3725,0.3293,0.3092,0.3092,0.3125,0.272,0.1878,0.131,0.0807,2.0085,2.0529,2.0738,0.0,0.0,0.0,0.0,2.1118,0.0,0.0,0.0,0.0,0.0,0.0,0.0,0.0,0.0,0.0,0.0,0.0,0.0,0.0,0.0,0.0,0.0,0.0,2.0885,2.2296,2.2401,2.2152,2.1538,2.0988,2.0637,2.0486,2.0486,2.0144,1.9397,1.9397,1.8845,1.7694,1.7501,1.7112,1.6599,1.6459,1.6622,1.7017,1.7017,1.7471,1.8257,1.835,1.8414,1.838,1.8171,1.8137,1.8138,1.7379,1.6924,1.6516,1.5705,1.4985,1.4281,1.3622,1.3076,1.271,1.2719,1.2743,1.2702,1.2417,1.2186,1.2049,1.224,1.1764,1.1114,1.0623,1.006,0.9469,0.8792,0.8655,0.8583,0.8493,0.8806,0.9021,0.8826,0.9141,0.9252,0.878,0.8468,0.8115,0.7633,0.7114,0.6722,0.6615,0.6517,0.644,0.6371,0.6162,0.6056,0.6061,0.5455,0.5087,0.5087,0.4256,0.3658,0.3326,0.2725,0.2389,0.2389,0.2654,0.2484,0.1878,0.1007,0.0336,0.0,0.0,2.0699,2.0699,0.0,0.0,0.0,0.0,0.0,0.0,0.0,0.0,0.0,0.0,0.0,0.0,0.0,0.0,0.0,0.0,0.0,0.0,0.0,0.0,0.0,0.0,2.1088,2.2296,2.2326,2.2162,2.1876,2.0965,2.0398,2.0258,2.0258,1.9759,1.8753,1.8765,1.8174,1.705,1.6937,1.6779,1.6506,1.6431,1.6746,1.7358,1.7358,1.7864,1.8735,1.8507,1.8221,1.7948,1.8004,1.7909,1.7599,1.6458,1.5833,1.5369,1.447,1.4024,1.3809,1.3268,1.3084,1.3108,1.3054,1.2687,1.2244,1.1887,1.1362,1.0969,1.1189,1.0657,1.0015,0.9829,0.9383,0.891,0.8475,0.8481,0.8524,0.842,0.8685,0.8829,0.8619,0.8631,0.8547,0.8259,0.7808,0.738,0.7072,0.6763,0.6429,0.6098,0.6029,0.5847,0.5518,0.5196,0.4996,0.496,0.4456,0.4159,0.4159,0.3556,0.309,0.2723,0.2356,0.2052,0.1749,0.1915,0.1713,0.1175,0.0168,-0.0437,0.0,0.0,0.0,0.0,0.0,2.0805,0.0,0.0,0.0,0.0,0.0,0.0,0.0,0.0,0.0,0.0,0.0,0.0,0.0,0.0,0.0,0.0,0.0,0.0,0.0,0.0,2.1822,2.2499,2.2431,2.23,2.2224,2.1042,2.0246,2.0016,1.999,1.9396,1.812,1.8093,1.754,1.6413,1.6413,1.6413,1.6413,1.6413,1.6829,1.7575,1.7575,1.7966,1.8621,1.8241,1.7745,1.72,1.7464,1.7335,1.6883,1.5485,1.4833,1.4446,1.3541,1.3385,1.3478,1.3177,1.3165,1.323,1.3179,1.2375,1.1447,1.1116,1.0428,0.9898,1.0345,0.9679,0.8946,0.9292,0.8776,0.8236,0.8373,0.8434,0.8458,0.8458,0.8477,0.8448,0.825,0.8003,0.7744,0.7629,0.7092,0.671,0.671,0.6595,0.6325,0.5786,0.5606,0.5333,0.4801,0.4201,0.386,0.3886,0.3476,0.3235,0.322,0.2896,0.2554,0.2221,0.2087,0.1783,0.1311,0.1109,0.0773,0.0336,-0.0538,-0.1008,0.0,0.0,0.0,0.0,2.0699,0.0,0.0,0.0,0.0,0.0,0.0,0.0,0.0,0.0,0.0,0.0,0.0,0.0,0.0,0.0,0.0,0.0,0.0,0.0,0.0,0.0,0.0,2.3069,2.2989,2.2687,2.2237,2.1428,2.0705,2.0029,1.999,1.9396,1.812,1.8093,1.754,1.6413,1.6413,1.6413,1.6413,1.6413,1.6653,1.7089,1.7089,1.7073,1.7046,1.6997,1.6587,1.6002,1.5961,1.577,1.535,1.4548,1.4188,1.4114,1.3826,1.3543,1.33,1.3086,1.2549,1.1996,1.1833,1.1222,1.0463,1.0083,0.9898,0.9898,1.023,0.9696,0.9146,0.9495,0.9084,0.859,0.8434,0.8543,0.8666,0.8666,0.8266,0.7837,0.762,0.7702,0.7629,0.7092,0.644,0.6015,0.6015,0.5556,0.5171,0.5093,0.4766,0.4479,0.43,0.3865,0.3593,0.3462,0.3423,0.3355,0.3281,0.2927,0.2554,0.2221,0.1681,0.1379,0.1311,0.0336,-0.0134,-0.0202,-0.0336,-0.0638,0.0,0.0,0.0,0.0,0.0,0.0,0.0,0.0,2.0699,0.0,0.0,0.0,0.0,0.0,0.0,0.0,0.0,0.0,0.0,0.0,0.0,0.0,0.0,0.0,0.0,0.0,0.0,0.0,0.0,2.1902,2.1018,2.0585,1.9907,1.8922,1.891,1.8459,1.7589,1.7589,1.7168,1.6413,1.6413,1.6413,1.6413,1.6413,1.6622,1.7017,1.7017,1.7042,1.7054,1.6596,1.6011,1.5396,1.4792,1.4692,1.4831,1.4167,1.381,1.3619,1.3407,1.3378,1.3428,1.3584,1.3032,1.2218,1.1976,1.1045,1.0005,0.9534,0.9216,0.9002,0.9031,0.8877,0.8717,0.8885,0.8814,0.868,0.8595,0.8642,0.8585,0.8241,0.7974,0.7528,0.6699,0.6628,0.663,0.6363,0.5786,0.5362,0.5362,0.4935,0.4659,0.4659,0.4309,0.3919,0.3525,0.3366,0.3104,0.2772,0.2769,0.261,0.2224,0.2026,0.1722,0.124,0.0949,0.0672,0.037,-0.0067,-0.047,-0.0773,-0.0773,-0.0874,2.0962,0.0,0.0,0.0,0.0,0.0,0.0,0.0,0.0,0.0,0.0,0.0,0.0,0.0,0.0,0.0,0.0,0.0,0.0,0.0,0.0,0.0,0.0,0.0,0.0,0.0,0.0,0.0,0.0,0.0,2.027,1.992,1.9289,1.8322,1.8173,1.7809,1.7202,1.7202,1.6916,1.6413,1.6413,1.6413,1.6413,1.6413,1.656,1.6841,1.6955,1.6879,1.6635,1.6186,1.5474,1.4622,1.3991,1.3991,1.433,1.3876,1.3635,1.3477,1.3279,1.3326,1.3497,1.3577,1.2959,1.2111,1.1646,1.0586,0.9493,0.9021,0.8676,0.8363,0.8207,0.8288,0.8415,0.8472,0.8595,0.8703,0.8703,0.8703,0.8508,0.7936,0.7548,0.7053,0.6054,0.5902,0.5822,0.5512,0.5126,0.4781,0.4704,0.4426,0.4229,0.4229,0.3841,0.3466,0.3062,0.2943,0.2732,0.2386,0.2183,0.188,0.1437,0.1222,0.0921,0.0496,0.0313,0.0069,-0.0344,-0.0481,-0.0754,-0.1088,-0.1113,-0.1109,0.0,0.0,0.0,2.0818,0.0,0.0,0.0,0.0,2.1485,0.0,0.0,0.0,0.0,0.0,0.0,0.0,0.0,0.0,0.0,0.0,0.0,0.0,0.0,0.0,0.0,0.0,0.0,0.0,0.0,0.0,2.0537,1.992,1.9356,1.8794,1.8357,1.7809,1.7202,1.7202,1.6916,1.6413,1.6413,1.6413,1.6413,1.6413,1.6413,1.6425,1.6831,1.6266,1.5117,1.5546,1.4772,1.3388,1.3676,1.3704,1.3553,1.3534,1.376,1.4063,1.3825,1.3659,1.3368,1.2599,1.1818,1.0999,1.0207,0.9382,0.8699,0.8485,0.8396,0.8401,0.8396,0.8396,0.8453,0.8647,0.8699,0.8703,0.8703,0.8703,0.8508,0.7936,0.6973,0.6163,0.5938,0.5902,0.5589,0.4577,0.4423,0.4268,0.388,0.3841,0.3802,0.3802,0.3413,0.31,0.3098,0.2743,0.2507,0.2504,0.1877,0.1513,0.1513,0.0812,0.0437,0.04,-0.0109,-0.0363,-0.04,-0.0909,-0.1148,-0.1084,-0.1089,-0.1109,0.0,0.0,2.2413,2.1459,0.0,0.0,0.0,0.0,0.0,0.0,0.0,0.0,0.0,0.0,0.0,0.0,0.0,0.0,0.0,0.0,0.0,0.0,0.0,0.0,0.0,0.0,0.0,0.0,0.0,0.0,0.0,1.9408,1.8896,1.7637,1.7455,1.7134,1.6666,1.6666,1.6591,1.6413,1.6674,1.6663,1.6423,1.7005,1.6695,1.5779,1.6284,1.5776,1.4526,1.4548,1.4294,1.3819,1.3572,1.3565,1.3697,1.3697,1.3765,1.3863,1.3681,1.3572,1.3455,1.32,1.2194,1.1037,1.0775,0.976,0.8685,0.8618,0.86,0.8562,0.8454,0.8416,0.8397,0.8313,0.8289,0.8289,0.8289,0.7902,0.7318,0.6657,0.5809,0.5079,0.4579,0.4501,0.4501,0.4423,0.4384,0.4268,0.3841,0.353,0.3335,0.3335,0.2943,0.2707,0.2707,0.2196,0.1725,0.1256,0.1013,0.0737,0.031,0.0076,-0.0262,-0.0635,-0.0845,-0.0948,-0.0948,-0.113,-0.1197,-0.1151,-0.1176,-0.1149,2.2753,2.2949,0.0,2.206,2.21,0.0,2.1485,0.0,0.0,0.0,0.0,0.0,0.0,0.0,0.0,0.0,0.0,0.0,0.0,0.0,0.0,0.0,0.0,0.0,0.0,0.0,1.888,1.903,0.0,0.0,0.0,0.0,1.8499,1.7285,1.7099,1.68,1.6413,1.6539,1.6539,1.6413,1.6965,1.7017,1.6643,1.7368,1.7022,1.5838,1.635,1.5774,1.448,1.4445,1.4255,1.3977,1.3622,1.3567,1.3681,1.3681,1.3681,1.3681,1.3535,1.3309,1.3046,1.2746,1.1744,1.0625,1.0319,0.9528,0.8703,0.8703,0.8703,0.8665,0.8441,0.8403,0.8365,0.814,0.8102,0.8025,0.7753,0.7249,0.6626,0.5654,0.4957,0.4341,0.388,0.3647,0.3645,0.3919,0.3956,0.3802,0.3372,0.3059,0.2904,0.2904,0.2668,0.2431,0.2196,0.1608,0.1059,0.0628,0.0393,0.0118,-0.0275,-0.0542,-0.0844,-0.1228,-0.1359,-0.1385,-0.1236,-0.1535,-0.1491,-0.122,-0.1514,-0.1552]}]]